[[{"header":{"parameterUnit":"m.s-1","parameterCategory":1,"la1":30.6,"la2":29.2853,"lo1":-89.7004,"lo2":-87.6739,"dy":0.0162,"dx":0.0183,"nx":112,"ny":82,"refTime":"2026-04-15T00:00:00:Z","depth":0,"parameterNumber":2,"parameterNumberName":"U-component_of_WINDS"},"data":[0.0,0.0,0.0,0.0,0.0,0.0,0.0,0.0,0.0,0.0,0.0,0.0,0.0,0.0,0.0,0.0,0.0,0.0,0.0,0.0,0.0,0.0,0.0,0.0,0.0,0.0,0.0,0.0,0.0,0.0,0.0,0.0,0.0,0.0,0.0,0.0,0.0,0.0,0.0,0.0,0.0,0.0,0.0,0.0,0.0,0.0,0.0,0.0,0.0,0.0,0.0,0.0,0.0,0.0,0.0,0.0,0.0,0.0,0.0,0.0,0.0,0.0,0.0,0.0,0.0,0.0,0.0,0.0,0.0,0.0,0.0,0.0,0.0,0.0,0.0,0.0,0.0,0.0,0.0,0.0,0.0,0.0,0.0,0.0,0.0,0.0,0.0,0.0,0.0,0.0,0.0,-2.4541,-2.7556,-2.9099,-2.8346,-2.811,-2.6366,-2.251,0.0,0.0,0.0,0.0,0.0,0.0,0.0,0.0,0.0,0.0,0.0,0.0,0.0,0.0,0.0,0.0,0.0,0.0,0.0,0.0,0.0,0.0,0.0,0.0,0.0,0.0,0.0,0.0,0.0,0.0,0.0,0.0,0.0,0.0,0.0,0.0,0.0,0.0,0.0,0.0,0.0,0.0,0.0,0.0,0.0,0.0,0.0,0.0,0.0,0.0,0.0,0.0,0.0,0.0,0.0,0.0,0.0,0.0,0.0,0.0,0.0,0.0,0.0,0.0,0.0,0.0,0.0,0.0,0.0,0.0,0.0,0.0,0.0,0.0,0.0,0.0,0.0,0.0,0.0,0.0,0.0,0.0,0.0,0.0,0.0,0.0,0.0,0.0,0.0,0.0,0.0,0.0,0.0,0.0,0.0,0.0,0.0,0.0,0.0,0.0,0.0,0.0,0.0,0.0,-2.0812,-2.5894,-2.8214,-2.9301,-2.9138,-2.8464,-2.6896,-2.4108,0.0,0.0,0.0,0.0,0.0,0.0,0.0,0.0,0.0,0.0,0.0,0.0,0.0,0.0,0.0,0.0,0.0,0.0,0.0,0.0,0.0,0.0,0.0,0.0,0.0,0.0,0.0,0.0,0.0,0.0,0.0,0.0,0.0,0.0,0.0,0.0,0.0,0.0,0.0,0.0,0.0,0.0,0.0,0.0,0.0,0.0,0.0,0.0,0.0,0.0,0.0,0.0,0.0,0.0,0.0,0.0,0.0,0.0,0.0,0.0,0.0,0.0,0.0,0.0,0.0,0.0,0.0,0.0,0.0,0.0,0.0,0.0,0.0,0.0,0.0,0.0,0.0,0.0,0.0,0.0,0.0,0.0,0.0,0.0,0.0,0.0,0.0,0.0,0.0,0.0,0.0,0.0,0.0,0.0,0.0,0.0,0.0,0.0,0.0,0.0,0.0,0.0,0.0,-2.1205,-2.3351,-2.7672,-2.892,-2.919,-2.8635,-2.8278,-2.6831,-2.3849,-2.1348,0.0,0.0,0.0,0.0,0.0,0.0,0.0,0.0,0.0,0.0,0.0,0.0,0.0,0.0,0.0,0.0,0.0,0.0,0.0,0.0,0.0,0.0,0.0,0.0,0.0,0.0,0.0,0.0,0.0,0.0,0.0,0.0,0.0,0.0,0.0,0.0,0.0,0.0,0.0,0.0,0.0,0.0,0.0,0.0,0.0,0.0,0.0,0.0,0.0,0.0,0.0,0.0,0.0,0.0,0.0,0.0,0.0,0.0,0.0,0.0,0.0,0.0,0.0,0.0,0.0,0.0,0.0,0.0,0.0,0.0,0.0,0.0,0.0,0.0,0.0,0.0,0.0,0.0,0.0,0.0,0.0,0.0,0.0,0.0,0.0,0.0,0.0,0.0,0.0,0.0,0.0,0.0,0.0,0.0,0.0,0.0,0.0,0.0,0.0,0.0,0.0,0.0,-2.4462,-2.607,-2.8709,-2.9254,-2.9116,-2.8376,-2.8019,-2.6534,-2.359,-2.0566,0.0,0.0,0.0,0.0,0.0,0.0,0.0,0.0,0.0,0.0,0.0,0.0,0.0,0.0,0.0,0.0,0.0,0.0,0.0,0.0,0.0,0.0,0.0,0.0,0.0,0.0,0.0,0.0,0.0,0.0,0.0,0.0,0.0,0.0,0.0,0.0,0.0,0.0,0.0,0.0,0.0,0.0,0.0,0.0,0.0,0.0,0.0,0.0,0.0,0.0,0.0,0.0,0.0,0.0,0.0,0.0,0.0,0.0,0.0,0.0,0.0,0.0,0.0,0.0,0.0,0.0,0.0,0.0,0.0,0.0,0.0,0.0,0.0,0.0,0.0,0.0,0.0,0.0,0.0,0.0,0.0,0.0,0.0,0.0,0.0,0.0,0.0,0.0,0.0,0.0,0.0,0.0,0.0,0.0,0.0,0.0,0.0,0.0,0.0,0.0,0.0,0.0,-2.4371,-2.7073,-2.8005,-2.8872,-2.9339,-2.9238,-2.7833,-2.62,-2.433,-1.9841,0.0,0.0,0.0,0.0,0.0,0.0,0.0,0.0,0.0,0.0,0.0,0.0,0.0,0.0,0.0,0.0,0.0,0.0,0.0,0.0,0.0,0.0,0.0,0.0,0.0,0.0,0.0,0.0,0.0,0.0,0.0,0.0,0.0,0.0,0.0,0.0,0.0,0.0,0.0,0.0,0.0,0.0,0.0,0.0,0.0,0.0,0.0,0.0,0.0,0.0,0.0,0.0,0.0,0.0,0.0,0.0,0.0,0.0,0.0,0.0,0.0,0.0,0.0,0.0,0.0,0.0,0.0,0.0,0.0,0.0,0.0,0.0,0.0,0.0,0.0,0.0,0.0,0.0,0.0,0.0,0.0,0.0,0.0,0.0,0.0,0.0,0.0,0.0,0.0,0.0,0.0,0.0,0.0,0.0,0.0,0.0,0.0,0.0,0.0,0.0,0.0,0.0,-2.4111,-2.6293,0.0,-2.918,-2.9376,-2.9312,-2.8278,-2.647,-2.3782,0.0,0.0,0.0,0.0,0.0,0.0,0.0,0.0,0.0,0.0,0.0,0.0,0.0,0.0,0.0,0.0,0.0,0.0,0.0,0.0,0.0,0.0,0.0,0.0,0.0,0.0,0.0,0.0,0.0,0.0,0.0,0.0,0.0,0.0,0.0,0.0,0.0,0.0,0.0,0.0,0.0,0.0,0.0,0.0,0.0,0.0,0.0,0.0,0.0,0.0,0.0,0.0,0.0,0.0,0.0,0.0,0.0,0.0,0.0,0.0,0.0,0.0,0.0,0.0,0.0,0.0,0.0,0.0,0.0,0.0,0.0,0.0,0.0,0.0,0.0,0.0,0.0,0.0,0.0,0.0,0.0,0.0,0.0,0.0,0.0,0.0,0.0,0.0,0.0,0.0,0.0,0.0,0.0,0.0,0.0,0.0,0.0,0.0,0.0,0.0,0.0,0.0,-2.2274,-2.4259,-2.6303,0.0,-2.9376,-2.9275,-2.8963,-2.7964,-2.6033,-2.3029,0.0,0.0,0.0,0.0,0.0,0.0,0.0,0.0,0.0,0.0,0.0,0.0,0.0,0.0,0.0,0.0,0.0,0.0,0.0,0.0,0.0,0.0,0.0,0.0,0.0,0.0,0.0,0.0,0.0,0.0,0.0,0.0,0.0,0.0,0.0,0.0,0.0,0.0,0.0,0.0,0.0,0.0,0.0,0.0,0.0,0.0,0.0,0.0,0.0,0.0,0.0,0.0,0.0,0.0,0.0,0.0,0.0,0.0,0.0,0.0,0.0,0.0,0.0,0.0,0.0,0.0,0.0,0.0,0.0,0.0,0.0,0.0,0.0,0.0,0.0,0.0,0.0,0.0,0.0,0.0,0.0,0.0,0.0,0.0,0.0,0.0,0.0,0.0,0.0,0.0,0.0,0.0,0.0,0.0,0.0,0.0,0.0,0.0,0.0,0.0,0.0,0.0,-2.1718,-2.4891,-2.7538,-2.9211,-2.9396,-2.9062,-2.817,-2.6609,-2.4631,0.0,0.0,0.0,0.0,0.0,0.0,0.0,0.0,0.0,0.0,0.0,0.0,0.0,0.0,0.0,0.0,0.0,0.0,0.0,0.0,0.0,0.0,0.0,0.0,0.0,0.0,0.0,0.0,0.0,0.0,0.0,0.0,0.0,0.0,0.0,0.0,0.0,0.0,0.0,0.0,0.0,0.0,0.0,0.0,0.0,0.0,0.0,0.0,0.0,0.0,0.0,0.0,0.0,0.0,0.0,0.0,0.0,0.0,0.0,0.0,0.0,0.0,0.0,0.0,0.0,0.0,0.0,0.0,0.0,0.0,0.0,0.0,0.0,0.0,0.0,0.0,0.0,0.0,0.0,0.0,0.0,0.0,0.0,0.0,0.0,0.0,0.0,0.0,0.0,0.0,0.0,0.0,0.0,0.0,0.0,0.0,0.0,0.0,0.0,0.0,0.0,0.0,0.0,-2.3227,-2.5606,-2.7538,-2.9211,-2.9396,-2.9062,-2.817,-2.6609,-2.4417,-2.1339,0.0,0.0,0.0,0.0,0.0,0.0,0.0,0.0,0.0,0.0,0.0,0.0,0.0,0.0,0.0,0.0,0.0,0.0,0.0,0.0,0.0,0.0,0.0,0.0,0.0,0.0,0.0,0.0,0.0,0.0,0.0,0.0,0.0,0.0,0.0,0.0,0.0,0.0,0.0,0.0,0.0,0.0,0.0,0.0,0.0,0.0,0.0,0.0,0.0,0.0,0.0,0.0,0.0,0.0,0.0,0.0,0.0,0.0,0.0,0.0,0.0,0.0,0.0,0.0,0.0,0.0,0.0,0.0,0.0,0.0,0.0,0.0,0.0,0.0,0.0,0.0,0.0,0.0,0.0,0.0,0.0,0.0,0.0,0.0,0.0,0.0,0.0,0.0,0.0,0.0,0.0,0.0,0.0,0.0,0.0,0.0,0.0,0.0,0.0,0.0,0.0,0.0,-2.3405,-2.568,-2.7538,-2.9211,-2.9396,-2.8913,-2.7724,-2.6423,-2.4156,-2.0537,0.0,0.0,0.0,0.0,0.0,0.0,0.0,0.0,0.0,0.0,0.0,0.0,0.0,0.0,0.0,0.0,0.0,0.0,0.0,0.0,0.0,0.0,0.0,0.0,0.0,0.0,0.0,0.0,0.0,0.0,0.0,0.0,0.0,0.0,0.0,0.0,0.0,0.0,0.0,0.0,0.0,0.0,0.0,0.0,0.0,0.0,0.0,0.0,0.0,0.0,0.0,0.0,0.0,0.0,0.0,0.0,0.0,0.0,0.0,0.0,0.0,0.0,0.0,0.0,0.0,0.0,0.0,0.0,0.0,0.0,0.0,0.0,0.0,0.0,0.0,0.0,0.0,0.0,0.0,0.0,0.0,0.0,0.0,0.0,0.0,0.0,0.0,0.0,0.0,0.0,0.0,0.0,0.0,0.0,0.0,0.0,0.0,0.0,0.0,0.0,0.0,0.0,-2.2794,-2.5411,-2.7538,-2.9211,-2.9322,-2.8616,-2.7055,-2.6089,-2.3896,-1.9943,0.0,0.0,0.0,0.0,0.0,0.0,0.0,0.0,0.0,0.0,0.0,0.0,0.0,0.0,0.0,0.0,0.0,0.0,0.0,0.0,0.0,0.0,0.0,0.0,0.0,0.0,0.0,0.0,0.0,0.0,0.0,0.0,0.0,0.0,0.0,0.0,0.0,0.0,0.0,0.0,0.0,0.0,0.0,0.0,0.0,0.0,0.0,0.0,0.0,0.0,0.0,0.0,0.0,0.0,0.0,0.0,0.0,0.0,0.0,0.0,-2.5492,0.0,0.0,0.0,0.0,0.0,0.0,0.0,0.0,0.0,0.0,0.0,0.0,0.0,0.0,0.0,0.0,0.0,0.0,0.0,0.0,0.0,0.0,0.0,0.0,0.0,0.0,0.0,0.0,0.0,0.0,0.0,0.0,0.0,0.0,0.0,0.0,0.0,0.0,0.0,0.0,0.0,-2.3673,-2.5792,-2.7538,-2.9211,-2.8802,-2.7984,-2.6981,-2.5578,-2.3562,-2.0723,-1.8228,0.0,0.0,0.0,0.0,0.0,0.0,0.0,0.0,0.0,0.0,0.0,0.0,0.0,0.0,0.0,0.0,0.0,0.0,0.0,0.0,0.0,0.0,0.0,0.0,0.0,0.0,0.0,0.0,0.0,0.0,0.0,0.0,0.0,0.0,0.0,0.0,0.0,0.0,0.0,0.0,0.0,0.0,0.0,0.0,0.0,0.0,0.0,0.0,0.0,0.0,0.0,0.0,0.0,0.0,0.0,0.0,0.0,0.0,0.0,0.0,-2.7735,0.0,0.0,0.0,0.0,0.0,0.0,0.0,0.0,0.0,0.0,0.0,0.0,0.0,0.0,0.0,0.0,0.0,0.0,0.0,0.0,0.0,0.0,0.0,0.0,0.0,0.0,0.0,0.0,0.0,0.0,0.0,0.0,0.0,0.0,0.0,0.0,0.0,0.0,0.0,0.0,-2.3979,-2.5912,-2.7538,-2.9211,-2.8616,-2.7761,-2.6981,-2.5429,-2.345,-2.0945,-1.8822,0.0,0.0,0.0,0.0,0.0,0.0,0.0,0.0,0.0,0.0,0.0,0.0,0.0,0.0,0.0,0.0,0.0,0.0,0.0,0.0,0.0,0.0,0.0,0.0,0.0,0.0,0.0,0.0,0.0,0.0,0.0,0.0,0.0,0.0,0.0,0.0,0.0,0.0,0.0,0.0,0.0,0.0,0.0,0.0,0.0,0.0,0.0,0.0,0.0,0.0,0.0,0.0,0.0,-3.6483,-3.6864,-3.6593,-3.6709,-3.6787,-3.6632,-3.3808,-3.288,-3.3107,-3.0133,0.0,0.0,0.0,0.0,0.0,0.0,0.0,0.0,0.0,0.0,0.0,0.0,0.0,0.0,0.0,0.0,0.0,0.0,0.0,0.0,0.0,0.0,0.0,0.0,-2.6795,-2.6043,0.0,0.0,0.0,0.0,0.0,0.0,0.0,0.0,0.0,0.0,0.0,0.0,-2.4004,-2.5921,-2.7538,-2.9211,-2.8505,-2.7613,-2.6944,-2.5429,-2.3562,-2.1346,-1.9676,-1.7782,0.0,0.0,0.0,0.0,0.0,0.0,0.0,0.0,0.0,0.0,0.0,0.0,0.0,0.0,0.0,0.0,0.0,0.0,0.0,0.0,0.0,0.0,0.0,0.0,0.0,0.0,0.0,0.0,0.0,0.0,0.0,0.0,-2.2955,-2.4829,0.0,0.0,0.0,0.0,0.0,0.0,0.0,0.0,0.0,0.0,0.0,0.0,0.0,-3.5736,-3.7185,-3.8932,-3.9474,-3.8843,-4.1197,-4.1545,-4.0158,-4.0848,-4.1158,-4.1158,-4.0694,0.0,-3.4123,-3.2914,0.0,0.0,0.0,0.0,0.0,0.0,0.0,0.0,0.0,0.0,0.0,0.0,0.0,0.0,0.0,0.0,0.0,0.0,0.0,0.0,0.0,0.0,-2.9664,-2.9748,-2.983,-2.9308,0.0,-2.4586,-2.2509,-2.2047,-1.9654,0.0,0.0,0.0,0.0,0.0,0.0,0.0,-2.423,-2.5938,-2.7538,-2.9211,-2.7984,-2.7018,-2.6907,-2.5429,-2.4045,-2.2943,-2.1384,-2.001,-1.9014,-1.6229,0.0,0.0,0.0,0.0,0.0,0.0,0.0,0.0,0.0,0.0,0.0,0.0,0.0,0.0,0.0,0.0,0.0,0.0,0.0,0.0,0.0,0.0,0.0,0.0,0.0,0.0,0.0,0.0,0.0,-2.3151,-2.5571,-2.6352,-2.6546,-2.6393,0.0,0.0,0.0,0.0,0.0,0.0,0.0,0.0,0.0,-3.7162,-3.8127,-3.937,-4.1042,-4.2318,-4.2976,-4.306,-4.4175,-4.433,-4.3602,-4.3518,-4.3479,-4.344,-4.2937,-4.1467,-3.9224,-3.6936,-3.5002,-3.3383,0.0,0.0,0.0,0.0,-3.0709,-3.0554,-3.2377,-3.2454,0.0,-3.0632,0.0,0.0,0.0,0.0,0.0,0.0,0.0,0.0,0.0,0.0,-3.1279,-3.1752,-3.1838,-3.1583,-3.0852,-2.9198,-2.6967,0.0,-2.267,-2.1277,-1.9286,0.0,0.0,0.0,0.0,0.0,-2.4957,-2.6609,-2.8021,-2.9248,-2.8282,-2.739,-2.6944,-2.5838,-2.4602,-2.3277,-2.2126,-2.0901,-1.9646,-1.7745,-1.6075,0.0,0.0,0.0,0.0,0.0,0.0,0.0,0.0,0.0,0.0,0.0,0.0,0.0,0.0,0.0,0.0,0.0,0.0,0.0,0.0,0.0,0.0,0.0,0.0,0.0,0.0,0.0,0.0,-2.581,-2.8078,-2.8271,-2.9287,-2.9526,0.0,0.0,0.0,0.0,0.0,0.0,-3.6055,-3.6969,-3.8554,-4.1025,-4.1949,-4.3131,-4.4601,-4.5258,-4.5877,-4.6464,-4.6464,-4.6464,-4.6426,-4.5606,-4.5258,-4.5181,-4.433,-4.3943,-4.3672,-4.0268,-3.8334,-3.7328,-3.5002,-3.3958,-3.388,-3.4737,-3.4775,-3.4693,-3.6549,-3.6826,-3.6129,-3.4847,-3.3958,-3.2952,-3.0409,0.0,0.0,0.0,0.0,-3.0318,-3.2017,-3.2414,-3.2584,-3.3435,-3.3603,-3.3506,-3.3276,-3.2776,-3.1083,0.0,-2.5969,-2.5077,-2.2474,0.0,0.0,0.0,0.0,-2.4617,-2.5942,-2.7261,-2.845,-2.9367,-2.8646,-2.7761,-2.6981,-2.6163,-2.5086,-2.3619,-2.2571,-2.1458,-2.027,-1.897,-1.7374,-1.5332,0.0,0.0,0.0,0.0,0.0,0.0,0.0,0.0,0.0,0.0,0.0,0.0,0.0,0.0,0.0,0.0,0.0,0.0,0.0,0.0,0.0,0.0,0.0,0.0,0.0,0.0,0.0,0.0,0.0,-3.1756,-3.3359,0.0,0.0,0.0,0.0,-3.5446,-3.6333,-3.7941,-4.0436,-4.1357,-4.2908,-4.5388,-4.6348,-4.7238,-4.8121,-4.8198,-4.8237,-4.8275,-4.8275,-4.8275,-4.8237,-4.7386,-4.696,-4.6922,-4.6039,-4.5691,-4.542,-4.2054,-4.0158,-3.9191,-3.7406,-3.6245,-3.5665,-3.6477,-3.729,-3.7941,-3.8096,-3.8096,-3.8057,-3.798,-3.6323,-3.4316,-3.4123,-3.2382,0.0,0.0,-3.1637,-3.2048,-3.3726,-3.4171,-3.4391,-3.5174,-3.5385,-3.5154,-3.4314,-3.409,-3.3551,0.0,-2.939,-2.7671,-2.7355,0.0,-2.4889,-2.4656,-2.5273,-2.6131,-2.71,-2.7744,-2.8472,-2.9476,-2.8698,-2.7761,-2.6981,-2.6163,-2.5355,-2.45,-2.2922,-2.1977,-2.1866,-1.9564,-1.7894,-1.7003,-1.5481,0.0,0.0,0.0,0.0,0.0,0.0,0.0,0.0,0.0,0.0,0.0,0.0,0.0,0.0,0.0,0.0,0.0,0.0,0.0,0.0,0.0,0.0,0.0,0.0,0.0,0.0,0.0,0.0,-3.5262,-3.695,0.0,-3.6322,-3.7253,-3.8284,-3.9104,-4.045,-4.2073,-4.409,-4.4936,-4.6022,-4.7499,-4.7787,-4.8353,-4.9243,-4.9243,-4.9243,-4.9243,-4.9243,-4.8933,-4.8392,-4.8082,-4.7927,-4.7889,-4.6999,-4.6651,-4.6457,-4.4175,-4.3053,-4.2667,-4.1467,-4.05,-3.9804,-4.0075,-4.0036,-3.9881,-3.9881,-3.9881,-3.9765,-3.9224,-3.8025,-3.6748,-3.6168,-3.5781,-3.5427,-3.5157,-3.5505,-3.5925,-3.5962,-3.5988,-3.5899,-3.5624,-3.5522,-3.5432,-3.5085,-3.5027,-3.4853,-3.4269,-3.2083,-2.9962,-2.8818,-2.8115,-2.7301,-2.6053,-2.6979,-2.7918,-2.8161,-2.8814,-2.9361,-2.9589,-2.9261,-2.8503,-2.7147,-2.6773,-2.5809,-2.3955,-2.2757,-2.1846,-2.1243,-1.9861,-1.8488,-1.7114,-1.6557,-1.5035,0.0,0.0,0.0,0.0,0.0,0.0,0.0,0.0,0.0,0.0,0.0,0.0,0.0,0.0,0.0,0.0,0.0,0.0,0.0,0.0,0.0,0.0,0.0,0.0,0.0,0.0,-3.6639,-3.8385,-4.0347,-4.1211,-4.0301,-4.1271,-4.2295,-4.3086,-4.4156,-4.5514,-4.72,-4.7773,-4.8476,-4.9301,-4.9318,-4.9528,-5.0094,-5.0094,-5.0094,-5.0094,-5.0094,-4.9784,-4.9243,-4.8972,-4.8856,-4.8778,-4.7927,-4.754,-4.7424,-4.6032,-4.5452,-4.5297,-4.3866,-4.2937,-4.2434,-4.2434,-4.2086,-4.1622,-4.1622,-4.128,-4.0739,-4.0429,-3.9572,-3.8528,-3.7947,-3.7986,-3.8096,-3.7516,-3.7748,-3.8052,-3.7486,-3.7127,-3.6734,-3.6163,-3.5753,-3.5541,-3.549,-3.5509,-3.552,-3.55,-3.3654,-3.1737,-3.0589,-2.989,-2.9119,-2.7842,-2.8574,-2.9265,-2.9178,-2.9611,-2.9851,-2.9784,-2.9724,-2.9002,-2.7336,-2.7215,-2.6282,-2.412,-2.2872,-2.1939,-2.1301,-2.0194,-1.8933,-1.7523,-1.6966,-1.5778,-1.3889,0.0,0.0,0.0,0.0,0.0,0.0,0.0,0.0,0.0,0.0,0.0,0.0,0.0,0.0,0.0,0.0,0.0,0.0,0.0,0.0,0.0,0.0,0.0,-3.3455,-3.6517,-3.9295,-4.105,-4.3551,-4.4765,-4.384,-4.5283,-4.6621,-4.7401,-4.7422,-4.8116,-4.9756,-4.9834,-5.019,-5.0974,-5.1012,-5.099,-5.0906,-5.0898,-5.0898,-5.0898,-5.0898,-5.0898,-5.0859,-5.0094,-4.9745,-4.9707,-4.8817,-4.843,-4.8353,-4.7463,-4.7115,-4.6844,-4.4369,-4.3363,-4.3324,-4.3324,-4.3324,-4.3247,-4.3285,-4.2202,-4.0971,-4.1738,-4.0893,-3.9578,-3.9539,-3.8953,-3.829,-3.829,-3.829,-3.8284,-3.8259,-3.7596,-3.6927,-3.6819,-3.6196,-3.5572,-3.5541,-3.549,-3.5515,-3.5514,-3.4122,-3.2929,-3.2891,-3.1538,-3.0381,-3.0136,-3.0115,0.0,-3.0115,-2.9992,-2.9954,-3.0095,-2.9977,-2.9238,-2.757,-2.7418,-2.666,-2.4946,-2.316,-2.2212,-2.2168,-2.0518,-1.9193,-1.8339,-1.6743,-1.5555,-1.4744,0.0,0.0,0.0,0.0,0.0,0.0,0.0,0.0,0.0,0.0,0.0,0.0,0.0,0.0,0.0,0.0,0.0,0.0,0.0,0.0,0.0,0.0,-3.6189,-3.7049,-4.0111,-4.2926,-4.4669,-4.6594,-4.7656,-4.741,-4.7751,-4.8376,-4.9235,-4.9215,-4.9648,-5.0763,-5.0778,-5.0836,-5.1089,-5.1062,-5.1027,-5.099,-5.099,-5.0937,-5.0898,-5.0898,-5.0898,-5.0898,-5.0666,-5.055,-5.0511,-4.9707,-4.9359,-4.9243,-4.7734,-4.7115,-4.696,-4.5645,-4.4755,-4.4246,-4.4246,-4.344,-4.2434,-4.3092,-4.2589,-4.1699,-4.1932,-4.1699,-4.1197,-4.0623,-4.0274,-4.0075,-4.0075,-4.0075,-3.992,-3.9295,-3.8516,-3.7698,-3.7035,-3.6205,-3.5608,-3.5564,-3.5521,-3.5483,-3.5515,-3.4603,-3.3622,-3.3006,-3.2506,-3.1763,-3.049,-3.033,0.0,-3.033,-3.0305,-3.0215,-3.0115,-3.0073,-2.9358,-2.7705,-2.7546,-2.6301,-2.3421,-2.2714,-2.2105,-2.1359,-2.0213,-1.9193,-1.8339,-1.73,-1.6372,0.0,0.0,0.0,0.0,0.0,0.0,0.0,0.0,0.0,0.0,0.0,0.0,0.0,0.0,0.0,0.0,0.0,0.0,0.0,0.0,0.0,0.0,-3.7438,-4.0015,-4.1617,-4.3541,-4.5574,-4.7629,-4.8732,-4.9489,-4.9838,-4.9824,-4.9976,-5.0481,-5.0459,-5.0658,-5.1163,-5.1153,-5.132,-5.1686,-5.1675,-5.1675,-5.1635,-5.163,-5.1423,-5.1011,-5.1011,-5.1018,-5.0963,-5.0963,-5.0966,-5.0859,-5.0395,-5.0202,-5.0094,-4.874,-4.7966,0.0,0.0,0.0,0.0,0.0,-4.3982,-4.3131,-4.3247,-4.2744,-4.2009,-4.2009,-4.1777,-4.139,-4.0932,-4.0816,-4.0816,-4.0816,-4.0816,-4.07,-4.0197,-3.9385,-3.8528,-3.7638,-3.6775,-3.6024,-3.5664,-3.5558,-3.5527,-3.5554,-3.5098,0.0,-3.3609,-3.2865,-3.2083,-3.1077,-3.0615,-3.0385,-3.0385,-3.0385,-3.0355,-3.0241,-3.0235,-2.9698,-2.8351,-2.7923,0.0,0.0,0.0,-2.2474,-2.1078,-2.0436,0.0,0.0,0.0,0.0,0.0,0.0,0.0,0.0,-1.4626,-1.4292,0.0,0.0,0.0,0.0,0.0,0.0,0.0,0.0,0.0,0.0,0.0,0.0,0.0,0.0,0.0,0.0,-4.1108,-4.3645,-4.6339,-4.6729,-4.7588,-4.9811,-5.028,-5.0691,-5.1481,-5.1584,-5.1584,-5.1525,-5.1496,-5.1464,-5.1358,0.0,0.0,0.0,0.0,-5.2341,-5.2345,-5.2341,-5.1986,-5.1203,-5.1203,-5.1161,-5.1103,-5.1103,-5.1043,-5.0913,-5.0913,-5.0944,-5.0852,-5.0039,-4.9141,-4.8082,-4.6426,-4.5807,-4.5729,-4.4987,-4.4671,-4.4516,-4.3827,0.0,0.0,-4.2164,-4.1583,-4.0932,-4.0816,-4.0816,-4.0816,-4.0816,-4.0816,-4.0816,-4.0816,-4.0158,-3.9268,-3.8411,-3.7516,-3.6665,-3.5786,-3.5626,-3.5614,-3.559,-3.556,-3.5265,-3.4494,-3.3031,-3.1929,-3.1737,-3.1038,-3.05,-3.0423,-3.0385,-3.0385,-3.0385,0.0,0.0,-2.9165,-2.8434,-2.7582,-2.6505,-2.4847,-2.305,-2.1223,-2.1136,-2.07,-1.9906,-2.0567,-2.0938,-2.0938,-2.1643,-2.1636,-2.0878,-1.7779,-1.6743,0.0,0.0,0.0,0.0,0.0,0.0,0.0,0.0,0.0,0.0,0.0,0.0,0.0,0.0,0.0,-4.1069,-4.3255,-4.5634,-4.8913,-4.9382,-4.9538,-5.0046,-5.1336,-5.2248,-5.2421,-5.3002,-5.3375,-5.3364,-5.3316,-5.3026,-5.2364,-5.2338,-5.2064,-5.155,-5.1511,-5.1503,-5.1444,-5.1431,-5.1378,-5.1203,0.0,0.0,-5.1174,-5.1174,-5.1165,-5.1147,-5.1147,-5.1097,-5.1004,-5.0118,-4.8813,-4.7231,-4.6194,-4.5807,-4.5768,-4.5652,-4.5142,-4.4671,-4.5142,-4.433,-4.3053,-4.3053,-4.2473,-4.1661,-4.1009,-4.0816,0.0,-4.0816,-4.0816,-4.0816,-4.0816,-4.0158,-3.9268,-3.8411,-3.7516,-3.6671,-3.5853,-3.5643,-3.5581,-3.5614,-3.559,-3.5527,-3.5373,-3.4437,-3.3276,-3.1891,-3.1545,-3.1192,-3.05,-3.0385,-3.0385,-3.0385,-3.0385,-3.0038,-2.9165,-2.8973,-2.7928,-2.5692,-2.4443,-2.3244,-2.2038,-2.2628,-2.2503,-2.154,-2.168,-2.1755,-2.1755,-2.1903,-2.1903,-2.1747,-2.0389,-1.9811,0.0,0.0,0.0,0.0,0.0,0.0,0.0,0.0,0.0,0.0,0.0,-3.3923,-3.5642,0.0,-4.0834,-4.3879,-4.5792,-4.7666,-4.9811,-5.0475,-5.0748,-5.0748,-5.1531,-5.2205,-5.2653,-5.3046,-5.343,-5.3852,-5.3477,-5.3038,-5.2628,-5.2214,-5.1984,-5.1942,-5.1988,-5.1988,-5.1941,-5.1937,-5.1735,-5.1297,-5.1297,-5.1284,-5.1258,-5.1258,-5.1239,-5.1203,-5.1203,-5.1178,-5.1089,-5.0181,-4.8998,-4.7727,-4.6802,-4.6194,-4.5807,-4.5807,-4.5529,-4.5181,-4.5181,-4.4639,-4.3827,-4.2937,-4.2357,-4.1854,-4.1048,-4.0816,-4.0816,-4.0816,-4.0816,-4.0816,-4.0816,-4.0468,-3.9926,-3.9069,-3.8179,-3.7328,-3.6477,-3.5963,-3.5643,-3.5643,-3.562,-3.5602,-3.5602,-3.5213,-3.4327,-3.2614,-3.1992,-3.1409,-3.05,-3.0385,-3.0385,-3.0385,-3.0385,-3.0231,-2.9775,-2.9357,-2.8396,-2.6697,-2.5669,-2.4644,-2.3592,-2.3533,-2.3027,-2.2022,-2.2386,-2.2609,-2.2609,-2.3025,-2.3256,-2.3256,-2.2782,-2.2066,0.0,0.0,0.0,0.0,0.0,0.0,0.0,0.0,-3.1622,-3.3457,-3.5642,-3.7905,-4.0132,-4.1967,-4.3957,-4.6378,-4.8057,-4.9345,-5.0241,-5.0945,-5.1414,-5.1414,-5.1531,-5.193,-5.2611,-5.2811,-5.3164,-5.3863,-5.3271,-5.2799,-5.2646,-5.1992,-5.1874,-5.2344,-5.2415,-5.245,-5.2458,-5.2459,-5.2108,-5.1406,-5.1406,-5.1365,-5.1307,-5.1307,-5.1291,-5.1245,-5.1232,-5.1225,-5.1179,-5.0369,-4.9421,-4.8405,-4.7643,-4.6728,-4.5807,-4.5807,-4.5807,-4.5729,-4.5065,-4.4717,-4.4362,-4.2976,-4.228,-4.1893,-4.1235,-4.0932,-4.0816,-4.0816,-4.0816,-4.0816,-4.0816,-4.0816,-4.0584,-3.9694,-3.8837,-3.7941,-3.7096,-3.6284,-3.5704,-3.5704,-3.5648,-3.5631,-3.5631,-3.5614,-3.5005,-3.3267,-3.2407,-3.158,-3.0512,-3.039,-3.0385,-3.0385,-3.0385,-3.0385,-3.0385,-2.9583,-2.8819,-2.8165,-2.7231,-2.632,-2.545,-2.4681,-2.3791,-2.2792,-2.3376,-2.3619,-2.3471,-2.4305,-2.4723,-2.476,-2.48,-2.3978,-2.9631,-2.8732,-2.8615,-3.0021,-3.0371,-3.1582,0.0,0.0,-3.7126,-3.9587,-4.0952,-4.2006,-4.306,-4.4699,-4.6456,-4.8213,-4.9345,-5.0241,-5.1141,-5.1336,-5.1414,-5.1414,-5.2078,-5.2587,-5.2708,-5.3391,-5.3862,-5.3964,-5.3902,-5.3513,-5.2716,-5.2594,-5.2241,-5.1577,-5.1543,-5.1546,-5.1549,-5.1558,-5.1483,-5.1405,-5.1406,-5.1406,-5.1406,-5.1406,-5.1366,-5.1365,-5.1306,-5.1288,-5.1282,-5.1055,-4.9959,-4.8483,-4.834,-4.7231,-4.5807,-4.5807,-4.5807,-4.5807,-4.5691,-4.5181,-4.4555,-4.4362,-4.3247,-4.197,-4.1893,-4.1351,-4.0816,-4.0816,-4.0816,-4.0816,-4.0816,-4.0816,-4.0584,-3.9694,-3.8837,-3.7941,-3.7096,-3.6284,-3.5704,-3.5704,-3.5704,-3.5704,-3.5704,-3.5698,-3.5102,-3.3263,-3.2926,-3.2247,-3.0623,-3.0402,-3.0385,-3.0385,-3.0385,-3.0385,-3.0385,-2.9583,-2.905,-2.8973,-2.8192,-2.7593,-2.7319,-2.7096,-2.6488,-2.5466,-2.5442,-2.5048,-2.4351,-2.5169,-2.5578,-2.5569,-2.6246,-2.5634,-3.3378,-3.2675,0.0,0.0,-3.4979,-3.6033,-3.8687,-3.939,-3.9976,-4.1537,-4.2942,-4.4036,-4.4387,-4.6261,-4.7978,0.0,-4.9969,-5.0984,-5.1336,-5.0945,-5.0631,-5.0631,-5.0984,-5.1609,-5.2587,-5.3027,-5.3458,-5.3951,-5.3535,-5.3068,-5.2704,-5.2234,-5.1765,-5.1414,-5.1418,-5.1657,-5.213,-5.1668,-5.1634,-5.2146,-5.164,-5.1406,-5.1406,-5.1406,-5.1406,-5.1406,-5.1364,-5.1362,-5.1359,-5.1263,-5.0459,-4.9274,-4.8693,-4.7663,-4.6503,-4.6,-4.5807,-4.5807,-4.5807,-4.5568,-4.522,-4.4755,-4.375,-4.2667,-4.2164,-4.1429,-4.0816,-4.0816,-4.0816,-4.0816,-4.0816,-4.0816,-4.07,-4.0352,-3.9185,-3.8096,-3.7748,-3.6632,-3.5704,-3.5704,-3.5704,-3.5704,-3.5704,-3.5704,-3.5118,-3.3313,-3.3037,-3.238,-3.06,-3.0858,-3.1154,-3.1154,-3.0692,-3.0385,-3.0385,-3.0077,-2.9852,-2.9852,-2.9044,-2.8537,-2.8377,-2.7726,-2.7153,-2.6655,-2.6496,-2.6238,-2.5912,-2.6238,-2.6386,-2.6423,-2.6692,-2.6469,-3.5172,0.0,0.0,-3.7282,-3.865,-3.986,-4.0678,-4.1537,-4.2435,-4.3294,-4.4465,-4.5441,-4.5673,-4.7237,-4.8603,-4.9072,-5.0204,-5.1141,-5.1375,-5.0631,-5.0085,-5.0085,-4.9889,-5.0321,-5.1843,-5.2195,-5.2585,-5.3249,-5.2702,-5.2351,-5.2351,-5.1726,-5.1414,-5.1414,-5.1648,-5.2042,-5.2674,-5.2326,-5.2448,-5.3041,-5.2185,-5.1757,-5.1758,-5.1523,-5.1406,-5.1406,-5.1406,-5.1406,-5.1406,-5.1312,-5.0772,-4.9871,-4.9162,-4.8178,-4.7126,-4.6466,-4.6029,-4.5807,-4.5807,-4.5807,-4.5691,-4.5104,-4.4369,-4.3518,-4.2628,-4.1777,-4.1087,-4.0855,-4.0816,-4.0816,-4.0816,-4.0816,-4.0816,-4.0816,-3.9649,-3.8489,-3.8251,-3.7058,-3.5974,-3.5742,-3.5704,-3.5704,-3.5704,-3.5704,-3.5123,-3.3372,-3.3065,-3.2408,-3.065,-3.0973,-3.1429,-3.166,-3.0923,-3.0385,-3.0385,-3.0385,-3.0385,-3.0385,-2.9813,-2.9394,-2.9309,-2.855,-2.7979,-2.7625,-2.7436,-2.7186,-2.6907,-2.713,-2.7241,-2.7241,-2.7464,-2.7556,0.0,0.0,-3.7438,-3.8337,-4.0444,-4.2513,-4.3372,-4.427,-4.5129,-4.5987,-4.6222,-4.6534,-4.7352,-4.7586,-4.8172,-4.9811,-5.0085,-5.0436,-5.1297,-5.0631,-5.0085,-5.0085,-4.9345,-4.9189,0.0,-5.0945,-5.1453,-5.1492,-5.1453,-5.1453,-5.1453,-5.1414,-5.1414,-5.1414,-5.2234,-5.2665,-5.2704,-5.3494,-5.3927,-5.3967,-5.308,-5.2654,-5.2615,-5.1796,-5.1406,-5.1406,-5.1406,-5.1406,-5.1406,-5.1312,-5.0791,-5.0007,-4.9871,-4.8869,-4.7384,-4.7345,-4.6688,-4.5807,-4.5807,-4.5807,-4.5807,-4.5768,-4.522,-4.44,-4.3518,-4.2667,-4.1816,-4.1009,-4.0816,-4.0816,-4.0816,-4.0816,-4.0816,-4.0816,-4.012,-3.923,-3.8373,-3.7522,-3.6632,-3.5858,-3.5704,-3.5704,-3.5704,-3.5704,-3.5118,-3.3351,-3.3114,-3.2485,-3.0716,-3.0463,-3.0769,-3.1621,-3.0923,-3.0385,-3.0385,-3.0385,-3.0385,-3.0385,-3.0385,-3.0346,-3.034,-3.0138,-2.958,-2.8662,-2.8445,-2.7885,-2.6907,-2.7687,-2.8059,-2.8096,-2.8913,-2.9322,0.0,0.0,-3.9468,-4.15,-4.306,-4.4348,-4.5246,-4.5636,-4.5792,-4.5519,-4.5441,-4.5363,-4.5051,-4.5948,-4.712,-4.825,-4.9382,-5.0397,-5.1297,-5.0631,-4.9889,-4.9306,-4.8993,0.0,0.0,0.0,0.0,-5.1375,-5.1414,-5.1414,-5.1414,-5.1414,-5.1687,-5.2234,-5.2548,-5.3251,-5.4422,-5.4151,-5.4271,-5.4864,-5.3389,-5.2691,-5.2654,-5.1796,-5.1406,-5.1406,-5.1406,-5.1406,-5.1406,-5.1365,-5.1161,-5.0789,-5.0191,-4.9223,-4.8128,-4.7586,-4.6812,-4.6003,-4.5969,-4.5886,-4.5807,-4.5807,-4.5258,-4.4555,-4.4246,-4.3169,-4.1932,-4.1661,-4.1197,-4.0816,-4.0816,-4.0816,-4.0816,-4.0816,-4.012,-3.9423,-3.9114,-3.7909,-3.6826,-3.6555,-3.6052,-3.5704,-3.5704,-3.5704,-3.5123,-3.3367,-3.2104,-3.1576,-3.2105,-3.1642,-3.1613,-3.2466,-3.1788,-3.1038,-3.0462,-3.0385,-3.0385,-3.0385,-3.0385,-3.0385,-3.0385,-3.0221,-2.9935,-2.9656,-2.9343,-2.9036,-2.8708,-2.8872,-2.8951,-2.8951,-2.9248,-2.9396,-3.8415,-3.9858,-4.1264,-4.3606,-4.4816,-4.5597,-4.6183,-4.6066,-4.5597,-4.4738,-4.4309,-4.3801,-4.2942,-4.3686,-4.5012,-4.6846,-4.8057,-4.9345,-5.1141,-5.0631,-4.9889,-4.9345,-4.8993,0.0,0.0,0.0,0.0,-5.1336,-5.1414,-5.1414,-5.1414,-5.1687,-5.2117,-5.2665,-5.329,-5.4188,-5.5281,-5.5044,-5.5049,-5.5292,-5.3853,-5.3001,-5.2654,-5.1795,-5.1405,-5.1406,-5.1406,-5.1406,-5.1406,-5.1406,-5.1366,-5.1275,-5.0731,-4.9977,-4.9052,-4.8235,-4.7367,-4.6557,-4.6169,-4.5973,-4.5902,-4.5899,-4.5531,-4.5054,-4.4692,-4.3595,-4.2396,-4.2086,-4.1429,-4.0816,-4.0816,-4.0816,-4.0816,-4.0816,-4.0352,-3.9887,-3.9578,-3.8373,-3.729,-3.698,-3.6245,-3.5704,-3.5704,-3.5438,-3.4737,-3.3339,-3.1883,-3.1471,-3.285,-3.2281,-3.2187,-3.3293,-3.2383,-3.148,-3.0923,-3.0577,-3.0385,-3.0385,-3.0385,-3.0385,-3.0385,-3.0267,-3.0163,-3.0109,-2.9907,-2.9724,-2.9589,-2.9503,-2.9441,-2.9396,-2.9396,-2.9396,-3.9585,-4.1342,-4.306,-4.4737,-4.5753,-4.6339,-4.6261,-4.5558,-4.466,-4.3684,-4.2825,-4.1927,0.0,0.0,-4.2163,-4.5558,-4.6261,-4.7549,-5.0867,-5.067,-5.0163,0.0,0.0,0.0,0.0,0.0,0.0,-5.1336,0.0,-5.1414,-5.1414,-5.2234,-5.2704,-5.2782,-5.4422,-5.5318,-5.5357,-5.6177,-5.6181,-5.537,-5.4433,-5.3582,-5.2732,-5.1834,-5.1405,-5.1406,-5.1405,-5.1405,-5.1406,-5.1405,-5.1406,-5.1406,-5.1406,-5.0898,-5.0078,-4.9219,-4.8316,-4.7354,-4.6446,-4.6105,-4.6087,-4.6042,-4.6007,-4.5831,-4.4925,-4.4066,-4.3176,-4.2318,-4.1467,-4.0855,-4.0816,-4.0816,-4.0816,-4.0816,-4.0816,-4.0584,-3.9733,-3.8837,-3.7941,-3.7135,-3.6284,-3.5704,-3.5704,-3.5013,-3.4156,-3.3223,-3.2411,-3.2169,-3.2993,-3.2392,-3.248,-3.4031,-3.2792,-3.1811,-3.1705,-3.0929,-3.0462,-3.0385,-3.0385,-3.0385,-3.0385,-3.0385,-3.033,-3.0122,-3.0109,-2.9924,-2.9616,-2.9598,-2.9532,-2.9417,-2.9407,-2.9396,-4.3021,-4.4932,-4.6376,-4.6845,-4.7118,-4.6924,-4.5636,-4.466,-4.3411,-4.1225,-4.0132,-3.9117,-3.7594,0.0,0.0,-4.306,-4.5558,0.0,-5.0124,-5.0789,0.0,-5.0163,0.0,-4.985,-5.0085,-5.0085,0.0,0.0,-5.1414,-5.1414,-5.1414,-5.2234,-5.3014,-5.3639,-5.4732,-5.5591,-5.6255,-5.6489,-5.6489,-5.6259,-5.4736,-5.3883,-5.362,-5.2098,-5.14,-5.1405,-5.1405,-5.1405,-5.1405,-5.1406,-5.1406,-5.1405,-5.1406,-5.0898,-5.0078,-4.9219,-4.8359,-4.7459,-4.6557,-4.6173,-4.6098,-4.6076,-4.6068,-4.6013,-4.5719,-4.5021,-4.4151,-4.3234,-4.2357,-4.1545,-4.0971,-4.0816,-4.0816,-4.0816,-4.0816,-4.0739,-4.0507,-3.9262,-3.8135,-3.7903,-3.6709,-3.5704,-3.5704,-3.5516,-3.4853,-3.3339,-3.2914,-3.2831,-3.3058,-3.2916,-3.317,-3.4174,-3.388,-3.3118,-3.1817,-3.1503,-3.1107,-3.0423,-3.0385,-3.0385,-3.0385,-3.0385,-3.0367,-3.0336,-3.0163,-3.0073,-2.9985,-2.9724,-2.9598,-2.9551,-2.9441,-2.9396,-4.509,-4.6807,-4.8057,-4.7703,-4.7313,-4.6456,-4.4348,-4.2903,-4.1264,-3.8687,-3.7477,0.0,-3.4627,0.0,0.0,0.0,0.0,0.0,-4.9772,-5.0867,-5.1219,0.0,-5.067,0.0,-5.067,-5.067,-5.0867,0.0,-5.1414,-5.157,-5.196,-5.278,-5.3678,-5.4537,-5.5435,-5.6098,-5.6606,-5.6606,-5.6411,-5.602,-5.4654,-5.3801,-5.338,-5.2015,-5.1395,-5.1402,0.0,-5.1401,-5.1402,-5.1403,-5.1404,-5.1405,-5.1406,-5.1133,-5.0586,-4.9336,-4.8594,-4.8008,-4.6758,-4.6243,-4.6173,-4.615,-4.6142,-4.6131,-4.6056,-4.5447,-4.4534,-4.3607,-4.272,-4.1856,-4.1022,-4.0816,-4.0816,-4.0816,-4.0816,-4.0816,-4.0816,-3.9727,-3.8528,-3.7793,-3.6593,-3.5704,-3.5704,-3.5704,-3.524,-3.3886,-3.3339,-3.3223,-3.3615,-3.3323,-3.3545,-3.4737,-3.4527,-3.3886,-3.2931,-3.2154,-3.1521,-3.0985,-3.06,-3.0402,-3.0385,-3.0385,-3.0385,-3.0385,-3.0273,-3.0208,-3.0109,-2.9931,-2.975,-2.9579,-2.9513,-2.9451,-4.6417,-4.7861,-4.8915,-4.7978,-4.712,-4.5714,-4.2864,-4.0795,-3.8726,-3.6031,0.0,-3.3573,-3.2052,-3.3886,-3.6539,-3.9195,0.0,-4.6025,-4.946,-5.0672,-5.1258,-5.1375,-5.1414,-5.1414,-5.1414,-5.1414,-5.1414,-5.1414,-5.1414,-5.1765,-5.2665,-5.3522,-5.4459,-5.5435,-5.6216,-5.6606,-5.6606,-5.6606,-5.6177,-5.5281,-5.442,-5.3526,-5.2676,-5.1817,-5.1391,-5.1397,-5.1393,0.0,-5.1397,-5.1393,-5.1397,-5.1404,-5.1404,-5.1405,-5.1211,-4.9531,-4.8906,-4.8633,-4.6914,-4.6289,-4.6289,-4.6237,-4.6228,-4.6184,-4.6134,-4.5573,-4.478,-4.3722,-4.2878,-4.2044,-4.1069,-4.0802,-4.0796,-4.0816,-4.0816,-4.0816,-4.0816,-4.0004,-3.8843,-3.7212,-3.6245,-3.5704,-3.5704,-3.5704,-3.54,-3.4549,-3.3654,-3.3378,-3.4118,-3.3576,-3.3754,-3.5438,-3.4936,-3.4461,-3.4311,-3.2883,-3.1907,-3.1719,-3.0898,-3.0458,-3.0583,-3.0462,-3.0462,-3.0577,-3.0462,-3.0292,-3.0136,-3.0115,-2.9969,-2.9662,-2.9635,-2.9561,-4.8135,-4.9618,-5.0555,-4.8993,-4.7978,-4.63,-4.224,-3.9468,0.0,0.0,0.0,-3.0373,-3.01,-3.2129,0.0,-3.8259,0.0,0.0,0.0,0.0,-5.0592,0.0,0.0,0.0,0.0,0.0,0.0,0.0,0.0,-5.1765,-5.2665,-5.3522,-5.4732,-5.6333,-5.6528,-5.6606,-5.6606,-5.6606,-5.6177,-5.5281,-5.442,-5.3522,-5.2667,-5.1808,-5.1384,-5.1391,-5.139,0.0,-5.1391,-5.1395,-5.1395,-5.1394,-5.1402,-5.1405,-5.121,-4.9531,-4.8906,-4.8633,-4.6914,-4.6289,-4.6289,-4.6289,-4.6288,-4.6287,-4.6184,-4.6095,-4.5618,-4.3962,-4.3357,-4.2871,-4.1301,-4.0883,-4.0858,-4.0802,-4.0816,-4.0816,-4.0816,-3.9533,-3.8141,-3.7096,-3.6245,-3.5704,-3.5704,-3.5704,-3.54,-3.4549,-3.3654,-3.3146,-3.33,-3.3184,-3.3764,-3.5505,-3.5544,-3.5146,-3.4384,-3.3418,-3.2557,-3.183,-3.0915,-3.07,-3.1432,-3.0787,-3.0731,-3.1468,-3.0769,-3.0373,-3.0349,-3.0163,-3.008,-3.0022,-2.9899,-2.977,-4.8681,-4.9735,-5.0399,-4.9111,-4.7159,-4.4543,-4.068,0.0,0.0,0.0,0.0,-2.8773,-2.8343,0.0,0.0,0.0,0.0,0.0,0.0,0.0,0.0,0.0,0.0,0.0,0.0,0.0,0.0,0.0,0.0,-5.1765,-5.2665,-5.3951,-5.5044,-5.5903,-5.5903,-5.6138,-5.6606,-5.5708,-5.5044,-5.4615,-5.3756,-5.2858,-5.1999,-5.1609,-5.1416,-5.1382,-5.1382,0.0,-5.1382,-5.1387,-5.1389,-5.139,-5.1396,-5.1402,-5.1209,-4.953,-4.8906,-4.8633,-4.6914,-4.6289,-4.6289,-4.6289,-4.6289,-4.6289,-4.6246,-4.6244,-4.5967,-4.4608,-4.3892,-4.3256,-4.1937,-4.1253,-4.0929,-4.0926,-4.0873,-4.0854,-4.0828,-3.981,-3.8605,-3.7754,-3.6903,-3.6207,-3.5781,-3.5704,-3.5549,-3.5129,-3.4311,-3.3924,-3.4389,-3.3648,-3.3571,-3.4897,-3.5438,-3.5505,-3.5068,-3.4257,-3.3589,-3.3137,-3.2309,-3.1984,-3.2353,-3.1971,-3.1723,-3.1684,-3.1281,-3.0846,-3.0385,-3.0286,-3.0215,-3.0109,-3.0037,-2.9915,-4.8759,-4.9423,-4.9889,-4.9032,-4.6222,-4.2788,-3.9391,-3.5759,0.0,0.0,-2.8498,-2.76,-2.7094,0.0,0.0,0.0,0.0,0.0,0.0,0.0,0.0,0.0,0.0,0.0,0.0,0.0,0.0,0.0,0.0,0.0,-5.2665,-5.4186,-5.5005,-5.5005,-5.5005,-5.5357,-5.6059,-5.4693,-5.3912,-5.3717,-5.3014,-5.2234,-5.1414,-5.1414,-5.1414,-5.1414,-5.1414,0.0,0.0,-5.1414,-5.1419,-5.1387,-5.1389,-5.1396,-5.1208,-4.9529,-4.8905,-4.8633,-4.6914,-4.6289,-4.6289,-4.6289,-4.6289,-4.6289,-4.6289,-4.6289,-4.6093,-4.5186,-4.4283,-4.3417,-4.2476,-4.1638,-4.1009,-4.0994,-4.0949,-4.0917,-4.0837,-4.014,-3.9309,-3.8645,-3.7616,-3.6709,-3.6052,-3.582,-3.5704,-3.5704,-3.4974,-3.4665,-3.5322,-3.4074,-3.3378,-3.404,-3.4891,-3.5516,-3.5665,-3.4897,-3.4306,-3.4047,-3.3467,-3.2987,-3.2767,-3.2893,-3.2605,-3.1713,-3.1684,-3.1281,-3.0396,-3.0385,-3.033,-3.0157,-3.0157,-3.008,-4.8603,-4.9423,-4.9889,-4.9032,-4.6222,-4.2788,-3.9391,0.0,0.0,-2.8928,-2.7093,-2.6156,-2.686,-2.7913,-2.9708,0.0,0.0,0.0,0.0,0.0,0.0,0.0,0.0,0.0,0.0,0.0,0.0,0.0,0.0,0.0,-5.2665,-5.36,-5.4108,-5.4108,-5.4108,-5.4147,-5.4225,-5.4068,-5.36,-5.2821,-5.2743,-5.2234,-5.1414,-5.1414,-5.1414,-5.1414,-5.1414,0.0,0.0,-5.1414,-5.1414,-5.1416,-5.1387,-5.139,-5.1197,-4.9528,-4.8905,-4.8632,-4.6914,-4.6289,-4.6289,-4.6289,-4.6289,-4.6289,-4.6289,-4.6289,-4.6133,-4.5234,-4.4375,-4.3475,-4.2519,-4.169,-4.1095,-4.1006,-4.0987,-4.0981,-4.0974,-4.0256,-3.9577,-3.95,-3.8063,-3.6864,-3.6787,-3.6168,-3.5704,-3.5704,-3.4974,-3.4432,-3.451,-3.3692,-3.3146,-3.3223,-3.4002,-3.4858,-3.5626,-3.4897,-3.404,-3.3256,-3.3125,-3.2722,-3.1939,-3.2613,-3.2596,-3.1736,-3.1713,-3.1278,-3.0392,-3.0396,-3.0379,-3.0367,-3.0367,-3.026,-4.7081,-4.7939,-4.8406,-4.751,-4.4699,-4.1382,-3.8494,0.0,-3.0723,-2.8732,-2.6898,-2.5805,-2.6156,-2.6938,-2.8304,-3.0723,-3.1973,-3.4159,0.0,0.0,0.0,0.0,0.0,0.0,0.0,0.0,0.0,0.0,0.0,0.0,-5.1882,-5.2741,-5.321,-5.321,-5.321,-5.3483,-5.399,-5.2975,-5.2507,-5.2704,-5.2156,-5.1726,-5.1414,-5.1414,-5.1414,-5.1414,-5.1414,0.0,0.0,-5.1414,-5.1414,-5.1414,-5.1419,-5.1071,-5.0453,-4.9286,-4.8548,-4.7925,-4.6717,-4.6288,-4.6289,-4.6289,-4.6289,-4.6289,-4.6289,-4.6289,-4.6211,-4.5898,-4.4766,-4.3594,-4.324,-4.2145,-4.1125,-4.1095,-4.1044,-4.1037,-4.1,-4.0698,-4.0291,-3.9749,-3.863,-3.7618,-3.706,-3.6265,-3.5704,-3.5715,-3.54,-3.5168,-3.5168,-3.4427,-3.3886,-3.3886,-3.42,-3.4549,-3.4897,-3.509,-3.5046,-3.4698,-3.419,-3.3721,-3.3367,-3.3181,-3.2662,-3.178,-3.173,-3.1284,-3.0398,-3.0402,-3.0385,-3.0385,-3.0385,-3.0355,-4.5517,-4.6378,-4.6766,-4.6378,-4.3295,-3.9821,0.0,0.0,-3.0021,-2.8615,-2.6898,-2.5687,-2.5687,-2.6196,-2.7172,-2.8929,-2.9631,-3.1465,-3.5797,0.0,0.0,0.0,0.0,0.0,0.0,0.0,0.0,0.0,0.0,0.0,0.0,-5.196,-5.2312,-5.2312,-5.2312,-5.2624,-5.3249,-5.1999,-5.1726,-5.2312,-5.1687,-5.1414,-5.1414,-5.1414,-5.1414,-5.1414,-5.1414,0.0,0.0,-5.1414,-5.1258,-5.1023,-5.1023,-5.0481,-4.9628,-4.8771,-4.8072,-4.7491,-4.6597,-4.6286,-4.6287,-4.6289,-4.6289,-4.6289,-4.6289,-4.6289,-4.6289,-4.6289,-4.5039,-4.3594,-4.3086,-4.207,-4.1171,-4.1125,-4.1121,-4.1116,-4.109,-4.1033,-4.0866,-4.0245,-3.9176,-3.8173,-3.7545,-3.6456,-3.5715,-3.5689,-3.5687,-3.5704,-3.5704,-3.4935,-3.4394,-3.4394,-3.4162,-3.4002,-3.4002,-3.4582,-3.4814,-3.4543,-3.4195,-3.377,-3.3311,-3.3169,-3.2578,-3.1463,-3.1648,-3.1306,-3.0447,-3.0414,-3.0396,-3.0385,-3.0385,-3.0538,-4.4302,-4.501,-4.5246,-4.6105,-4.2437,-3.8376,0.0,-3.3301,-2.9358,-2.8498,-2.6898,-2.5687,-2.5687,-2.5726,-2.6273,-2.803,-2.9707,-3.2323,-3.6657,0.0,0.0,0.0,0.0,0.0,0.0,0.0,0.0,0.0,0.0,0.0,0.0,-5.1414,-5.1414,-5.1414,-5.1414,-5.1414,-5.1414,-5.1414,-5.1414,-5.1414,-5.1414,-5.1414,-5.1414,-5.1414,-5.1414,0.0,0.0,0.0,0.0,-5.1414,-5.0906,-5.0124,-5.0124,-4.9579,-4.8722,-4.7909,-4.7599,-4.7484,-4.6592,-4.6282,-4.6283,-4.6286,-4.6287,-4.6288,-4.6289,-4.6289,-4.6289,-4.6289,-4.5039,-4.332,-4.1641,-4.1211,-4.1211,-4.1211,-4.1211,-4.1211,-4.1211,-4.1165,-4.1108,-4.1108,-3.9631,-3.8383,-3.838,-3.6883,-3.5698,-3.5698,-3.5694,-3.5704,-3.5704,-3.4935,-3.4394,-3.4394,-3.3615,-3.3107,-3.3107,-3.3107,-3.2759,-3.1908,-3.2643,-3.2372,-3.0714,-3.2217,-3.2333,-3.0636,-3.1385,-3.1365,-3.0485,-3.0414,-3.0419,-3.0385,-3.0385,-3.0846,-3.9499,-4.0561,-4.1225,-4.0366,-3.8453,-3.6267,-3.4237,-3.1583,-2.9163,-2.7718,-2.6507,-2.5687,-2.5687,-2.5687,-2.6663,-2.9551,-3.0449,0.0,0.0,0.0,0.0,0.0,0.0,0.0,0.0,0.0,0.0,0.0,0.0,0.0,0.0,-5.1414,-5.1414,-5.1414,-5.1414,-5.1414,-5.1414,-5.1414,-5.1414,-5.1414,-5.1414,-5.1414,-5.1414,-5.1414,-5.1414,0.0,0.0,0.0,0.0,-5.075,-5.0358,-5.0046,-4.9423,-4.872,-4.7939,-4.7707,-4.7201,-4.6656,-4.6392,-4.6316,-4.6317,-4.6286,-4.6287,-4.6288,-4.6289,-4.6289,-4.6055,-4.4844,-4.4141,-4.332,-4.1641,-4.1211,-4.1211,-4.1211,-4.1211,-4.1211,-4.1211,-4.1171,-4.1169,-4.1169,-4.0229,-3.92,-3.8522,-3.7439,-3.6452,-3.582,-3.5692,-3.5704,-3.5704,-3.5477,-3.5051,-3.4471,-3.4156,-3.377,-3.3146,-3.3107,-3.2991,-3.272,-3.2372,-3.1985,-3.1444,-3.141,-3.1139,-3.0598,-3.0806,-3.0786,-3.0505,-3.0479,-3.0761,-3.1305,-3.1281,-3.1737,0.0,-3.7552,-3.8177,-3.7473,-3.6145,-3.4507,-3.2558,-3.0566,-2.8691,-2.7286,-2.6308,-2.5682,-2.5684,-2.5684,-2.6505,-2.8967,-2.963,0.0,0.0,0.0,0.0,0.0,0.0,0.0,0.0,0.0,0.0,0.0,0.0,0.0,0.0,-5.1414,-5.1414,-5.1414,-5.1414,-5.1414,-5.1414,-5.1414,-5.1414,-5.1414,-5.1414,-5.1414,-5.1414,-5.1414,-5.1414,0.0,0.0,0.0,0.0,-5.0319,-4.9733,-4.9109,-4.8564,-4.7822,-4.712,-4.712,-4.6768,-4.6302,-4.6306,-4.6308,-4.6311,-4.6281,-4.6284,-4.6286,-4.6288,-4.6289,-4.5937,-4.418,-4.3711,-4.332,-4.1641,-4.1211,-4.1211,-4.1211,-4.1211,-4.1211,-4.1211,-4.1211,-4.1211,-4.1211,-4.0508,-3.9608,-3.8647,-3.7715,-3.6803,-3.5883,-3.5723,-3.5704,-3.5704,-3.5704,-3.5477,-3.4935,-3.4587,-3.42,-3.3654,-3.2991,-3.2488,-3.2179,-3.1637,-3.1366,-3.1366,-3.0868,-3.0752,-3.1062,-3.1004,-3.0989,-3.0984,-3.0997,-3.1394,-3.217,-3.2191,-3.2634,0.0,-3.5472,-3.571,-3.6489,-3.4812,-3.2823,-3.1932,-2.9899,0.0,-2.7082,-2.6259,-2.575,-2.5874,-2.5836,-2.615,-2.7288,-2.8147,0.0,0.0,0.0,0.0,0.0,0.0,0.0,0.0,0.0,0.0,0.0,0.0,0.0,0.0,-5.1414,-5.1414,-5.1414,-5.1414,-5.1414,-5.1414,-5.1414,-5.1414,-5.1414,-5.1414,-5.1414,-5.1414,-5.1414,-5.1375,0.0,0.0,0.0,0.0,-4.9967,-4.8992,-4.7586,-4.7547,-4.7002,-4.63,-4.63,-4.63,-4.63,-4.63,-4.63,-4.6302,-4.6311,-4.6317,-4.6282,-4.6282,-4.6287,-4.5937,-4.418,-4.3711,-4.332,-4.1641,-4.1211,-4.1211,-4.1211,-4.1211,-4.1211,-4.1211,-4.1211,-4.1211,-4.1211,-4.0547,-3.9726,-3.8828,-3.7866,-3.6913,-3.6008,-3.5767,-3.572,-3.572,-3.5709,-3.5704,-3.5704,-3.4974,-3.4471,-3.4394,-3.288,-3.156,-3.083,-3.0791,-3.0791,-3.0791,-3.0791,-3.1139,-3.1869,-3.1908,-3.1898,-3.1883,-3.189,-3.2326,-3.3106,-3.31,-3.3506,-2.9589,0.0,-3.0934,-3.0512,-2.9965,-2.9265,0.0,-2.7741,-2.7077,-2.6179,-2.5827,-2.6101,-2.7435,-2.7123,-2.7828,-3.1347,-3.2088,0.0,0.0,0.0,0.0,0.0,0.0,0.0,0.0,0.0,0.0,0.0,0.0,0.0,0.0,-5.1414,-5.1414,-5.1414,-5.1414,-5.1414,-5.1414,-5.1414,-5.1414,-5.1414,-5.1414,-5.1414,-5.1414,-5.1414,-5.1023,0.0,0.0,0.0,-4.9072,-4.8445,-4.7977,-4.7547,-4.6885,-4.6495,-4.63,-4.63,-4.63,-4.63,-4.63,-4.63,-4.6302,-4.6311,-4.6317,-4.6282,-4.6282,-4.6286,-4.5936,-4.4179,-4.3711,-4.332,-4.1641,-4.1211,-4.1211,-4.1211,-4.1211,-4.1211,-4.1211,-4.1211,-4.1211,-4.1211,-4.1016,-4.0585,-3.9678,-3.8767,-3.7849,-3.6913,-3.6168,-3.5706,-3.5706,-3.5718,-3.5704,-3.5704,-3.5516,-3.5129,-3.4471,-3.3421,-3.272,-3.2527,-3.2527,-3.2527,-3.2527,-3.2527,-3.2604,-3.2798,-3.2798,-3.2792,-3.2787,-3.2805,-3.3219,-3.3981,-3.3928,-3.4366,-2.6764,-2.805,-2.926,-2.8838,-2.8773,-2.8593,-2.7706,-2.7211,-2.6713,0.0,0.0,0.0,0.0,0.0,0.0,0.0,0.0,0.0,0.0,0.0,0.0,0.0,0.0,0.0,0.0,0.0,0.0,0.0,0.0,0.0,0.0,-5.1414,-5.1414,-5.1414,-5.1414,-5.1414,-5.1414,-5.1414,-5.1414,-5.1414,-5.1414,-5.118,-5.0789,-5.0789,-5.0321,0.0,0.0,0.0,-4.8213,-4.7781,-4.7352,-4.6963,-4.6495,-4.63,-4.63,-4.63,-4.63,-4.63,-4.63,-4.63,-4.6302,-4.6306,-4.6311,-4.6313,-4.6313,-4.6318,-4.5932,-4.4177,-4.371,-4.332,-4.1641,-4.1211,-4.1211,-4.1211,-4.1211,-4.1211,-4.1211,-4.1211,-4.1211,-4.1211,-4.1211,-4.0898,-3.9995,-3.944,-3.8801,-3.7882,-3.6935,-3.6342,-3.6342,-3.5957,-3.5699,-3.5699,-3.5697,-3.551,-3.5051,-3.4543,-3.3958,-3.3146,-3.3107,-3.3107,-3.3107,-3.3107,-3.33,-3.3692,-3.3692,-3.3886,-3.4311,-3.3875,-3.4091,-3.4886,-3.4857,-3.5097,-2.5585,-2.7383,-2.9098,-2.8857,-2.9009,-2.8967,-2.8259,0.0,0.0,0.0,0.0,0.0,0.0,0.0,0.0,0.0,0.0,0.0,0.0,0.0,0.0,0.0,0.0,0.0,0.0,0.0,0.0,0.0,0.0,0.0,0.0,-5.0984,-5.0984,-5.0984,-5.0984,-5.0984,-5.0984,-5.1141,-5.1219,-5.1219,-5.1063,-5.0633,-4.9889,-4.9889,-4.9421,-4.8603,0.0,0.0,-4.7391,-4.7391,-4.6963,-4.63,-4.63,-4.63,-4.63,-4.63,-4.63,-4.63,-4.63,-4.63,-4.63,-4.63,-4.63,-4.63,-4.63,-4.6305,-4.5923,-4.4174,-4.3708,-4.3318,-4.1601,-4.1172,-4.1172,-4.1172,-4.1172,-4.1211,-4.1211,-4.1211,-4.1211,-4.1172,-4.1172,-4.0976,-4.0195,-3.9918,-3.9554,-3.8812,-3.7927,-3.7272,-3.7116,-3.6395,-3.5869,-3.5736,-3.5704,-3.5687,-3.5709,-3.5704,-3.5085,-3.3571,-3.3494,-3.3494,-3.3494,-3.3494,-3.3847,-3.4587,-3.4587,-3.4974,-3.5704,-3.4974,-3.4958,-3.5631,-3.5587,-3.5558,-2.6962,-2.8134,-2.8635,-2.7387,-2.7619,-2.8088,-2.7976,-2.7295,0.0,0.0,0.0,0.0,0.0,0.0,0.0,0.0,0.0,0.0,0.0,0.0,0.0,0.0,0.0,0.0,0.0,0.0,0.0,0.0,0.0,0.0,0.0,-4.9189,-4.9189,-4.9189,-4.9189,-4.9189,-4.9189,-4.9928,-5.0319,-5.028,-4.954,-4.9111,-4.8993,-4.8993,-4.8564,-4.7781,0.0,-4.7315,-4.6495,-4.6495,-4.6417,-4.63,-4.63,-4.63,-4.63,-4.63,-4.63,-4.63,-4.63,-4.63,-4.63,-4.63,-4.63,-4.63,-4.63,-4.6302,-4.5953,-4.4203,-4.3701,-4.3314,-4.1558,-4.113,-4.1131,-4.1131,-4.1171,-4.1211,-4.1211,-4.1211,-4.1172,-4.1132,-4.1172,-4.1133,-4.0936,-4.0351,-3.9843,-3.9726,-3.8895,-3.8017,-3.7276,-3.7006,-3.6596,-3.5783,-3.5685,-3.5684,-3.5715,-3.5704,-3.5588,-3.5317,-3.5317,-3.5317,-3.5317,-3.5317,-3.5356,-3.5516,-3.5516,-3.5554,-3.5704,-3.5554,-3.5549,-3.5698,-3.5637,-3.5581,-2.6141,-2.7287,-2.8186,-2.795,-2.889,-2.9765,-2.928,-2.8931,0.0,0.0,0.0,0.0,0.0,0.0,0.0,0.0,0.0,0.0,0.0,0.0,0.0,0.0,0.0,0.0,0.0,0.0,0.0,0.0,0.0,0.0,0.0,0.0,-4.8798,-4.8798,-4.8798,-4.8798,-4.8798,-4.8757,-4.8953,-4.9384,-4.8993,-4.8564,-4.8135,-4.8135,-4.7705,-4.6885,0.0,-4.6651,-4.63,-4.63,-4.63,-4.63,-4.63,-4.63,-4.63,-4.63,-4.63,-4.63,-4.63,-4.63,-4.63,-4.63,-4.63,-4.63,-4.63,-4.63,-4.6028,-4.4742,-4.4046,-4.331,-4.1555,-4.1089,-4.109,-4.109,-4.113,-4.1131,-4.1132,-4.1132,-4.1132,-4.1092,-4.1132,-4.1132,-4.1129,-4.078,-4.0546,-4.0546,-3.9804,-3.9097,-3.8706,-3.7789,-3.6976,-3.6562,-3.606,-3.5733,-3.5684,-3.5713,-3.5689,-3.5709,-3.5704,-3.5704,-3.5704,-3.5704,-3.5704,-3.5704,-3.5704,-3.5704,-3.5704,-3.5704,-3.5704,-3.5704,-3.5654,-3.5637,-2.595,-2.6861,-2.7886,-2.8688,-2.9927,-3.0983,-3.1124,-3.0751,-3.0529,0.0,0.0,0.0,0.0,0.0,0.0,0.0,0.0,0.0,0.0,0.0,0.0,0.0,0.0,0.0,0.0,0.0,0.0,0.0,0.0,0.0,0.0,0.0,-4.8213,-4.8213,-4.8213,-4.8213,-4.8213,-4.7588,-4.7705,-4.8525,-4.8291,-4.79,-4.7315,-4.7315,-4.6924,-4.63,-4.63,-4.63,-4.63,-4.63,-4.63,-4.63,-4.63,-4.63,-4.63,-4.63,-4.63,-4.63,-4.63,-4.63,-4.63,-4.63,-4.63,-4.63,-4.63,-4.63,-4.6105,-4.5246,-4.4507,-4.3615,-4.1864,-4.1397,-4.1359,-4.1164,-4.1087,-4.1088,-4.1091,-4.1091,-4.1091,-4.109,-4.1091,-4.109,-4.1087,-4.1089,-4.1091,-4.1092,-4.0585,-4.0117,-3.9922,-3.8706,-3.768,-3.7244,-3.6555,-3.5997,-3.5706,-3.5698,-3.5697,-3.5715,-3.5704,-3.5704,-3.5704,-3.5704,-3.5704,-3.5704,-3.5704,-3.5704,-3.5704,-3.5704,-3.5704,-3.5704,-3.5704,-3.5654,-2.823,-2.8192,-2.7892,-2.8701,-2.9007,-2.9917,-3.3028,-3.1926,0.0,-3.3234,0.0,0.0,0.0,0.0,0.0,0.0,0.0,0.0,0.0,0.0,0.0,0.0,0.0,0.0,0.0,0.0,0.0,0.0,0.0,0.0,0.0,0.0,0.0,-4.6495,-4.6495,-4.6495,-4.6495,-4.6417,-4.6846,-4.7664,-4.6885,-4.6456,-4.6378,-4.6378,-4.6378,-4.63,-4.63,-4.63,-4.63,-4.63,-4.63,-4.63,-4.63,-4.63,-4.63,-4.63,-4.63,-4.63,-4.63,-4.63,-4.63,-4.63,-4.63,-4.63,-4.63,-4.63,-4.6105,-4.5246,-4.4933,-4.4504,-4.2749,-4.2325,-4.2096,-4.1275,-4.1084,-4.1087,-4.1088,-4.1088,-4.1087,-4.1082,-4.1085,-4.1087,-4.1081,-4.1085,-4.1089,-4.1091,-4.1053,-4.0741,-4.0,-3.9805,-3.9061,-3.7363,-3.7124,-3.6701,-3.5788,-3.5698,-3.5697,-3.5715,-3.5704,-3.5704,-3.5704,-3.5704,-3.5704,-3.5704,-3.5704,-3.5704,-3.5704,-3.5704,-3.5704,-3.5704,-3.5704,-3.5704,-2.7166,-2.7886,-2.8535,-2.8803,-2.972,0.0,0.0,-3.3242,-3.3891,-3.5878,-3.6752,0.0,0.0,0.0,0.0,0.0,0.0,0.0,0.0,0.0,0.0,0.0,0.0,0.0,0.0,0.0,0.0,0.0,0.0,0.0,0.0,0.0,0.0,-4.63,-4.63,-4.63,-4.63,-4.63,-4.6456,-4.6807,-4.6456,-4.63,-4.63,-4.63,-4.63,-4.63,-4.63,-4.63,-4.63,-4.63,-4.63,-4.63,-4.63,-4.63,-4.63,-4.63,-4.63,-4.63,-4.63,-4.63,-4.63,-4.63,-4.63,-4.63,-4.63,-4.63,-4.6222,-4.5909,-4.5792,-4.5402,-4.3645,-4.2827,-4.2322,-4.1971,-4.1505,-4.1117,-4.1082,-4.1083,-4.1082,-4.1119,-4.1081,-4.1081,-4.1114,-4.1117,-4.1083,-4.1085,-4.1088,-4.0974,-4.0702,-4.0194,-3.9648,-3.8943,-3.7878,-3.7037,-3.6653,-3.607,-3.5681,-3.5688,-3.5702,-3.5704,-3.5704,-3.5704,-3.5704,-3.5704,-3.5704,-3.5704,-3.5704,-3.5704,-3.5704,-3.5704,-3.5704,-3.5704,-2.6823,-2.7657,-2.8574,-2.8841,0.0,0.0,-3.3196,-3.438,-3.5916,-3.84,-3.9355,0.0,0.0,0.0,0.0,0.0,0.0,0.0,0.0,0.0,0.0,0.0,0.0,0.0,0.0,0.0,0.0,0.0,0.0,0.0,0.0,0.0,0.0,-4.63,-4.63,-4.63,-4.63,-4.63,-4.63,-4.63,-4.63,-4.63,-4.63,-4.63,-4.63,-4.63,-4.63,-4.63,-4.63,-4.63,-4.63,-4.63,-4.63,-4.63,-4.63,-4.63,-4.63,-4.63,-4.63,-4.63,-4.63,-4.63,-4.63,-4.63,-4.63,-4.63,-4.63,-4.63,-4.63,-4.5948,-4.4504,-4.345,-4.2747,-4.2474,-4.1732,-4.1111,-4.1115,-4.1115,-4.1115,-4.1115,-4.1115,-4.1114,-4.1109,-4.1112,-4.1116,-4.1117,-4.1083,-4.1087,-4.109,-4.0622,-4.0193,-3.9921,-3.8552,-3.7526,-3.7244,-3.6565,-3.6038,-3.5741,-3.5697,-3.5702,-3.5709,-3.5704,-3.5704,-3.5704,-3.5704,-3.5704,-3.5704,-3.5704,-3.5704,-3.5704,-3.5704,-3.5704,-2.7701,-2.7701,-2.7892,0.0,0.0,0.0,-3.4655,-3.5229,-3.6413,-4.0616,0.0,-4.1495,0.0,0.0,0.0,0.0,0.0,0.0,0.0,0.0,0.0,0.0,0.0,0.0,0.0,0.0,0.0,0.0,0.0,0.0,0.0,0.0,-4.63,-4.63,-4.63,-4.63,-4.63,-4.63,-4.63,-4.63,-4.63,-4.63,-4.63,-4.63,-4.63,-4.63,-4.63,-4.63,-4.63,-4.63,-4.63,-4.63,-4.63,-4.63,-4.63,-4.63,-4.63,-4.63,-4.63,-4.63,-4.63,-4.63,-4.63,-4.63,-4.63,-4.63,-4.63,-4.63,-4.63,-4.6105,-4.5246,-4.4348,-4.3489,-4.2591,-4.1732,-4.1109,-4.1109,-4.1109,-4.1109,-4.1109,-4.1109,-4.1109,-4.1109,-4.1109,-4.1111,-4.1117,-4.1117,-4.1082,-4.1087,-4.1087,-4.0776,-3.9998,-3.914,-3.8241,-3.7285,-3.7204,-3.6838,-3.5894,-3.5744,-3.5697,-3.5715,-3.5709,-3.5704,-3.5704,-3.5704,-3.5704,-3.5704,-3.5704,-3.5704,-3.5704,-3.5704,-3.5704,-2.6937,-2.7657,0.0,-2.9612,0.0,0.0,0.0,-3.6948,0.0,0.0,0.0,0.0,0.0,0.0,0.0,0.0,0.0,0.0,0.0,0.0,0.0,0.0,0.0,0.0,0.0,0.0,0.0,0.0,0.0,0.0,0.0,-4.5714,-4.5675,-4.6261,-4.63,-4.63,-4.63,-4.63,-4.63,-4.63,-4.63,-4.63,-4.63,-4.63,-4.63,-4.63,-4.63,-4.63,-4.63,-4.63,-4.63,-4.63,-4.63,-4.63,-4.63,-4.63,-4.63,-4.63,-4.63,-4.63,-4.63,-4.63,-4.63,-4.63,-4.63,-4.63,-4.63,-4.63,-4.63,-4.6222,-4.5987,-4.4816,-4.3489,-4.2591,-4.1732,-4.1109,-4.1109,-4.1109,-4.1109,-4.1109,-4.1109,-4.1109,-4.1109,-4.1109,-4.1109,-4.1112,-4.1112,-4.1115,-4.1081,-4.1086,-4.1011,-4.0779,-3.9998,-3.9414,-3.9139,-3.8503,-3.7982,-3.7737,-3.7069,-3.6377,-3.5741,-3.5707,-3.5704,-3.5704,-3.5704,-3.5704,-3.5704,-3.5704,-3.5704,-3.5704,-3.5704,-3.6013,-2.7358,-2.865,0.0,-3.1408,-3.412,-3.6901,-3.84,0.0,0.0,0.0,0.0,0.0,0.0,0.0,0.0,0.0,0.0,0.0,0.0,0.0,0.0,0.0,0.0,0.0,0.0,0.0,0.0,0.0,0.0,0.0,0.0,-4.4777,-4.4738,-4.5246,-4.5232,-4.523,-4.5285,-4.523,-4.523,-4.5285,-4.5285,-4.5285,-4.5285,-4.5987,-4.63,-4.63,-4.63,-4.63,-4.63,-4.63,-4.63,-4.63,-4.63,-4.63,-4.63,-4.63,-4.63,-4.63,-4.63,-4.63,-4.63,-4.63,-4.63,-4.63,-4.63,-4.63,-4.63,-4.63,-4.63,-4.6222,-4.587,-4.4738,-4.3567,-4.3021,-4.2006,-4.1109,-4.1109,-4.1109,-4.1109,-4.1109,-4.1109,-4.1109,-4.1109,-4.1109,-4.1109,-4.1109,-4.1109,-4.1111,-4.1114,-4.1082,-4.1086,-4.1088,-4.066,-4.0233,-3.9921,-3.9373,-3.8899,-3.8546,-3.7975,-3.7393,-3.6848,-3.6116,-3.5713,-3.5709,-3.5704,-3.5704,-3.5704,-3.5704,-3.5704,-3.5704,-3.6013,-3.6439,-2.8344,0.0,0.0,-3.3662,-3.5496,0.0,0.0,0.0,0.0,0.0,0.0,0.0,0.0,0.0,0.0,0.0,0.0,0.0,0.0,0.0,0.0,0.0,0.0,0.0,0.0,0.0,0.0,0.0,0.0,0.0,0.0,-4.3597,-4.3597,-4.3681,-4.3593,-4.3587,-4.3675,-4.3629,-4.3629,-4.3675,-4.3675,-4.3675,-4.3714,-4.5322,-4.6066,-4.6066,-4.6066,-4.6066,-4.6066,-4.6144,-4.6183,-4.6183,-4.6261,-4.63,-4.63,-4.63,-4.63,-4.63,-4.63,-4.63,-4.63,-4.63,-4.63,-4.63,-4.63,-4.63,-4.6261,-4.6183,-4.6222,-4.6105,-4.5246,-4.4348,-4.3686,-4.3686,-4.2358,-4.1109,-4.1109,-4.1109,-4.1109,-4.1109,-4.1109,-4.1109,-4.1109,-4.1109,-4.1109,-4.1109,-4.1109,-4.1109,-4.1109,-4.1114,-4.1117,-4.1117,-4.1087,-4.0818,-4.0076,-4.0,-3.9687,-3.8867,-3.8704,-3.8613,-3.8611,-3.6884,-3.5905,-3.5803,-3.5841,-3.5797,-3.5704,-3.5781,-3.582,-3.582,-3.6632,-3.7058,-2.7657,-2.9643,0.0,0.0,0.0,0.0,0.0,0.0,0.0,0.0,0.0,0.0,0.0,0.0,0.0,0.0,0.0,0.0,0.0,0.0,0.0,0.0,0.0,0.0,0.0,0.0,0.0,0.0,0.0,0.0,-4.3494,-4.2778,-4.2739,-4.3587,-4.3432,-4.3397,-4.3467,-4.345,-4.345,0.0,-4.3471,-4.3471,-4.3475,-4.4007,-4.427,-4.427,-4.427,-4.427,-4.4309,-4.5012,-4.5285,-4.5363,-4.6027,-4.63,-4.63,-4.63,-4.63,-4.63,-4.63,-4.63,-4.63,-4.63,-4.63,-4.63,-4.63,-4.63,-4.6144,-4.548,-4.5753,-4.6105,-4.5246,-4.4348,-4.3686,-4.3686,-4.2358,-4.1109,-4.1109,-4.1109,-4.1109,-4.1109,-4.1109,-4.1109,-4.1109,-4.1109,-4.1109,-4.1109,-4.1109,-4.1109,-4.1109,-4.1111,-4.1114,-4.1117,-4.1081,-4.1046,-4.0854,-4.0857,-4.0741,-4.0585,-3.9961,-3.9566,-3.9511,-3.841,-3.7481,-3.6733,-3.6729,-3.6377,-3.5704,-3.6323,-3.6632,-3.6671,-3.7516,-3.8295,0.0,0.0,0.0,0.0,0.0,0.0,0.0,0.0,0.0,0.0,0.0,0.0,0.0,0.0,0.0,0.0,0.0,0.0,0.0,0.0,0.0,0.0,0.0,0.0,0.0,0.0,0.0,0.0,0.0,-4.1636,-4.214,-4.1665,-4.1631,-4.2252,-4.211,-4.2045,-4.216,-4.211,-4.211,-4.216,-4.216,-4.216,-4.2204,-4.3185,-4.3667,-4.3686,-4.3686,-4.3686,-4.3725,-4.4192,-4.4387,-4.4465,-4.5324,-4.5675,-4.5714,-4.6144,-4.63,-4.63,-4.63,-4.63,-4.6222,-4.5792,-4.5675,-4.5597,-4.5168,-4.5363,-4.5597,-4.5129,-4.5636,-4.6183,-4.5753,-4.466,-4.3686,-4.3686,-4.2358,-4.1109,-4.1109,-4.1109,-4.1109,-4.1109,-4.1109,-4.1109,-4.1109,-4.1109,-4.1109,-4.1109,-4.1109,-4.1109,-4.1109,-4.1109,-4.1111,-4.1114,-4.1116,-4.1081,-4.1084,-4.1088,-4.1091,-4.1092,-4.0702,-4.0469,-4.0463,-3.9985,-3.9095,-3.7683,-3.7679,-3.7444,-3.6959,-3.738,-3.7544,-3.7555,-3.8411,-3.9075,0.0,0.0,0.0,0.0,0.0,0.0,0.0,0.0,0.0,0.0,0.0,0.0,0.0,0.0,0.0,0.0,0.0,0.0,0.0,0.0,0.0,0.0,0.0,0.0,0.0,0.0,0.0,0.0,0.0,-4.0653,-4.067,-4.0647,-4.0665,-4.0759,-4.0623,-4.0623,-4.0765,-4.0706,-4.0674,-4.0736,-4.0736,-4.0742,-4.0835,-4.2408,-4.315,-4.3246,-4.3246,-4.325,-4.3256,-4.3411,-4.3489,-4.3567,-4.4426,-4.4777,-4.4855,-4.5597,-4.5831,-4.5831,-4.5831,-4.5831,-4.5753,-4.5207,-4.501,-4.4894,-4.4309,-4.466,-4.5207,-4.5049,-4.5636,-4.6261,-4.6105,-4.4894,-4.3686,-4.3686,-4.2358,-4.1109,-4.1109,-4.1109,-4.1109,-4.1109,-4.1109,-4.1109,-4.1109,-4.1109,-4.1109,-4.1109,-4.1109,-4.1109,-4.1109,-4.1109,-4.1109,-4.1109,-4.1114,-4.1116,-4.1116,-4.1084,-4.1087,-4.109,-4.1091,-4.1131,-4.1172,-4.1172,-4.0464,-3.8892,-3.8727,-3.8536,-3.8303,-3.8459,-3.849,-3.8473,-3.9348,-3.9729,0.0,0.0,0.0,0.0,0.0,0.0,0.0,0.0,0.0,0.0,0.0,0.0,0.0,0.0,0.0,0.0,0.0,0.0,0.0,0.0,0.0,0.0,0.0,0.0,0.0,0.0,0.0,0.0,0.0,-4.0454,-4.0521,-4.0438,-4.0407,-4.0545,-4.0399,-4.0419,-4.0562,-4.0538,-4.0516,-4.0537,-4.0537,-4.0588,-4.0636,-4.0963,-4.1175,-4.1356,-4.1356,-4.1386,-4.15,-4.2279,-4.2552,-4.2669,-4.3528,-4.3879,-4.3879,-4.3997,-4.4037,-4.4037,-4.4037,-4.4037,-4.4153,-4.4777,-4.501,-4.5129,-4.5753,-4.6027,-4.5987,-4.5207,-4.5636,-4.6144,-4.5363,-4.4426,-4.3686,-4.3686,-4.2358,-4.1109,-4.1109,-4.1109,-4.1109,-4.1109,-4.1109,-4.1109,-4.1109,-4.1109,-4.1109,-4.1109,-4.1109,-4.1109,-4.1109,-4.1109,-4.1109,-4.1109,-4.1109,-4.1111,-4.1111,-4.1116,-4.1081,-4.1082,-4.1086,-4.109,-4.1092,-4.1092,-4.1015,-4.0819,-4.0024,-3.9213,-3.8383,-3.9156,-3.95,-3.9529,-4.0347,-4.0694,-2.6982,0.0,0.0,0.0,0.0,0.0,0.0,0.0,0.0,0.0,0.0,0.0,0.0,0.0,0.0,0.0,0.0,0.0,0.0,0.0,0.0,0.0,0.0,0.0,0.0,0.0,0.0,0.0,0.0,-4.0354,-4.0386,-4.0345,-4.0325,-4.0375,-4.0321,-4.0342,-4.0441,-4.0441,-4.0449,-4.0436,-4.0436,-4.0729,-4.1208,-4.0792,-4.0712,-4.089,-4.089,-4.091,-4.0942,-4.1331,-4.1548,-4.1696,-4.2595,-4.2924,-4.3021,-4.3528,-4.3686,-4.3686,-4.3686,-4.3686,-4.3684,-4.3567,-4.3879,-4.4153,-4.3567,-4.4426,-4.5402,-4.4504,-4.5246,-4.6222,-4.5831,-4.509,-4.4426,-4.4426,-4.3099,-4.181,-4.181,-4.142,-4.1109,-4.1109,-4.1109,-4.1109,-4.1109,-4.1109,-4.1109,-4.1109,-4.1109,-4.1109,-4.1109,-4.1109,-4.1109,-4.1109,-4.1109,-4.1109,-4.1109,-4.1112,-4.1115,-4.1117,-4.1082,-4.1086,-4.109,-4.109,-4.1091,-4.1132,-4.078,-4.0378,-3.9917,-4.0305,-4.0484,-4.0448,-4.0804,-4.0956,0.0,0.0,0.0,0.0,0.0,0.0,0.0,0.0,0.0,0.0,0.0,0.0,0.0,0.0,0.0,0.0,0.0,0.0,0.0,0.0,0.0,0.0,0.0,0.0,0.0,0.0,0.0,0.0,0.0,-4.0301,-4.0301,-4.0301,-4.0281,-4.0289,-4.0289,-4.0307,-4.0351,-4.0398,-4.0398,-4.0351,-4.0398,-4.0752,-4.1318,-4.0748,-4.0576,-4.0688,-4.0731,-4.0767,-4.0791,-4.0791,-4.087,-4.1002,-4.1668,-4.1935,-4.2091,-4.2767,-4.3006,-4.3008,-4.3019,-4.3022,-4.2983,-4.2552,-4.2982,-4.3491,-4.2435,-4.3606,-4.5207,-4.4543,-4.5285,-4.63,-4.63,-4.5636,-4.501,-4.501,-4.384,-4.2591,-4.2162,-4.1576,-4.1109,-4.1109,-4.1109,-4.1109,-4.1109,-4.1109,-4.1109,-4.1109,-4.1109,-4.1109,-4.1109,-4.1109,-4.1109,-4.1109,-4.1109,-4.1109,-4.1109,-4.1109,-4.1111,-4.1116,-4.1116,-4.1119,-4.1086,-4.1086,-4.1087,-4.1091,-4.1132,-4.1171,-4.112,-4.112,-4.1108,-4.1037,-4.1022,-4.099,0.0,0.0,0.0,0.0,0.0,0.0,0.0,0.0,0.0,0.0,0.0,0.0,0.0,0.0,0.0,0.0,0.0,0.0,0.0,0.0,0.0,0.0,0.0,0.0,0.0,0.0,0.0,0.0,0.0,-4.0301,-4.0301,-4.0301,-4.0301,-4.031,-4.031,-4.0291,-4.0307,-4.0389,-4.0389,-4.0307,-4.0389,-4.0389,-4.0392,-4.0389,-4.0424,-4.0419,-4.0615,-4.0732,-4.0791,-4.0791,-4.0791,-4.0795,-4.0873,-4.0878,-4.0896,-4.1091,-4.1153,-4.1162,-4.1213,-4.1226,-4.1343,-4.2162,-4.2982,-4.384,-4.4582,-4.548,-4.6222,-4.6183,-4.6222,-4.63,-4.63,-4.5636,-4.501,-4.501,-4.4309,-4.3178,-4.1539,-4.1148,-4.1109,-4.1109,-4.1109,-4.1109,-4.1109,-4.1109,-4.1109,-4.1109,-4.1109,-4.1109,-4.1109,-4.1109,-4.1109,-4.1109,-4.1109,-4.1109,-4.1109,-4.1109,-4.1109,-4.1109,-4.1109,-4.1112,-4.1119,-4.1119,-4.1083,-4.1088,-4.1088,-4.1131,-4.1172,-4.1172,-4.1172,-4.1171,-4.1119,-4.1104,0.0,0.0,0.0,0.0,0.0,0.0,0.0,0.0,0.0,0.0,0.0,0.0,0.0,0.0,0.0,0.0,0.0,0.0,0.0,0.0,0.0,0.0,0.0,0.0,0.0,0.0,0.0,0.0,0.0,-4.0301,-4.0301,-4.0301,-4.0301,-4.0301,-4.0301,-4.031,-4.0291,-4.0309,-4.0309,-4.0291,-4.0309,-4.0577,-4.1065,-4.0575,-4.0631,-4.1138,-4.0761,-4.0591,-4.0602,-4.0629,-4.0649,-4.0726,-4.0726,-4.077,-4.08,-4.0963,-4.099,-4.1,-4.1095,-4.1109,-4.1226,-4.2123,-4.2982,-4.3764,-4.4075,-4.5168,-4.6183,-4.5636,-4.587,-4.63,-4.63,-4.6066,-4.5675,-4.5129,-4.4777,-4.4192,-4.3021,-4.2788,-4.2788,-4.2788,-4.2788,-4.2788,-4.2788,-4.2788,-4.2788,-4.2788,-4.2279,-4.1927,-4.1927,-4.1927,-4.1732,-4.1148,-4.1615,-4.1693,-4.1148,-4.1109,-4.1109,-4.1109,-4.1109,-4.1109,-4.1112,-4.1112,-4.1116,-4.1083,-4.1083,-4.1126,-4.1132,-4.1132,-4.1171,-4.1211,-4.117,-4.1125,-2.2887,0.0,0.0,0.0,0.0,0.0,0.0,0.0,0.0,0.0,0.0,0.0,0.0,0.0,0.0,0.0,0.0,0.0,0.0,0.0,0.0,0.0,0.0,0.0,0.0,0.0,0.0,0.0,0.0,0.0,-4.0301,-4.0301,-4.0301,-4.0301,-4.0301,-4.0301,-4.0301,-4.0301,-4.0301,-4.0301,-4.0301,-4.0578,-4.1074,-4.0529,-4.0624,-4.1121,-4.0637,-4.0458,-4.0491,-4.0492,-4.0537,-4.0629,-4.0615,-4.0662,-4.0715,-4.0825,-4.0861,-4.0878,-4.0964,-4.0986,-4.1142,-4.2036,-4.2907,-4.3704,-4.3975,-4.5117,-4.6183,-4.5597,-4.5831,-4.63,-4.63,-4.63,-4.6144,-4.5558,-4.5441,-4.5285,-4.4699,-4.4115,-4.3686,-4.3686,-4.3686,-4.3686,-4.3686,-4.3686,-4.3686,-4.3686,-4.3216,-4.2825,-4.2825,-4.2825,-4.2591,-4.2046,-4.2474,-4.2474,-4.1615,-4.1537,-4.142,-4.1109,-4.1109,-4.1109,-4.1109,-4.1109,-4.1111,-4.1115,-4.1115,-4.1081,-4.1089,-4.1091,-4.1132,-4.1172,-4.1172,-4.1171,0.0,0.0,0.0,0.0,0.0,0.0,0.0,0.0,0.0,0.0,0.0,0.0,0.0,0.0,0.0,0.0,0.0,0.0,0.0,0.0,0.0,0.0,0.0,0.0,0.0,0.0,0.0,0.0,-4.0301,-4.0301,-4.0301,-4.0301,-4.0301,-4.0301,-4.0301,-4.0301,-4.0301,-4.0301,-4.0301,-4.0301,-4.0301,-4.0301,-4.0301,-4.0301,-4.0301,-4.031,-4.028,-4.036,-4.0482,-4.0492,-4.0508,-4.0508,-4.0499,-4.0482,-4.0499,-4.0581,-4.0597,-4.0623,-4.0742,-4.0791,-4.0946,-4.1835,-4.2797,-4.376,-4.4575,-4.5518,-4.63,-4.63,-4.63,-4.63,-4.63,-4.63,-4.63,-4.63,-4.63,-4.63,-4.63,-4.4972,-4.3764,-4.3764,-4.3764,-4.3764,-4.3764,-4.3764,-4.3764,-4.3764,-4.3764,-4.3725,-4.3725,-4.3725,-4.3725,-4.3686,-4.3725,-4.3372,-4.2513,-4.2396,-4.2045,-4.1187,-4.1109,-4.1109,-4.1109,-4.1109,-4.1109,-4.1109,-4.1109,-4.1112,-4.1117,-4.1089,-4.1092,-4.1092,-4.1172,-4.1211,-2.2288,0.0,0.0,0.0,0.0,0.0,0.0,0.0,0.0,0.0,0.0,0.0,0.0,0.0,0.0,0.0,0.0,0.0,0.0,0.0,0.0,0.0,0.0,0.0,0.0,0.0,0.0,0.0,-4.0301,-4.0301,-4.0301,-4.0301,-4.0301,-4.0301,-4.0301,-4.0301,-4.0301,-4.0301,-4.0301,-4.0301,-4.0301,-4.0301,-4.0301,-4.0301,-4.0301,-4.031,-4.028,-4.0325,-4.0351,-4.0394,-4.0449,-4.0449,-4.0432,-4.0432,-4.0449,-4.0506,-4.0538,-4.0623,-4.0765,-4.0815,-4.1063,-4.2534,-4.3214,-4.3761,-4.5262,-4.5917,-4.6178,-4.6253,-4.63,-4.63,-4.63,-4.63,-4.63,-4.63,-4.63,-4.63,-4.63,-4.5909,-4.5597,-4.5597,-4.5597,-4.5597,-4.5597,-4.5597,-4.5597,-4.5597,-4.5051,-4.4621,-4.4621,-4.4621,-4.4387,-4.3762,-4.427,-4.4309,-4.3411,-4.2747,-4.2318,-4.2045,-4.1459,-4.1109,-4.1109,-4.1109,-4.1109,-4.1109,-4.1109,-4.1109,-4.1112,-4.1081,-4.1086,-4.1089,-4.1131,-4.1132,-2.274,-2.3563,0.0,0.0,0.0,0.0,0.0,0.0,0.0,0.0,0.0,0.0,0.0,0.0,0.0,0.0,0.0,0.0,0.0,0.0,0.0,0.0,0.0,0.0,0.0,0.0,0.0,-4.0301,-4.0301,-4.0301,-4.0301,-4.0301,-4.0301,-4.0301,-4.0301,-4.0301,-4.0301,-4.0301,-4.0301,-4.0301,-4.0301,-4.0301,-4.0301,-4.0301,-4.0301,-4.0301,-4.03,-4.0309,-4.0318,-4.0336,-4.0372,-4.0407,-4.0389,-4.0342,-4.036,-4.0391,-4.0439,-4.0477,-4.0584,-4.063,-4.0913,-4.2673,-4.3259,-4.3635,-4.5424,-4.5978,-4.6021,-4.6105,-4.6176,-4.6238,-4.6296,-4.63,-4.63,-4.63,-4.63,-4.63,-4.63,-4.63,-4.63,-4.63,-4.63,-4.63,-4.63,-4.63,-4.63,-4.63,-4.587,-4.5558,-4.5558,-4.5558,-4.5363,-4.4855,-4.5246,-4.5051,-4.3801,-4.3216,-4.263,-4.1888,-4.1382,-4.1109,-4.1109,-4.1109,-4.1109,-4.1109,-4.1109,-4.1109,-4.1109,-4.1115,-4.1083,-4.1087,-4.109,-4.1131,-2.346,-2.3624,0.0,0.0,0.0,0.0,-2.772,-2.7918,0.0,0.0,0.0,0.0,0.0,0.0,0.0,0.0,0.0,0.0,0.0,0.0,0.0,0.0,0.0,0.0,0.0,-4.0225,-4.0301,-4.0301,-4.0301,-4.0301,-4.0301,-4.0301,-4.0301,-4.0301,-4.0301,-4.0301,-4.0301,-4.0301,-4.0301,-4.0301,-4.0301,-4.0301,-4.0301,-4.0301,-4.0301,-4.0301,-4.0301,-4.0301,-4.0301,-4.0301,-4.0356,-4.0389,-4.0316,-4.0298,-4.0298,-4.0298,-4.0298,-4.0316,-4.0389,-4.0407,-4.0684,-4.2309,-4.298,-4.3463,-4.5128,-4.5731,-4.5864,-4.5919,-4.5996,-4.6115,-4.6245,-4.6298,-4.63,-4.63,-4.63,-4.63,-4.63,-4.63,-4.63,-4.63,-4.63,-4.63,-4.63,-4.63,-4.63,-4.63,-4.63,-4.63,-4.63,-4.63,-4.63,-4.63,-4.63,-4.5636,-4.3997,-4.3764,-4.2983,-4.1343,-4.1148,-4.1109,-4.1109,-4.1109,-4.1109,-4.1109,-4.1109,-4.1109,-4.1109,-4.1115,-4.1082,-4.1087,-4.1087,-4.1089,-2.6595,-2.6692,-2.6605,-2.5546,0.0,0.0,0.0,-2.5748,0.0,0.0,0.0,0.0,0.0,0.0,0.0,0.0,0.0,0.0,0.0,0.0,0.0,0.0,0.0,0.0,0.0,-3.9881,-4.0301,-4.0301,-4.0301,-4.0301,-4.0301,-4.0301,-4.0301,-4.0301,-4.0301,-4.0301,-4.0301,-4.0301,-4.0301,-4.0301,-4.0301,-4.0301,-4.0301,-4.0301,-4.0301,-4.0301,-4.0301,-4.0301,-4.0301,-4.0301,-4.031,-4.0329,-4.032,-4.0281,-4.0281,-4.0281,-4.0309,-4.0307,-4.0316,-4.0342,-4.056,-4.1613,-4.2415,-4.3175,-4.4322,-4.516,-4.5757,-4.5886,-4.5996,-4.6102,-4.6118,-4.6233,-4.63,-4.63,-4.63,-4.63,-4.63,-4.63,-4.63,-4.63,-4.63,-4.63,-4.63,-4.63,-4.63,-4.63,-4.63,-4.63,-4.63,-4.63,-4.63,-4.63,-4.63,-4.587,-4.4816,-4.4114,-4.3255,-4.2201,-4.1498,-4.1109,-4.1109,-4.1109,-4.1109,-4.1109,-4.1109,-4.1109,-4.1109,-4.1111,-4.1115,-4.1081,-4.1081,-4.1084,-2.7858,-2.7531,-2.7431,-2.6989,0.0,0.0,0.0,0.0,0.0,0.0,0.0,0.0,0.0,0.0,0.0,0.0,0.0,0.0,0.0,0.0,0.0,0.0,0.0,0.0,0.0,-3.8744,-3.9011,-3.9011,-3.9011,-3.9202,-3.9623,-3.9661,-3.9843,-4.0301,-4.0301,-4.0301,-4.0301,-4.0301,-4.0301,-4.0301,-4.0301,-4.0301,-4.0301,-4.0301,-4.0301,-4.0301,-4.0301,-4.0301,-4.0301,-4.0301,-4.0301,-4.0301,-4.0301,-4.0301,-4.0301,-4.0301,-4.0281,-4.0309,-4.0309,-4.0318,-4.0498,-4.1377,-4.219,-4.3023,-4.4008,-4.4889,-4.5478,-4.5215,-4.5508,-4.5924,-4.6013,-4.6105,-4.6223,-4.6243,-4.6288,-4.6294,-4.63,-4.63,-4.63,-4.63,-4.63,-4.63,-4.63,-4.63,-4.63,-4.63,-4.63,-4.63,-4.63,-4.63,-4.6144,-4.5714,-4.5636,-4.5129,-4.3801,-4.3294,-4.2669,-4.181,-4.1343,-4.1109,-4.1109,-4.1109,-4.1109,-4.1109,-4.1109,-4.1109,-4.1109,-4.1109,-4.1111,-4.1114,-4.1114,-4.1117,0.0,0.0,0.0,0.0,0.0,-2.7335,0.0,0.0,0.0,-2.6911,0.0,0.0,0.0,0.0,0.0,0.0,0.0,0.0,0.0,0.0,0.0,0.0,0.0,0.0,0.0,-3.6986,-3.7177,-3.7674,-3.7254,-3.7483,-3.8706,-3.8744,-3.9164,-4.0034,-4.0034,-4.011,-4.0301,-4.0301,-4.0301,-4.0301,-4.0301,-4.0301,-4.0301,-4.0301,-4.0301,-4.0301,-4.0301,-4.0301,-4.0301,-4.0301,-4.0301,-4.0301,-4.0301,-4.0301,-4.0301,-4.0301,-4.0301,-4.0301,-4.0301,-4.0301,-4.0425,-4.1131,-4.2029,-4.2958,-4.3915,-4.4739,-4.5294,-4.4754,-4.5132,-4.5708,-4.5897,-4.5983,-4.6072,-4.6161,-4.6226,-4.6282,-4.6294,-4.6298,-4.6298,-4.63,-4.63,-4.63,-4.63,-4.63,-4.63,-4.63,-4.63,-4.63,-4.63,-4.63,-4.6027,-4.5324,-4.5088,-4.4348,-4.2786,-4.2513,-4.2045,-4.1148,-4.1109,-4.1109,-4.1109,-4.1109,-4.1109,-4.1109,-4.1109,-4.1109,-4.1109,-4.1109,-4.1109,-4.1109,-4.1109,-4.1112,0.0,0.0,0.0,0.0,-2.987,0.0,0.0,0.0,-2.6868,-2.5653,0.0,0.0,0.0,0.0,0.0,0.0,0.0,0.0,0.0,0.0,0.0,0.0,0.0,0.0,0.0,0.0,-3.5351,-3.7521,-3.5649,-3.5428,-3.7712,-3.7865,-3.8247,-3.9126,-3.9164,-3.9508,-4.0301,-4.0301,-4.0301,-4.0301,-4.0301,-4.0301,-4.0301,-4.0301,-4.0301,-4.0301,-4.0301,-4.0301,-4.0301,-4.0301,-4.0301,-4.0301,-4.0301,-4.0301,-4.0301,-4.0301,-4.0301,-4.0301,-4.0301,-4.0301,-4.0301,-4.0425,-4.1495,-4.2948,-4.3829,-4.471,-4.5371,-4.5323,-4.5458,-4.5619,-4.5657,-4.5834,-4.6017,-4.6009,-4.6137,-4.6217,-4.6282,-4.6286,-4.629,-4.6298,-4.63,-4.63,-4.63,-4.63,-4.63,-4.63,-4.63,-4.63,-4.63,-4.63,-4.6261,-4.6144,-4.5441,-4.4621,-4.3645,-4.2825,-4.2045,-4.1148,-4.1109,-4.1109,-4.1109,-4.1109,-4.1109,-4.1109,-4.1109,-4.1109,-4.1109,-4.1109,-4.1109,-4.1109,-4.1109,-4.1109,0.0,0.0,0.0,0.0,0.0,0.0,-2.694,0.0,-2.5939,0.0,0.0,0.0,0.0,0.0,0.0,0.0,0.0,0.0,0.0,0.0,0.0,0.0,0.0,0.0,0.0,0.0,0.0,0.0,-3.3356,-3.3586,-3.6107,-3.6719,-3.7636,-3.8973,-3.9011,-3.9431,-4.0301,-4.0301,-4.0301,-4.0301,-4.0301,-4.0301,-4.0301,-4.0301,-4.0301,-4.0301,-4.0301,-4.0301,-4.0301,-4.0301,-4.0301,-4.0301,-4.0301,-4.0301,-4.0301,-4.0301,-4.0301,-4.0301,-4.0301,-4.0301,-4.0377,-4.0845,-4.182,-4.2862,-4.3244,-4.4296,-4.5245,-4.4777,-4.5036,-4.5512,-4.559,-4.5681,-4.5764,-4.584,-4.5897,-4.5998,-4.6111,-4.6134,-4.6157,-4.6236,-4.6226,-4.622,-4.6296,-4.63,-4.63,-4.63,-4.63,-4.63,-4.63,-4.63,-4.6105,-4.5597,-4.5207,-4.466,-4.3762,-4.2903,-4.224,-4.1888,-4.1382,-4.1109,-4.1109,-4.1109,-4.1109,-4.1109,-4.1109,-4.1109,-4.1109,-4.1109,-4.1109,-4.1109,-4.1109,-4.1109,-3.2969,0.0,0.0,0.0,0.0,0.0,0.0,0.0,0.0,0.0,0.0,0.0,0.0,0.0,0.0,0.0,0.0,0.0,0.0,0.0,0.0,0.0,0.0,0.0,0.0,0.0,0.0,0.0,0.0,-3.1713,-3.4694,-3.5458,-3.6557,-3.8247,-3.8514,-3.9049,-3.9919,-4.0186,-4.0301,-4.0301,-4.0301,-4.0301,-4.0301,-4.0301,-4.0301,-4.0301,-4.0301,-4.0301,-4.0301,-4.0301,-4.0301,-4.0301,-4.0301,-4.0301,-4.0301,-4.0301,-4.0301,-4.0301,-4.0301,-4.0301,-4.0416,-4.1227,-4.2106,-4.2832,-4.3061,-4.4131,-4.5173,-4.4602,-4.488,-4.5408,-4.5486,-4.5568,-4.5577,-4.5642,-4.5708,-4.5783,-4.5936,-4.5949,-4.6005,-4.6112,-4.6141,-4.6137,-4.6226,-4.624,-4.6247,-4.6294,-4.6298,-4.63,-4.6296,-4.6298,-4.6066,-4.5402,-4.5129,-4.4738,-4.4114,-4.3255,-4.2669,-4.2435,-4.1576,-4.1109,-4.1109,-4.1109,-4.1109,-4.1109,-4.1109,-4.1109,-4.1109,-4.1109,-4.1109,-4.1109,-4.1109,-4.1109,0.0,0.0,0.0,-3.0002,0.0,0.0,0.0,0.0,-2.7855,0.0,0.0,0.0,0.0,0.0,0.0,0.0,0.0,0.0,0.0,0.0,0.0,0.0,0.0,0.0,0.0,0.0,0.0,0.0,0.0,0.0,-3.3823,-3.4052,-3.4846,-3.6519,-3.733,-3.8171,-3.9049,-3.9881,-4.0301,-4.0301,-4.0301,-4.0301,-4.0301,-4.0301,-4.0301,-4.0301,-4.0301,-4.0301,-4.0301,-4.0301,-4.0301,-4.0301,-4.0301,-4.0301,-4.0301,-4.0301,-4.0301,-4.0301,-4.0301,-4.0301,-4.0416,-4.1227,-4.2106,-4.2947,-4.3739,-4.459,-4.5288,-4.5288,-4.5288,-4.5288,-4.5288,-4.5409,-4.5503,-4.5509,-4.5626,-4.5733,-4.577,-4.5863,-4.5901,-4.5992,-4.6115,-4.6165,-4.6013,-4.608,-4.6161,-4.6279,-4.6294,-4.6296,-4.6286,-4.6294,-4.63,-4.6261,-4.5519,-4.4971,-4.4971,-4.4153,-4.3294,-4.2435,-4.1576,-4.1109,-4.1109,-4.1109,-4.1109,-4.1109,-4.1109,-4.1109,-4.1109,-4.1109,-4.1109,-4.1109,-4.1109,-4.1109,0.0,0.0,-3.5869,-3.2019,0.0,0.0,0.0,0.0,0.0,0.0,0.0,0.0,0.0,0.0,0.0,0.0,0.0,0.0,0.0,0.0,0.0,0.0,0.0,0.0,0.0,0.0,0.0,0.0,-2.8198,0.0,0.0,-3.3356,-3.4503,-3.5602,-3.6986,-3.8132,-3.8973,-3.9843,-4.0301,-4.0301,-4.0301,-4.0301,-4.0301,-4.0301,-4.0301,-4.0301,-4.0301,-4.0301,-4.0301,-4.0301,-4.0301,-4.0301,-4.0301,-4.0301,-4.0301,-4.0301,-4.0301,-4.0301,-4.0301,-4.0301,-4.0416,-4.1227,-4.2106,-4.2947,-4.3739,-4.4628,-4.5288,-4.5288,-4.5288,-4.5288,-4.5288,-4.5329,-4.537,-4.539,-4.539,-4.5466,-4.5599,-4.5603,-4.5648,-4.577,-4.5891,-4.5908,-4.5892,-4.5892,-4.5968,-4.6099,-4.6087,-4.6115,-4.6231,-4.6284,-4.6292,-4.63,-4.6027,-4.587,-4.587,-4.5051,-4.3957,-4.2474,-4.2123,-4.1693,-4.1109,-4.1109,-4.1109,-4.1109,-4.1109,-4.1109,-4.1109,-4.1109,-4.1109,-4.1109,-4.1109,-4.1109,-3.629,-3.6708,0.0,-3.3401,-3.2443,0.0,-2.8061,0.0,0.0,0.0,0.0,0.0,0.0,0.0,0.0,0.0,0.0,0.0,0.0,0.0,0.0,0.0,0.0,0.0,0.0,0.0,-2.5109,-2.709,-2.6975,0.0,0.0,0.0,-3.3929,-3.4732,-3.6413,-3.7674,-3.8514,-3.9393,-3.9995,-4.0301,-4.0301,-4.0301,-4.0301,-4.0301,-4.0301,-4.0301,-4.0301,-4.0301,-4.0301,-4.0301,-4.0301,-4.0301,-4.0301,-4.0301,-4.0301,-4.0301,-4.0301,-4.0301,-4.0301,-4.0492,-4.0845,-4.1686,-4.2526,-4.3367,-4.4208,-4.4857,-4.5288,-4.5288,-4.5288,-4.5288,-4.5288,-4.5288,-4.5288,-4.5288,-4.5288,-4.5309,-4.5419,-4.5466,-4.5526,-4.5619,-4.5703,-4.5733,-4.5715,-4.5687,-4.5761,-4.5919,-4.5929,-4.5964,-4.6056,-4.6141,-4.6209,-4.6189,-4.6243,-4.6253,-4.63,-4.5519,-4.4502,-4.3411,-4.2747,-4.2162,-4.1576,-4.1265,-4.1109,-4.1109,-4.1109,-4.1109,-4.1109,-4.1109,-4.1109,-4.1109,-4.1109,-4.1109]},{"header":{"parameterUnit":"m.s-1","parameterCategory":1,"la1":30.6,"la2":29.2853,"lo1":-89.7004,"lo2":-87.6739,"dy":0.0162,"dx":0.0183,"nx":112,"ny":82,"refTime":"2026-04-15T00:00:00:Z","depth":0,"parameterNumber":3,"parameterNumberName":"V-component_of_WINDS"},"data":[0.0,0.0,0.0,0.0,0.0,0.0,0.0,0.0,0.0,0.0,0.0,0.0,0.0,0.0,0.0,0.0,0.0,0.0,0.0,0.0,0.0,0.0,0.0,0.0,0.0,0.0,0.0,0.0,0.0,0.0,0.0,0.0,0.0,0.0,0.0,0.0,0.0,0.0,0.0,0.0,0.0,0.0,0.0,0.0,0.0,0.0,0.0,0.0,0.0,0.0,0.0,0.0,0.0,0.0,0.0,0.0,0.0,0.0,0.0,0.0,0.0,0.0,0.0,0.0,0.0,0.0,0.0,0.0,0.0,0.0,0.0,0.0,0.0,0.0,0.0,0.0,0.0,0.0,0.0,0.0,0.0,0.0,0.0,0.0,0.0,0.0,0.0,0.0,0.0,0.0,0.0,-0.8152,-0.8987,-0.942,-0.921,-0.9303,-0.8854,-0.7696,0.0,0.0,0.0,0.0,0.0,0.0,0.0,0.0,0.0,0.0,0.0,0.0,0.0,0.0,0.0,0.0,0.0,0.0,0.0,0.0,0.0,0.0,0.0,0.0,0.0,0.0,0.0,0.0,0.0,0.0,0.0,0.0,0.0,0.0,0.0,0.0,0.0,0.0,0.0,0.0,0.0,0.0,0.0,0.0,0.0,0.0,0.0,0.0,0.0,0.0,0.0,0.0,0.0,0.0,0.0,0.0,0.0,0.0,0.0,0.0,0.0,0.0,0.0,0.0,0.0,0.0,0.0,0.0,0.0,0.0,0.0,0.0,0.0,0.0,0.0,0.0,0.0,0.0,0.0,0.0,0.0,0.0,0.0,0.0,0.0,0.0,0.0,0.0,0.0,0.0,0.0,0.0,0.0,0.0,0.0,0.0,0.0,0.0,0.0,0.0,0.0,0.0,0.0,0.0,-0.6863,-0.8664,-0.9235,-0.9556,-0.9679,-0.9352,-0.8869,-0.8213,0.0,0.0,0.0,0.0,0.0,0.0,0.0,0.0,0.0,0.0,0.0,0.0,0.0,0.0,0.0,0.0,0.0,0.0,0.0,0.0,0.0,0.0,0.0,0.0,0.0,0.0,0.0,0.0,0.0,0.0,0.0,0.0,0.0,0.0,0.0,0.0,0.0,0.0,0.0,0.0,0.0,0.0,0.0,0.0,0.0,0.0,0.0,0.0,0.0,0.0,0.0,0.0,0.0,0.0,0.0,0.0,0.0,0.0,0.0,0.0,0.0,0.0,0.0,0.0,0.0,0.0,0.0,0.0,0.0,0.0,0.0,0.0,0.0,0.0,0.0,0.0,0.0,0.0,0.0,0.0,0.0,0.0,0.0,0.0,0.0,0.0,0.0,0.0,0.0,0.0,0.0,0.0,0.0,0.0,0.0,0.0,0.0,0.0,0.0,0.0,0.0,0.0,0.0,-0.6916,-0.7644,-0.9259,-0.9466,-0.952,-0.9581,-0.9291,-0.8815,-0.8125,-0.7351,0.0,0.0,0.0,0.0,0.0,0.0,0.0,0.0,0.0,0.0,0.0,0.0,0.0,0.0,0.0,0.0,0.0,0.0,0.0,0.0,0.0,0.0,0.0,0.0,0.0,0.0,0.0,0.0,0.0,0.0,0.0,0.0,0.0,0.0,0.0,0.0,0.0,0.0,0.0,0.0,0.0,0.0,0.0,0.0,0.0,0.0,0.0,0.0,0.0,0.0,0.0,0.0,0.0,0.0,0.0,0.0,0.0,0.0,0.0,0.0,0.0,0.0,0.0,0.0,0.0,0.0,0.0,0.0,0.0,0.0,0.0,0.0,0.0,0.0,0.0,0.0,0.0,0.0,0.0,0.0,0.0,0.0,0.0,0.0,0.0,0.0,0.0,0.0,0.0,0.0,0.0,0.0,0.0,0.0,0.0,0.0,0.0,0.0,0.0,0.0,0.0,0.0,-0.7889,-0.8502,-0.9606,-0.9576,-0.9495,-0.9494,-0.9205,-0.8718,-0.8037,-0.6981,0.0,0.0,0.0,0.0,0.0,0.0,0.0,0.0,0.0,0.0,0.0,0.0,0.0,0.0,0.0,0.0,0.0,0.0,0.0,0.0,0.0,0.0,0.0,0.0,0.0,0.0,0.0,0.0,0.0,0.0,0.0,0.0,0.0,0.0,0.0,0.0,0.0,0.0,0.0,0.0,0.0,0.0,0.0,0.0,0.0,0.0,0.0,0.0,0.0,0.0,0.0,0.0,0.0,0.0,0.0,0.0,0.0,0.0,0.0,0.0,0.0,0.0,0.0,0.0,0.0,0.0,0.0,0.0,0.0,0.0,0.0,0.0,0.0,0.0,0.0,0.0,0.0,0.0,0.0,0.0,0.0,0.0,0.0,0.0,0.0,0.0,0.0,0.0,0.0,0.0,0.0,0.0,0.0,0.0,0.0,0.0,0.0,0.0,0.0,0.0,0.0,0.0,-0.7919,-0.8829,-0.937,-0.9486,-0.9568,-0.9748,-0.9144,-0.8608,-0.8289,-0.6687,0.0,0.0,0.0,0.0,0.0,0.0,0.0,0.0,0.0,0.0,0.0,0.0,0.0,0.0,0.0,0.0,0.0,0.0,0.0,0.0,0.0,0.0,0.0,0.0,0.0,0.0,0.0,0.0,0.0,0.0,0.0,0.0,0.0,0.0,0.0,0.0,0.0,0.0,0.0,0.0,0.0,0.0,0.0,0.0,0.0,0.0,0.0,0.0,0.0,0.0,0.0,0.0,0.0,0.0,0.0,0.0,0.0,0.0,0.0,0.0,0.0,0.0,0.0,0.0,0.0,0.0,0.0,0.0,0.0,0.0,0.0,0.0,0.0,0.0,0.0,0.0,0.0,0.0,0.0,0.0,0.0,0.0,0.0,0.0,0.0,0.0,0.0,0.0,0.0,0.0,0.0,0.0,0.0,0.0,0.0,0.0,0.0,0.0,0.0,0.0,0.0,0.0,-0.7834,-0.8575,0.0,-0.9551,-0.958,-0.9772,-0.9291,-0.8664,-0.7957,0.0,0.0,0.0,0.0,0.0,0.0,0.0,0.0,0.0,0.0,0.0,0.0,0.0,0.0,0.0,0.0,0.0,0.0,0.0,0.0,0.0,0.0,0.0,0.0,0.0,0.0,0.0,0.0,0.0,0.0,0.0,0.0,0.0,0.0,0.0,0.0,0.0,0.0,0.0,0.0,0.0,0.0,0.0,0.0,0.0,0.0,0.0,0.0,0.0,0.0,0.0,0.0,0.0,0.0,0.0,0.0,0.0,0.0,0.0,0.0,0.0,0.0,0.0,0.0,0.0,0.0,0.0,0.0,0.0,0.0,0.0,0.0,0.0,0.0,0.0,0.0,0.0,0.0,0.0,0.0,0.0,0.0,0.0,0.0,0.0,0.0,0.0,0.0,0.0,0.0,0.0,0.0,0.0,0.0,0.0,0.0,0.0,0.0,0.0,0.0,0.0,0.0,-0.7291,-0.7882,-0.8546,0.0,-0.958,-0.9512,-0.9586,-0.912,-0.849,-0.7622,0.0,0.0,0.0,0.0,0.0,0.0,0.0,0.0,0.0,0.0,0.0,0.0,0.0,0.0,0.0,0.0,0.0,0.0,0.0,0.0,0.0,0.0,0.0,0.0,0.0,0.0,0.0,0.0,0.0,0.0,0.0,0.0,0.0,0.0,0.0,0.0,0.0,0.0,0.0,0.0,0.0,0.0,0.0,0.0,0.0,0.0,0.0,0.0,0.0,0.0,0.0,0.0,0.0,0.0,0.0,0.0,0.0,0.0,0.0,0.0,0.0,0.0,0.0,0.0,0.0,0.0,0.0,0.0,0.0,0.0,0.0,0.0,0.0,0.0,0.0,0.0,0.0,0.0,0.0,0.0,0.0,0.0,0.0,0.0,0.0,0.0,0.0,0.0,0.0,0.0,0.0,0.0,0.0,0.0,0.0,0.0,0.0,0.0,0.0,0.0,0.0,0.0,-0.7109,-0.8088,-0.8915,-0.9456,-0.9516,-0.9408,-0.9119,-0.8614,-0.8003,0.0,0.0,0.0,0.0,0.0,0.0,0.0,0.0,0.0,0.0,0.0,0.0,0.0,0.0,0.0,0.0,0.0,0.0,0.0,0.0,0.0,0.0,0.0,0.0,0.0,0.0,0.0,0.0,0.0,0.0,0.0,0.0,0.0,0.0,0.0,0.0,0.0,0.0,0.0,0.0,0.0,0.0,0.0,0.0,0.0,0.0,0.0,0.0,0.0,0.0,0.0,0.0,0.0,0.0,0.0,0.0,0.0,0.0,0.0,0.0,0.0,0.0,0.0,0.0,0.0,0.0,0.0,0.0,0.0,0.0,0.0,0.0,0.0,0.0,0.0,0.0,0.0,0.0,0.0,0.0,0.0,0.0,0.0,0.0,0.0,0.0,0.0,0.0,0.0,0.0,0.0,0.0,0.0,0.0,0.0,0.0,0.0,0.0,0.0,0.0,0.0,0.0,0.0,-0.7519,-0.8289,-0.8915,-0.9456,-0.9516,-0.9408,-0.9119,-0.8614,-0.7904,-0.7011,0.0,0.0,0.0,0.0,0.0,0.0,0.0,0.0,0.0,0.0,0.0,0.0,0.0,0.0,0.0,0.0,0.0,0.0,0.0,0.0,0.0,0.0,0.0,0.0,0.0,0.0,0.0,0.0,0.0,0.0,0.0,0.0,0.0,0.0,0.0,0.0,0.0,0.0,0.0,0.0,0.0,0.0,0.0,0.0,0.0,0.0,0.0,0.0,0.0,0.0,0.0,0.0,0.0,0.0,0.0,0.0,0.0,0.0,0.0,0.0,0.0,0.0,0.0,0.0,0.0,0.0,0.0,0.0,0.0,0.0,0.0,0.0,0.0,0.0,0.0,0.0,0.0,0.0,0.0,0.0,0.0,0.0,0.0,0.0,0.0,0.0,0.0,0.0,0.0,0.0,0.0,0.0,0.0,0.0,0.0,0.0,0.0,0.0,0.0,0.0,0.0,0.0,-0.7605,-0.8313,-0.8915,-0.9456,-0.9516,-0.936,-0.8975,-0.8554,-0.782,-0.6698,0.0,0.0,0.0,0.0,0.0,0.0,0.0,0.0,0.0,0.0,0.0,0.0,0.0,0.0,0.0,0.0,0.0,0.0,0.0,0.0,0.0,0.0,0.0,0.0,0.0,0.0,0.0,0.0,0.0,0.0,0.0,0.0,0.0,0.0,0.0,0.0,0.0,0.0,0.0,0.0,0.0,0.0,0.0,0.0,0.0,0.0,0.0,0.0,0.0,0.0,0.0,0.0,0.0,0.0,0.0,0.0,0.0,0.0,0.0,0.0,0.0,0.0,0.0,0.0,0.0,0.0,0.0,0.0,0.0,0.0,0.0,0.0,0.0,0.0,0.0,0.0,0.0,0.0,0.0,0.0,0.0,0.0,0.0,0.0,0.0,0.0,0.0,0.0,0.0,0.0,0.0,0.0,0.0,0.0,0.0,0.0,0.0,0.0,0.0,0.0,0.0,0.0,-0.7461,-0.8257,-0.8915,-0.9456,-0.9492,-0.9263,-0.8758,-0.8445,-0.7736,-0.6504,0.0,0.0,0.0,0.0,0.0,0.0,0.0,0.0,0.0,0.0,0.0,0.0,0.0,0.0,0.0,0.0,0.0,0.0,0.0,0.0,0.0,0.0,0.0,0.0,0.0,0.0,0.0,0.0,0.0,0.0,0.0,0.0,0.0,0.0,0.0,0.0,0.0,0.0,0.0,0.0,0.0,0.0,0.0,0.0,0.0,0.0,0.0,0.0,0.0,0.0,0.0,0.0,0.0,0.0,0.0,0.0,0.0,0.0,0.0,0.0,-0.3583,0.0,0.0,0.0,0.0,0.0,0.0,0.0,0.0,0.0,0.0,0.0,0.0,0.0,0.0,0.0,0.0,0.0,0.0,0.0,0.0,0.0,0.0,0.0,0.0,0.0,0.0,0.0,0.0,0.0,0.0,0.0,0.0,0.0,0.0,0.0,0.0,0.0,0.0,0.0,0.0,0.0,-0.7663,-0.8349,-0.8915,-0.9456,-0.9324,-0.9059,-0.8734,-0.8249,-0.7627,-0.6758,-0.5967,0.0,0.0,0.0,0.0,0.0,0.0,0.0,0.0,0.0,0.0,0.0,0.0,0.0,0.0,0.0,0.0,0.0,0.0,0.0,0.0,0.0,0.0,0.0,0.0,0.0,0.0,0.0,0.0,0.0,0.0,0.0,0.0,0.0,0.0,0.0,0.0,0.0,0.0,0.0,0.0,0.0,0.0,0.0,0.0,0.0,0.0,0.0,0.0,0.0,0.0,0.0,0.0,0.0,0.0,0.0,0.0,0.0,0.0,0.0,0.0,-0.3898,0.0,0.0,0.0,0.0,0.0,0.0,0.0,0.0,0.0,0.0,0.0,0.0,0.0,0.0,0.0,0.0,0.0,0.0,0.0,0.0,0.0,0.0,0.0,0.0,0.0,0.0,0.0,0.0,0.0,0.0,0.0,0.0,0.0,0.0,0.0,0.0,0.0,0.0,0.0,0.0,-0.7733,-0.8357,-0.8915,-0.9456,-0.9263,-0.8987,-0.8734,-0.8201,-0.7591,-0.6831,-0.6161,0.0,0.0,0.0,0.0,0.0,0.0,0.0,0.0,0.0,0.0,0.0,0.0,0.0,0.0,0.0,0.0,0.0,0.0,0.0,0.0,0.0,0.0,0.0,0.0,0.0,0.0,0.0,0.0,0.0,0.0,0.0,0.0,0.0,0.0,0.0,0.0,0.0,0.0,0.0,0.0,0.0,0.0,0.0,0.0,0.0,0.0,0.0,0.0,0.0,0.0,0.0,0.0,0.0,-0.5087,-0.5181,-0.5143,-0.5159,-0.517,-0.5148,-0.4751,-0.4621,-0.469,-0.4235,0.0,0.0,0.0,0.0,0.0,0.0,0.0,0.0,0.0,0.0,0.0,0.0,0.0,0.0,0.0,0.0,0.0,0.0,0.0,0.0,0.0,0.0,0.0,0.0,-0.4604,-0.4592,0.0,0.0,0.0,0.0,0.0,0.0,0.0,0.0,0.0,0.0,0.0,0.0,-0.7655,-0.8329,-0.8915,-0.9456,-0.9227,-0.8939,-0.8722,-0.8201,-0.7627,-0.6987,-0.6441,-0.5821,0.0,0.0,0.0,0.0,0.0,0.0,0.0,0.0,0.0,0.0,0.0,0.0,0.0,0.0,0.0,0.0,0.0,0.0,0.0,0.0,0.0,0.0,0.0,0.0,0.0,0.0,0.0,0.0,0.0,0.0,0.0,0.0,0.0802,0.0867,0.0,0.0,0.0,0.0,0.0,0.0,0.0,0.0,0.0,0.0,0.0,0.0,0.0,-0.4151,-0.5143,-0.5342,-0.5416,-0.5416,-0.579,-0.5839,-0.5599,-0.5741,-0.5784,-0.5784,-0.5719,0.0,-0.4758,-0.4662,0.0,0.0,0.0,0.0,0.0,0.0,0.0,0.0,0.0,0.0,0.0,0.0,0.0,0.0,0.0,0.0,0.0,0.0,0.0,0.0,0.0,0.0,-0.4731,-0.4945,-0.5159,-0.5201,0.0,-0.4308,-0.3944,-0.3863,-0.3488,0.0,0.0,0.0,0.0,0.0,0.0,0.0,-0.7321,-0.8147,-0.8915,-0.9456,-0.9059,-0.8746,-0.871,-0.8201,-0.7784,-0.751,-0.7,-0.655,-0.6201,-0.5293,0.0,0.0,0.0,0.0,0.0,0.0,0.0,0.0,0.0,0.0,0.0,0.0,0.0,0.0,0.0,0.0,0.0,0.0,0.0,0.0,0.0,0.0,0.0,0.0,0.0,0.0,0.0,0.0,0.0,0.0783,0.0865,0.0891,0.0927,0.0835,0.0,0.0,0.0,0.0,0.0,0.0,0.0,0.0,0.0,-0.4398,-0.4555,-0.5009,-0.5768,-0.5947,-0.604,-0.6004,-0.6208,-0.623,-0.6079,-0.6116,-0.6111,-0.6105,-0.6034,-0.5828,-0.5513,-0.5232,-0.4958,-0.4692,0.0,0.0,0.0,0.0,-0.435,-0.4328,-0.455,-0.4561,0.0,-0.4339,0.0,0.0,0.0,0.0,0.0,0.0,0.0,0.0,0.0,0.0,-0.5024,-0.5278,-0.5471,-0.5569,-0.544,-0.5148,-0.4755,0.0,-0.4151,-0.416,-0.4143,0.0,0.0,0.0,0.0,0.0,-0.7749,-0.8486,-0.9071,-0.9468,-0.9155,-0.8866,-0.8722,-0.8333,-0.7964,-0.7619,-0.7243,-0.6842,-0.6407,-0.5809,-0.5262,0.0,0.0,0.0,0.0,0.0,0.0,0.0,0.0,0.0,0.0,0.0,0.0,0.0,0.0,0.0,0.0,0.0,0.0,0.0,0.0,0.0,0.0,0.0,0.0,0.0,0.0,0.0,0.0,0.0732,0.0674,0.074,0.0767,0.0548,0.0,0.0,0.0,0.0,0.0,0.0,-0.3353,-0.3641,-0.4265,-0.531,-0.5476,-0.5774,-0.6268,-0.6361,-0.6448,-0.6478,-0.6478,-0.6478,-0.6473,-0.641,-0.6361,-0.635,-0.623,-0.6176,-0.6138,-0.5659,-0.5388,-0.5246,-0.4958,-0.481,-0.4799,-0.4882,-0.4887,-0.4914,-0.5177,-0.5175,-0.5078,-0.4936,-0.481,-0.4668,-0.424,0.0,0.0,0.0,0.0,-0.4328,-0.4856,-0.5098,-0.527,-0.5633,-0.5812,-0.5908,-0.5867,-0.5779,-0.5481,0.0,-0.4784,-0.4875,-0.4547,0.0,0.0,0.0,0.0,-0.7117,-0.7869,-0.8628,-0.9141,-0.9224,-0.917,-0.8987,-0.8734,-0.8469,-0.8121,-0.7703,-0.7388,-0.7024,-0.6635,-0.621,-0.5687,-0.5019,0.0,0.0,0.0,0.0,0.0,0.0,0.0,0.0,0.0,0.0,0.0,0.0,0.0,0.0,0.0,0.0,0.0,0.0,0.0,0.0,0.0,0.0,0.0,0.0,0.0,0.0,0.0,0.0,0.0,0.0312,0.0218,0.0,0.0,0.0,0.0,-0.209,-0.2859,-0.3737,-0.4652,-0.4849,-0.5364,-0.6278,-0.6462,-0.6586,-0.6763,-0.6774,-0.6779,-0.6785,-0.6785,-0.6785,-0.6779,-0.666,-0.66,-0.6594,-0.6419,-0.6371,-0.6333,-0.5864,-0.5599,-0.5464,-0.5257,-0.5094,-0.5012,-0.5127,-0.5241,-0.5375,-0.5396,-0.5396,-0.5391,-0.538,-0.5105,-0.4785,-0.4758,-0.4515,0.0,0.0,-0.4482,-0.4647,-0.5304,-0.5489,-0.5601,-0.6123,-0.6279,-0.6238,-0.6051,-0.5973,-0.5878,0.0,-0.5182,-0.5035,-0.5441,0.0,-0.5404,-0.6062,-0.6801,-0.7216,-0.7072,-0.8251,-0.8943,-0.8592,-0.8877,-0.8987,-0.8734,-0.8469,-0.8177,-0.7901,-0.7448,-0.7194,-0.7158,-0.6404,-0.5857,-0.5566,-0.5067,0.0,0.0,0.0,0.0,0.0,0.0,0.0,0.0,0.0,0.0,0.0,0.0,0.0,0.0,0.0,0.0,0.0,0.0,0.0,0.0,0.0,0.0,0.0,0.0,0.0,0.0,0.0,0.0,0.0885,0.0484,0.0,-0.0674,-0.0975,-0.1672,-0.2992,-0.3761,-0.4422,-0.5023,-0.5517,-0.5957,-0.6412,-0.661,-0.6796,-0.6921,-0.6921,-0.6921,-0.6921,-0.6921,-0.6877,-0.6801,-0.6757,-0.6736,-0.673,-0.6605,-0.6556,-0.6529,-0.6208,-0.6051,-0.5996,-0.5828,-0.5692,-0.5594,-0.5632,-0.5627,-0.5605,-0.5605,-0.5605,-0.5589,-0.5513,-0.5344,-0.5165,-0.5083,-0.5029,-0.5018,-0.498,-0.5029,-0.5129,-0.5415,-0.5499,-0.5566,-0.5802,-0.5944,-0.6009,-0.595,-0.6058,-0.6146,-0.6081,-0.5657,-0.5317,-0.5276,-0.5211,-0.5307,-0.5746,-0.626,-0.6702,-0.7021,-0.762,-0.8142,-0.8484,-0.8633,-0.8578,-0.8203,-0.809,-0.7768,-0.7153,-0.6795,-0.6705,-0.6928,-0.6501,-0.6052,-0.5602,-0.542,-0.4922,0.0,0.0,0.0,0.0,0.0,0.0,0.0,0.0,0.0,0.0,0.0,0.0,0.0,0.0,0.0,0.0,0.0,0.0,0.0,0.0,0.0,0.0,0.0,0.0,0.0,0.0,0.036,0.1005,0.0616,-0.0045,-0.0967,-0.1216,-0.2032,-0.3675,-0.4398,-0.4934,-0.5326,-0.5813,-0.6167,-0.6491,-0.6657,-0.6851,-0.704,-0.704,-0.704,-0.704,-0.704,-0.6997,-0.6921,-0.6883,-0.6866,-0.6855,-0.6736,-0.6681,-0.6665,-0.6469,-0.6388,-0.6366,-0.6165,-0.6034,-0.5964,-0.5964,-0.5915,-0.585,-0.585,-0.5756,-0.568,-0.5637,-0.5561,-0.5415,-0.5333,-0.5339,-0.5396,-0.5314,-0.5347,-0.5432,-0.5519,-0.5549,-0.5531,-0.5647,-0.5743,-0.5828,-0.5899,-0.6022,-0.6183,-0.63,-0.5972,-0.5596,-0.5359,-0.527,-0.5364,-0.5791,-0.6106,-0.6421,-0.6803,-0.7177,-0.7512,-0.7772,-0.7999,-0.7975,-0.7549,-0.7547,-0.7258,-0.6576,-0.6397,-0.6395,-0.6614,-0.6488,-0.6198,-0.5736,-0.5553,-0.5165,-0.453,0.0,0.0,0.0,0.0,0.0,0.0,0.0,0.0,0.0,0.0,0.0,0.0,0.0,0.0,0.0,0.0,0.0,0.0,0.0,0.0,0.0,0.0,0.0,0.1205,0.0677,0.0386,0.0627,0.057,-0.0049,-0.1531,-0.1631,-0.2341,-0.4095,-0.4723,-0.5216,-0.5669,-0.5678,-0.5996,-0.6654,-0.6659,-0.6826,-0.7154,-0.721,-0.721,-0.721,-0.721,-0.721,-0.7204,-0.704,-0.6991,-0.6986,-0.6861,-0.6806,-0.6796,-0.6671,-0.6622,-0.6584,-0.6236,-0.6094,-0.6089,-0.6089,-0.6089,-0.6078,-0.6083,-0.5931,-0.5712,-0.5866,-0.5702,-0.5518,-0.5513,-0.5474,-0.5424,-0.5424,-0.5424,-0.5466,-0.5633,-0.5577,-0.556,-0.5749,-0.5692,-0.5634,-0.5828,-0.5899,-0.5983,-0.6222,-0.6017,-0.5806,-0.58,-0.5597,-0.5631,-0.6268,-0.6367,0.0,-0.6367,-0.6924,-0.7088,-0.6465,-0.699,-0.7222,-0.681,-0.6773,-0.6585,-0.6191,-0.6233,-0.6291,-0.6304,-0.6371,-0.6283,-0.6003,-0.5481,-0.5092,-0.4808,0.0,0.0,0.0,0.0,0.0,0.0,0.0,0.0,0.0,0.0,0.0,0.0,0.0,0.0,0.0,0.0,0.0,0.0,0.0,0.0,0.0,0.0,0.1264,0.1253,0.07,0.0562,0.1267,0.0813,0.0052,-0.1035,-0.1459,-0.2429,-0.4199,-0.4847,-0.5218,-0.5447,-0.5673,-0.5848,-0.6047,-0.627,-0.6548,-0.6826,-0.6826,-0.6932,-0.721,-0.721,-0.721,-0.721,-0.7177,-0.7161,-0.7155,-0.6986,-0.6937,-0.6921,-0.6709,-0.6622,-0.66,-0.6415,-0.629,-0.6268,-0.6268,-0.6105,-0.5964,-0.6056,-0.5986,-0.586,-0.5893,-0.586,-0.579,-0.5664,-0.5615,-0.5632,-0.5632,-0.5632,-0.561,-0.5566,-0.5499,-0.5424,-0.537,-0.5371,-0.5401,-0.5434,-0.5705,-0.5938,-0.5983,-0.5985,-0.5928,-0.582,-0.5732,-0.5672,-0.5685,-0.569,0.0,-0.569,-0.5822,-0.6079,-0.6367,-0.6564,-0.6542,-0.6237,-0.6233,-0.5891,-0.5166,-0.5453,-0.5794,-0.615,-0.63,-0.6283,-0.6003,-0.5663,-0.5359,0.0,0.0,0.0,0.0,0.0,0.0,0.0,0.0,0.0,0.0,0.0,0.0,0.0,0.0,0.0,0.0,0.0,0.0,0.0,0.0,0.0,0.0,0.1307,0.1397,0.1408,0.1093,0.1044,0.1611,0.1329,0.054,-0.0761,-0.1413,-0.251,-0.4306,-0.497,-0.5324,-0.5377,-0.5094,-0.4998,-0.5261,-0.4976,-0.4976,-0.537,-0.5426,-0.5518,-0.5699,-0.5699,-0.5982,-0.6427,-0.6427,-0.671,-0.7204,-0.7139,-0.7111,-0.704,-0.685,-0.6741,0.0,0.0,0.0,0.0,0.0,-0.6181,-0.6062,-0.6078,-0.6007,-0.5904,-0.5904,-0.5871,-0.5817,-0.5707,-0.5691,-0.5691,-0.5691,-0.5691,-0.5675,-0.5605,-0.5491,-0.5415,-0.529,-0.525,-0.5263,-0.529,-0.5473,-0.5667,-0.575,-0.5873,0.0,-0.5775,-0.5721,-0.5657,-0.5515,-0.5433,-0.5392,-0.5392,-0.5392,-0.5557,-0.5947,-0.598,-0.5874,-0.5639,-0.5586,0.0,0.0,0.0,-0.5447,-0.5994,-0.637,0.0,0.0,0.0,0.0,0.0,0.0,0.0,0.0,-0.5036,-0.5044,0.0,0.0,0.0,0.0,0.0,0.0,0.0,0.0,0.0,0.0,0.0,0.0,0.0,0.0,0.0,0.0,0.1436,0.1524,0.1618,0.1632,0.1662,0.1794,0.1811,0.1106,-0.0562,-0.1351,-0.2421,-0.3999,-0.4789,-0.5125,-0.5002,0.0,0.0,0.0,0.0,-0.2915,-0.3488,-0.3545,-0.3578,-0.358,-0.358,-0.4139,-0.5202,-0.5202,-0.5759,-0.6816,-0.6816,-0.6877,-0.6977,-0.6866,-0.6797,-0.6757,-0.6473,-0.6387,-0.6376,-0.6323,-0.6328,-0.6306,-0.6159,0.0,0.0,-0.5926,-0.5844,-0.5707,-0.5691,-0.5691,-0.5691,-0.5691,-0.5691,-0.5691,-0.5691,-0.5599,-0.5475,-0.5398,-0.5314,-0.5194,-0.5268,-0.5285,-0.5362,-0.5518,-0.5712,-0.5822,-0.5695,-0.5676,-0.563,-0.5596,-0.5508,-0.5412,-0.5399,-0.5392,-0.5392,-0.5392,0.0,0.0,-0.511,-0.4982,-0.4863,-0.4674,-0.483,-0.5216,-0.5911,-0.6487,-0.6701,-0.6492,-0.6732,-0.6854,-0.6854,-0.7085,-0.7108,-0.691,-0.6078,-0.5847,0.0,0.0,0.0,0.0,0.0,0.0,0.0,0.0,0.0,0.0,0.0,0.0,0.0,0.0,0.0,0.1434,0.151,0.1643,0.1762,0.1778,0.1784,0.1802,0.1793,0.1368,0.0343,-0.0809,-0.1572,-0.1922,-0.2969,-0.3243,-0.2458,-0.2171,-0.2159,-0.2307,-0.2305,-0.2474,-0.2865,-0.3089,-0.3311,-0.358,0.0,0.0,-0.3971,-0.3971,-0.4083,-0.4306,-0.4306,-0.4864,-0.5755,-0.5599,-0.5993,-0.6638,-0.6441,-0.6387,-0.6381,-0.6365,-0.6344,-0.6328,-0.6344,-0.623,-0.6051,-0.6051,-0.5969,-0.5855,-0.5718,-0.5691,0.0,-0.5691,-0.5691,-0.5691,-0.5691,-0.5599,-0.5475,-0.5398,-0.5314,-0.5154,-0.5079,-0.5168,-0.5318,-0.5362,-0.5518,-0.5667,-0.5642,-0.5801,-0.5867,-0.5623,-0.5562,-0.5535,-0.5412,-0.5392,-0.5392,-0.5392,-0.5392,-0.533,-0.511,-0.5076,-0.4925,-0.4559,-0.4862,-0.542,-0.6189,-0.6542,-0.6826,-0.7025,-0.7097,-0.7121,-0.7121,-0.717,-0.717,-0.7145,-0.6896,-0.6894,0.0,0.0,0.0,0.0,0.0,0.0,0.0,0.0,0.0,0.0,0.0,0.1222,0.1245,0.0,0.1426,0.1532,0.1599,0.1665,0.1794,0.1818,0.1828,0.1828,0.18,0.1481,0.0574,-0.0231,-0.0874,-0.1293,-0.2043,-0.2258,-0.1723,-0.1139,-0.0907,-0.1077,-0.0681,-0.0681,-0.1133,-0.1303,-0.1524,-0.1791,-0.1791,-0.2127,-0.2686,-0.2686,-0.3022,-0.358,-0.358,-0.3916,-0.4526,-0.4998,-0.542,-0.586,-0.6317,-0.6441,-0.6387,-0.6387,-0.6399,-0.635,-0.635,-0.6274,-0.6159,-0.6034,-0.5953,-0.5882,-0.5723,-0.5691,-0.5691,-0.5691,-0.5691,-0.5691,-0.5691,-0.5642,-0.5567,-0.5491,-0.5366,-0.5246,-0.5127,-0.5134,-0.5168,-0.5168,-0.5323,-0.544,-0.544,-0.5656,-0.5744,-0.5568,-0.5497,-0.5432,-0.5412,-0.5392,-0.5392,-0.5392,-0.5392,-0.5365,-0.525,-0.5143,-0.4975,-0.4707,-0.5106,-0.5605,-0.6129,-0.6499,-0.6848,-0.7182,-0.7328,-0.7401,-0.7401,-0.7509,-0.7556,-0.7556,-0.7623,-0.7544,0.0,0.0,0.0,0.0,0.0,0.0,0.0,0.0,0.107,0.1132,0.1245,0.1365,0.1401,0.1466,0.1535,0.162,0.1678,0.1723,0.1809,0.1779,0.1795,0.1795,0.18,0.153,0.0804,0.0346,-0.0116,-0.0646,-0.1046,-0.121,-0.1034,-0.017,0.0226,0.0057,0.0858,0.1087,0.0572,0.0458,0.0284,0.0056,0.0,-0.0504,-0.1456,-0.1456,-0.1959,-0.291,-0.3134,-0.3245,-0.3354,-0.4684,-0.514,-0.5088,-0.6219,-0.6567,-0.6387,-0.6387,-0.6387,-0.6376,-0.6333,-0.6285,-0.6284,-0.604,-0.5942,-0.5888,-0.5795,-0.5707,-0.5691,-0.5691,-0.5691,-0.5691,-0.5691,-0.5691,-0.5659,-0.5534,-0.5458,-0.5375,-0.5214,-0.5099,-0.5018,-0.5018,-0.5129,-0.5246,-0.5246,-0.5362,-0.5466,-0.5455,-0.5387,-0.5356,-0.5346,-0.5359,-0.5392,-0.5392,-0.5392,-0.5392,-0.5392,-0.5216,-0.5049,-0.4935,-0.5262,-0.5624,-0.5934,-0.644,-0.6878,-0.7214,-0.7567,-0.7703,-0.7654,-0.7868,-0.7973,-0.7985,-0.8238,-0.811,0.1002,0.1003,0.0999,0.1048,0.1094,0.1103,0.0,0.0,0.1296,0.1339,0.143,0.1467,0.1504,0.1561,0.1622,0.1684,0.1723,0.1809,0.1786,0.1793,0.1795,0.1795,0.1819,0.1779,0.1668,0.0874,0.0705,0.1472,0.0706,0.0525,0.138,0.1549,0.1596,0.1576,0.1406,0.1294,0.1181,0.0675,0.0393,0.0336,0.0112,-0.0056,-0.0224,-0.0224,-0.028,-0.0448,-0.1512,-0.2015,-0.2183,-0.4467,-0.5251,-0.5096,-0.631,-0.6638,-0.6387,-0.6387,-0.6387,-0.6387,-0.6371,-0.635,-0.6311,-0.6284,-0.6078,-0.5899,-0.5888,-0.5812,-0.5691,-0.5691,-0.5691,-0.5691,-0.5691,-0.5691,-0.5659,-0.5534,-0.5458,-0.5375,-0.5214,-0.5099,-0.5018,-0.5018,-0.5018,-0.5018,-0.5018,-0.5057,-0.5089,-0.5231,-0.5362,-0.5396,-0.5159,-0.5292,-0.5392,-0.5392,-0.5392,-0.5392,-0.5392,-0.5216,-0.509,-0.5076,-0.5003,-0.5239,-0.5807,-0.6443,-0.6943,-0.7272,-0.79,-0.8109,-0.7853,-0.8117,-0.8249,-0.8277,-0.8718,-0.8701,0.1166,0.1141,0.0,0.0,0.1221,0.1258,0.1351,0.1376,0.1396,0.1451,0.15,0.1538,0.155,0.1615,0.1675,0.0,0.1745,0.178,0.1793,0.1779,0.1823,0.1823,0.178,0.1802,0.1779,0.1446,0.14,0.1884,0.146,0.139,0.1783,0.1824,0.1808,0.1795,0.1683,0.1522,0.1365,0.1071,0.0789,0.0455,0.0282,0.0168,0.0,0.0,0.0,-0.0056,-0.056,-0.0728,-0.0896,-0.2574,-0.3584,-0.4203,-0.5333,-0.6063,-0.6484,-0.6414,-0.6387,-0.6387,-0.6387,-0.6404,-0.6355,-0.629,-0.6149,-0.5996,-0.5926,-0.5822,-0.5691,-0.5691,-0.5691,-0.5691,-0.5691,-0.5691,-0.5675,-0.5626,-0.5507,-0.5396,-0.5347,-0.5148,-0.5018,-0.5018,-0.5018,-0.5018,-0.5018,-0.5018,-0.4975,-0.4904,-0.5159,-0.531,-0.5292,-0.5406,-0.5528,-0.5528,-0.5446,-0.5392,-0.5392,-0.5337,-0.5264,-0.5264,-0.5121,-0.5289,-0.5902,-0.6497,-0.7022,-0.7518,-0.8195,-0.8493,-0.8357,-0.8493,-0.8542,-0.8554,-0.8737,-0.8792,0.1267,0.0,0.0,0.1302,0.1307,0.1348,0.1421,0.1451,0.1482,0.1512,0.1553,0.1587,0.1645,0.165,0.1697,0.1714,0.1753,0.1786,0.1794,0.1823,0.1804,0.1804,0.1797,0.1757,0.181,0.1823,0.1836,0.1859,0.184,0.1828,0.1828,0.1806,0.1795,0.1795,0.1804,0.1704,0.1494,0.137,0.1144,0.0752,0.0512,0.0339,0.0113,0.0056,0.0,0.0,0.0,0.0,-0.0112,-0.1288,-0.2217,-0.2996,-0.4139,-0.5011,-0.563,-0.5551,-0.5907,-0.6387,-0.6387,-0.6387,-0.6371,-0.6339,-0.6236,-0.6116,-0.5991,-0.5871,-0.5729,-0.5696,-0.5691,-0.5691,-0.5691,-0.5691,-0.5691,-0.5691,-0.5572,-0.5409,-0.5418,-0.5208,-0.5056,-0.5023,-0.5018,-0.5018,-0.5018,-0.5018,-0.4936,-0.4764,-0.4978,-0.5133,-0.5232,-0.5427,-0.5542,-0.5583,-0.5487,-0.5392,-0.5392,-0.5392,-0.5392,-0.5392,-0.5257,-0.5382,-0.583,-0.6395,-0.6944,-0.7531,-0.8192,-0.8604,-0.871,-0.8782,-0.8818,-0.8818,-0.889,-0.8987,0.0,0.0,0.1307,0.1297,0.1412,0.1485,0.1515,0.1546,0.1576,0.1606,0.1614,0.1625,0.1705,0.1714,0.1735,0.1794,0.1804,0.1816,0.1791,0.1823,0.1804,0.1804,0.1723,0.1718,0.0,0.1779,0.1797,0.1798,0.1797,0.1797,0.1797,0.1795,0.1795,0.1795,0.1824,0.1782,0.1783,0.1518,0.1412,0.1354,0.0753,0.0517,0.0459,0.017,0.0,0.0,0.0,0.0,-0.0112,-0.1288,-0.1718,-0.1801,-0.2996,-0.3364,-0.3313,-0.3311,-0.4598,-0.6387,-0.6387,-0.6387,-0.6387,-0.6381,-0.6355,-0.6289,-0.6116,-0.5996,-0.5877,-0.5718,-0.5691,-0.5691,-0.5691,-0.5691,-0.5691,-0.5691,-0.5594,-0.547,-0.5393,-0.5273,-0.5148,-0.504,-0.5018,-0.5018,-0.5018,-0.5018,-0.4975,-0.491,-0.4912,-0.4891,-0.4831,-0.5166,-0.546,-0.5576,-0.5487,-0.5392,-0.5392,-0.5392,-0.5392,-0.5392,-0.5392,-0.5385,-0.5418,-0.6063,-0.6625,-0.7113,-0.7788,-0.8326,-0.871,-0.8963,-0.9083,-0.9095,-0.936,-0.9492,0.0,0.0,0.1378,0.1404,0.1504,0.1549,0.158,0.1594,0.1599,0.159,0.1587,0.1584,0.1573,0.1605,0.1645,0.1738,0.1778,0.1815,0.1791,0.1823,0.1797,0.1722,0.1711,0.0,0.0,0.0,0.0,0.1794,0.1795,0.1795,0.1795,0.1795,0.1805,0.1824,0.1778,0.1801,0.1841,0.1773,0.1658,0.1437,0.099,0.069,0.0517,0.0339,0.0168,0.0,0.0,0.0,-0.0056,-0.0448,-0.106,-0.1774,-0.2082,-0.2687,-0.3313,-0.3223,-0.3633,-0.4379,-0.5085,-0.5787,-0.6387,-0.6387,-0.6361,-0.6311,-0.6268,-0.6067,-0.5893,-0.5855,-0.579,-0.5691,-0.5691,-0.5691,-0.5691,-0.5691,-0.5594,-0.5497,-0.5454,-0.5328,-0.5175,-0.5137,-0.5067,-0.5018,-0.5018,-0.5018,-0.4936,-0.4801,-0.4798,-0.4895,-0.5049,-0.5224,-0.5397,-0.5506,-0.5534,-0.5508,-0.5405,-0.5392,-0.5392,-0.5392,-0.5392,-0.5392,-0.5392,-0.6046,-0.6465,-0.6642,-0.776,-0.8429,-0.8572,-0.9103,-0.9372,-0.9372,-0.9468,-0.9516,0.13,0.1392,0.1441,0.1523,0.1565,0.1592,0.1613,0.1609,0.1592,0.1562,0.1547,0.153,0.15,0.1478,0.1572,0.1636,0.1678,0.1723,0.1786,0.1823,0.1797,0.1723,0.1711,0.0,0.0,0.0,0.0,0.1793,0.1795,0.1795,0.1795,0.1805,0.182,0.1782,0.1803,0.1833,0.187,0.1922,0.1802,0.1508,0.1234,0.0867,0.0517,0.0452,0.028,0.0,0.0112,0.0112,0.0,0.0112,-0.0392,-0.1175,-0.1052,-0.1527,-0.2195,-0.2106,-0.2275,-0.2797,-0.3836,-0.468,-0.5331,-0.5687,-0.5792,-0.5831,-0.6182,-0.6127,-0.5958,-0.5915,-0.5822,-0.5691,-0.5691,-0.5691,-0.5691,-0.5691,-0.5626,-0.5561,-0.5518,-0.5393,-0.5241,-0.5197,-0.5094,-0.5018,-0.5018,-0.4941,-0.4882,-0.4723,-0.4694,-0.4809,-0.5093,-0.5185,-0.5278,-0.5534,-0.5528,-0.548,-0.5487,-0.5426,-0.5392,-0.5392,-0.5392,-0.5392,-0.5392,-0.5815,-0.6137,-0.64,-0.7284,-0.7999,-0.8484,-0.8914,-0.9247,-0.9516,-0.9516,-0.9516,0.1382,0.1444,0.1504,0.1611,0.1598,0.1618,0.1615,0.1591,0.156,0.1525,0.1495,0.1464,0.0,0.0,0.1426,0.1591,0.1615,0.166,0.1776,0.1825,0.1807,0.0,0.0,0.0,0.0,0.0,0.0,0.1793,0.0,0.1795,0.1795,0.1824,0.1783,0.1786,0.1841,0.1932,0.1933,0.1962,0.1839,0.151,0.1485,0.1111,0.0518,0.0452,0.028,0.0056,0.028,0.028,0.0056,0.028,0.0224,0.0,0.0,0.0,0.0,0.0,-0.0632,-0.1654,-0.2688,-0.3123,-0.3374,-0.4383,-0.4734,-0.4918,-0.5914,-0.6144,-0.602,-0.5947,-0.5828,-0.5696,-0.5691,-0.5691,-0.5691,-0.5691,-0.5691,-0.5659,-0.554,-0.5458,-0.5375,-0.5219,-0.5099,-0.5018,-0.5018,-0.4882,-0.48,-0.4706,-0.4591,-0.4628,-0.4931,-0.4986,-0.5181,-0.5619,-0.5451,-0.5395,-0.5555,-0.5454,-0.5405,-0.5392,-0.5392,-0.5392,-0.5392,-0.5392,-0.569,-0.6334,-0.64,-0.7046,-0.8388,-0.8452,-0.8818,-0.9452,-0.9484,-0.9516,0.1502,0.1618,0.167,0.1687,0.1697,0.1639,0.1594,0.156,0.1516,0.144,0.1401,0.1366,0.1313,0.0,0.0,0.1504,0.1591,0.0,0.1805,0.1774,0.0,0.1807,0.0,0.1795,0.1804,0.1804,0.0,0.0,0.1795,0.1795,0.1795,0.1824,0.1851,0.1873,0.1911,0.1941,0.1964,0.1973,0.1973,0.1842,0.1792,0.1587,0.117,0.108,0.0785,0.028,0.0393,0.0336,0.028,0.0168,0.0168,0.028,0.0056,0.0,0.0,0.0,-0.0158,-0.0466,-0.0711,-0.1865,-0.3224,-0.3525,-0.3626,-0.3823,-0.4856,-0.513,-0.5177,-0.5884,-0.5953,-0.5839,-0.5712,-0.5691,-0.5691,-0.5691,-0.5691,-0.568,-0.5648,-0.5518,-0.5402,-0.5369,-0.5159,-0.5018,-0.5018,-0.4952,-0.4898,-0.4723,-0.4662,-0.4687,-0.4756,-0.4919,-0.5068,-0.5222,-0.5328,-0.5394,-0.536,-0.5343,-0.5345,-0.5399,-0.5392,-0.5392,-0.5392,-0.5392,-0.5491,-0.5657,-0.6137,-0.6564,-0.6957,-0.7999,-0.8592,-0.8753,-0.9247,-0.9516,0.1575,0.1635,0.1678,0.1718,0.1704,0.1622,0.1549,0.1498,0.1441,0.1351,0.1309,0.0,0.1209,0.0,0.0,0.0,0.0,0.0,0.1792,0.1776,0.1789,0.0,0.1825,0.0,0.1825,0.1825,0.1776,0.0,0.1795,0.1801,0.1814,0.1843,0.1874,0.1904,0.1936,0.1959,0.1977,0.1977,0.197,0.1956,0.1909,0.1703,0.1398,0.1305,0.1065,0.0617,0.0,0.0729,0.0617,0.0561,0.0505,0.0393,0.0224,0.0112,0.0,0.0,0.0,0.0,0.0,-0.0807,-0.1865,-0.2368,-0.2519,-0.272,-0.3776,-0.4026,-0.4141,-0.5113,-0.5293,-0.5278,-0.5628,-0.5691,-0.5691,-0.5691,-0.5691,-0.5691,-0.5691,-0.5583,-0.5415,-0.5311,-0.5143,-0.5018,-0.5018,-0.5018,-0.4953,-0.4762,-0.4723,-0.4706,-0.4724,-0.4832,-0.4938,-0.5153,-0.5237,-0.5291,-0.5326,-0.5237,-0.5239,-0.5359,-0.5292,-0.5292,-0.5392,-0.5392,-0.5392,-0.5392,-0.5782,-0.6112,-0.64,-0.7186,-0.7902,-0.8517,-0.8882,-0.9215,0.1621,0.1671,0.1708,0.1675,0.1645,0.1596,0.1497,0.1425,0.1352,0.1298,0.0,0.1172,0.1084,0.1183,0.1316,0.1369,0.0,0.1657,0.1781,0.177,0.179,0.1794,0.1795,0.1795,0.1795,0.1795,0.1795,0.1795,0.1795,0.1808,0.1782,0.1869,0.1902,0.1936,0.1963,0.1977,0.1977,0.1977,0.1962,0.187,0.19,0.1752,0.1437,0.1413,0.1234,0.0953,0.1177,0.0,0.0953,0.1177,0.0953,0.0505,0.0449,0.028,0.0056,0.0,0.0,0.0,0.0,0.0,-0.0151,-0.111,-0.1412,-0.1562,-0.267,-0.2887,-0.3033,-0.4017,-0.4223,-0.4326,-0.527,-0.5508,-0.5552,-0.5691,-0.5691,-0.5691,-0.5691,-0.5578,-0.5416,-0.523,-0.5094,-0.5018,-0.5018,-0.5018,-0.4936,-0.4817,-0.473,-0.4728,-0.4795,-0.4719,-0.4856,-0.5217,-0.5143,-0.515,-0.5358,-0.5135,-0.5054,-0.5237,-0.5171,-0.5199,-0.5393,-0.5405,-0.5405,-0.5426,-0.5405,-0.5683,-0.6268,-0.6367,-0.7022,-0.8226,-0.8323,-0.8721,0.1681,0.1733,0.1765,0.1711,0.1675,0.1617,0.1475,0.1378,0.0,0.0,0.0,0.1027,0.1018,0.1122,0.0,0.1294,0.0,0.0,0.0,0.0,0.1822,0.0,0.0,0.0,0.0,0.0,0.0,0.0,0.0,0.1808,0.1782,0.1869,0.1911,0.1967,0.1974,0.1977,0.1977,0.1977,0.1962,0.187,0.19,0.1869,0.1724,0.1696,0.1514,0.1234,0.129,0.0,0.1234,0.1065,0.1065,0.1121,0.0617,0.0393,0.0279,0.0108,0.0,0.0,0.0,0.0,-0.005,-0.0202,-0.0252,-0.0454,-0.1562,-0.1861,-0.2042,-0.2978,-0.3222,-0.3421,-0.4295,-0.4523,-0.4746,-0.5508,-0.5691,-0.5691,-0.5691,-0.5556,-0.536,-0.5214,-0.5094,-0.5018,-0.5018,-0.5018,-0.4936,-0.4817,-0.473,-0.4695,-0.4717,-0.4701,-0.4783,-0.5029,-0.5035,-0.5057,-0.5139,-0.4994,-0.4938,-0.5041,-0.5069,-0.5172,-0.5295,-0.5359,-0.5453,-0.5549,-0.546,-0.5458,-0.5591,-0.6137,-0.6531,-0.6793,-0.7316,-0.7977,0.17,0.1737,0.176,0.1715,0.1647,0.1555,0.1376,0.0,0.0,0.0,0.0,0.0973,0.0959,0.0,0.0,0.0,0.0,0.0,0.0,0.0,0.0,0.0,0.0,0.0,0.0,0.0,0.0,0.0,0.0,0.1808,0.1782,0.1884,0.1922,0.1952,0.1952,0.196,0.1977,0.1945,0.1922,0.1907,0.1877,0.1846,0.1816,0.1802,0.1739,0.157,0.157,0.0,0.157,0.1402,0.1346,0.129,0.1009,0.0673,0.0391,0.027,0.0107,0.0,0.0,0.0,0.0,0.0,0.0,-0.0101,-0.0605,-0.0757,-0.0953,-0.1899,-0.2156,-0.2362,-0.3347,-0.3564,-0.3671,-0.4121,-0.4612,-0.5107,-0.5602,-0.5551,-0.5426,-0.5306,-0.5186,-0.5089,-0.5029,-0.5018,-0.4996,-0.4898,-0.4822,-0.4768,-0.4833,-0.4766,-0.4755,-0.4866,-0.4941,-0.5029,-0.5046,-0.4929,-0.4908,-0.5026,-0.5009,-0.5066,-0.5233,-0.5386,-0.5451,-0.5444,-0.5481,-0.5474,-0.5392,-0.5716,-0.6079,-0.64,-0.6728,-0.7251,0.1703,0.1726,0.1797,0.1712,0.1614,0.1447,0.1333,0.1249,0.0,0.0,0.0995,0.0964,0.0917,0.0,0.0,0.0,0.0,0.0,0.0,0.0,0.0,0.0,0.0,0.0,0.0,0.0,0.0,0.0,0.0,0.0,0.1782,0.1892,0.1921,0.1921,0.1921,0.1933,0.1958,0.191,0.1883,0.1876,0.1851,0.1824,0.1795,0.1795,0.1795,0.1795,0.1795,0.0,0.0,0.1795,0.1627,0.1402,0.1346,0.1009,0.0559,0.0432,0.0267,0.0053,0.0,0.0,0.0,0.0,0.0,0.0,0.0,0.0,-0.0151,-0.0887,-0.1111,-0.1327,-0.2319,-0.2592,-0.2643,-0.2867,-0.3448,-0.421,-0.4924,-0.5151,-0.5175,-0.5131,-0.5161,-0.5159,-0.5067,-0.5034,-0.5018,-0.5018,-0.4876,-0.4833,-0.4925,-0.4827,-0.4728,-0.4784,-0.4904,-0.4952,-0.5012,-0.4866,-0.486,-0.5012,-0.4927,-0.4967,-0.5117,-0.532,-0.5383,-0.5271,-0.5444,-0.5481,-0.5326,-0.5392,-0.569,-0.617,-0.617,-0.6531,0.1697,0.1726,0.1797,0.1712,0.1614,0.1447,0.1333,0.0,0.0,0.101,0.0946,0.0913,0.0909,0.0975,0.1037,0.0,0.0,0.0,0.0,0.0,0.0,0.0,0.0,0.0,0.0,0.0,0.0,0.0,0.0,0.0,0.1782,0.1872,0.1889,0.1889,0.1889,0.1891,0.1894,0.1888,0.1872,0.1787,0.1784,0.1824,0.1795,0.1795,0.1795,0.1795,0.1795,0.0,0.0,0.1795,0.1795,0.1739,0.1402,0.129,0.1173,0.0594,0.0373,0.0318,0.0102,0.0,0.0,0.0,0.0,0.0,0.0,0.0,0.0,-0.0099,-0.0145,-0.0332,-0.1299,-0.1547,-0.1749,-0.2688,-0.2956,-0.3045,-0.3135,-0.3743,-0.4247,-0.4239,-0.4758,-0.5181,-0.517,-0.5083,-0.5018,-0.5018,-0.4876,-0.4801,-0.4812,-0.4735,-0.4695,-0.4706,-0.4779,-0.486,-0.5007,-0.4866,-0.4784,-0.4748,-0.484,-0.489,-0.4845,-0.5092,-0.5199,-0.5133,-0.5271,-0.5269,-0.512,-0.5326,-0.5425,-0.5491,-0.5491,-0.5848,0.1644,0.1674,0.1743,0.1659,0.1561,0.14,0.1302,0.0,0.1073,0.1003,0.0939,0.0901,0.0913,0.0911,0.0957,0.1073,0.1117,0.1193,0.0,0.0,0.0,0.0,0.0,0.0,0.0,0.0,0.0,0.0,0.0,0.0,0.1812,0.1842,0.1858,0.1858,0.1858,0.1868,0.1885,0.185,0.1834,0.1783,0.1821,0.1806,0.1795,0.1795,0.1795,0.1795,0.1795,0.0,0.0,0.1795,0.1795,0.1795,0.1627,0.1505,0.1266,0.1022,0.0794,0.0627,0.0357,0.0252,0.0202,0.005,0.0,0.0,0.0,0.0,0.0,0.0,0.0,-0.0095,-0.0472,-0.0552,-0.0808,-0.1749,-0.2016,-0.2151,-0.2777,-0.3158,-0.3348,-0.3259,-0.3507,-0.3829,-0.4263,-0.4332,-0.4423,-0.494,-0.4936,-0.4903,-0.4903,-0.4838,-0.4762,-0.4762,-0.4769,-0.4817,-0.4866,-0.4893,-0.4925,-0.4876,-0.4843,-0.4814,-0.4801,-0.4996,-0.5027,-0.4856,-0.5168,-0.5235,-0.5087,-0.5292,-0.5392,-0.5392,-0.5392,-0.5557,0.1639,0.162,0.1684,0.162,0.1465,0.1347,0.0,0.0,0.1048,0.0999,0.0939,0.0897,0.0897,0.0886,0.0919,0.0979,0.1002,0.1099,0.1289,0.0,0.0,0.0,0.0,0.0,0.0,0.0,0.0,0.0,0.0,0.0,0.0,0.1814,0.1827,0.1827,0.1827,0.1838,0.1859,0.1816,0.1806,0.1827,0.1805,0.1795,0.1795,0.1795,0.1795,0.1795,0.1795,0.0,0.0,0.1795,0.179,0.1782,0.1782,0.1653,0.1408,0.133,0.1154,0.0933,0.061,0.0505,0.0454,0.0202,0.0101,0.0101,0.0,0.0,0.0,0.0,0.0,0.0,0.0,0.0,-0.018,-0.0808,-0.0987,-0.1166,-0.1884,-0.224,-0.241,-0.2329,-0.2525,-0.2879,-0.3367,-0.3671,-0.399,-0.454,-0.4857,-0.5018,-0.5018,-0.4871,-0.4795,-0.4795,-0.4763,-0.4779,-0.4779,-0.486,-0.4893,-0.4855,-0.4806,-0.4746,-0.4644,-0.4809,-0.4796,-0.4597,-0.4942,-0.5099,-0.5027,-0.5226,-0.5326,-0.5392,-0.5392,-0.5419,0.1741,0.1621,0.158,0.161,0.1436,0.1298,0.0,0.1127,0.0993,0.0995,0.0939,0.0897,0.0897,0.0898,0.0917,0.0979,0.107,0.1164,0.128,0.0,0.0,0.0,0.0,0.0,0.0,0.0,0.0,0.0,0.0,0.0,0.0,0.1795,0.1795,0.1795,0.1795,0.1795,0.1795,0.1795,0.1795,0.1795,0.1795,0.1795,0.1795,0.1795,0.1795,0.0,0.0,0.0,0.0,0.1795,0.1778,0.1805,0.1805,0.1731,0.1648,0.1411,0.1298,0.1243,0.0915,0.0808,0.0757,0.0505,0.0404,0.0353,0.0101,0.0,0.0,0.0,0.0,0.0,0.0,0.0,0.0,0.0,0.0,0.0,-0.0045,-0.0763,-0.1436,-0.1436,-0.212,-0.2684,-0.2726,-0.3308,-0.3791,-0.3791,-0.4501,-0.5018,-0.5018,-0.4871,-0.4795,-0.4795,-0.4724,-0.469,-0.469,-0.469,-0.464,-0.452,-0.4624,-0.4586,-0.4317,-0.4564,-0.458,-0.4306,-0.4586,-0.4723,-0.4794,-0.4987,-0.5193,-0.5392,-0.5392,-0.5474,0.1595,0.1416,0.144,0.141,0.1343,0.1266,0.1196,0.1068,0.0987,0.0938,0.0926,0.0897,0.0897,0.0897,0.0931,0.1064,0.1097,0.0,0.0,0.0,0.0,0.0,0.0,0.0,0.0,0.0,0.0,0.0,0.0,0.0,0.0,0.1795,0.1795,0.1795,0.1795,0.1795,0.1795,0.1795,0.1795,0.1795,0.1795,0.1795,0.1795,0.1795,0.1795,0.0,0.0,0.0,0.0,0.1772,0.1814,0.1802,0.1726,0.1701,0.1674,0.1614,0.1545,0.1476,0.1164,0.1061,0.1011,0.0555,0.0404,0.0353,0.0101,0.0,0.0,0.0,0.0,0.0,0.0,0.0,0.0,0.0,0.0,0.0,0.0,-0.0225,-0.0449,-0.0449,-0.0658,-0.1198,-0.2356,-0.2741,-0.3309,-0.4438,-0.4818,-0.5018,-0.5018,-0.4947,-0.4887,-0.4806,-0.48,-0.4746,-0.4695,-0.469,-0.4673,-0.4635,-0.4586,-0.4531,-0.4454,-0.4414,-0.4376,-0.43,-0.4501,-0.4635,-0.4661,-0.4827,-0.5044,-0.5344,-0.5481,-0.5596,0.0,0.1393,0.1417,0.1431,0.1381,0.128,0.1137,0.1101,0.1065,0.1012,0.1034,0.1037,0.0981,0.0981,0.0983,0.1012,0.1035,0.0,0.0,0.0,0.0,0.0,0.0,0.0,0.0,0.0,0.0,0.0,0.0,0.0,0.0,0.1795,0.1795,0.1795,0.1795,0.1795,0.1795,0.1795,0.1795,0.1795,0.1795,0.1795,0.1795,0.1795,0.1795,0.0,0.0,0.0,0.0,0.1812,0.1791,0.1769,0.1696,0.167,0.1645,0.1645,0.1633,0.1566,0.1415,0.1364,0.1263,0.0858,0.0656,0.0505,0.0353,0.0151,0.0,0.0,0.0,0.0,0.0,0.0,0.0,0.0,0.0,0.0,0.0,0.0,0.0,0.0,0.0,-0.0346,-0.1392,-0.21,-0.2856,-0.389,-0.4584,-0.5018,-0.5018,-0.5018,-0.4947,-0.4871,-0.4822,-0.4769,-0.473,-0.4673,-0.4602,-0.4558,-0.4482,-0.4443,-0.4443,-0.4338,-0.4322,-0.4365,-0.4495,-0.4597,-0.4631,-0.4805,-0.5043,-0.5383,-0.5495,-0.5681,0.0,0.1588,0.152,0.1593,0.1482,0.1361,0.115,0.1175,0.0,0.1212,0.1261,0.1265,0.113,0.11,0.1056,0.0953,0.0983,0.0,0.0,0.0,0.0,0.0,0.0,0.0,0.0,0.0,0.0,0.0,0.0,0.0,0.0,0.1795,0.1795,0.1795,0.1795,0.1795,0.1795,0.1795,0.1795,0.1795,0.1795,0.1795,0.1795,0.1795,0.1794,0.0,0.0,0.0,0.0,0.1799,0.1764,0.1714,0.1712,0.1641,0.1617,0.1617,0.1617,0.1617,0.1617,0.1617,0.1566,0.1263,0.1011,0.0808,0.0808,0.0454,0.005,0.0048,0.0,0.0,0.0,0.0,0.0,0.0,0.0,0.0,0.0,0.0,0.0,0.0,0.0,0.0,-0.0085,-0.1364,-0.2419,-0.2478,-0.3878,-0.4901,-0.4901,-0.4979,-0.5018,-0.5018,-0.4876,-0.4806,-0.4795,-0.4621,-0.4471,-0.4333,-0.4327,-0.4327,-0.4327,-0.4327,-0.4376,-0.4514,-0.452,-0.4589,-0.4694,-0.4908,-0.5156,-0.5466,-0.5502,-0.5682,0.324,0.0,0.1621,0.1466,0.1439,0.1374,0.0,0.1333,0.133,0.1286,0.1297,0.1282,0.1198,0.1184,0.1154,0.1129,0.1156,0.0,0.0,0.0,0.0,0.0,0.0,0.0,0.0,0.0,0.0,0.0,0.0,0.0,0.0,0.1795,0.1795,0.1795,0.1795,0.1795,0.1795,0.1795,0.1795,0.1795,0.1795,0.1795,0.1795,0.1795,0.1782,0.0,0.0,0.0,0.1714,0.1745,0.1728,0.1712,0.1637,0.1624,0.1617,0.1617,0.1617,0.1617,0.1617,0.1617,0.1566,0.1263,0.1011,0.0808,0.0808,0.0555,0.0301,0.0289,0.0143,0.0,0.0,0.0,0.0,0.0,0.0,0.0,0.0,0.0,0.0,0.0,0.0,-0.0221,-0.0866,-0.1311,-0.1777,-0.2419,-0.3403,-0.4068,-0.4068,-0.4623,-0.5018,-0.5018,-0.4952,-0.4898,-0.4806,-0.4697,-0.4635,-0.4608,-0.4608,-0.4608,-0.4608,-0.4608,-0.4618,-0.4646,-0.4646,-0.4682,-0.4717,-0.4866,-0.5002,-0.5192,-0.5526,-0.5751,0.406,0.3289,0.2592,0.2491,0.2328,0.2125,0.1937,0.1724,0.1546,0.0,0.0,0.0,0.0,0.0,0.0,0.0,0.0,0.0,0.0,0.0,0.0,0.0,0.0,0.0,0.0,0.0,0.0,0.0,0.0,0.0,0.0,0.1795,0.1795,0.1795,0.1795,0.1795,0.1795,0.1795,0.1795,0.1795,0.1795,0.1787,0.1774,0.1774,0.1757,0.0,0.0,0.0,0.1684,0.1721,0.1705,0.164,0.1624,0.1617,0.1617,0.1617,0.1617,0.1617,0.1617,0.1617,0.1566,0.1415,0.1263,0.1162,0.1162,0.096,0.0702,0.0482,0.0286,0.0142,0.0045,0.0,0.0,0.0,0.0,0.0,0.0,0.0,0.0,0.0,0.0,-0.0134,-0.0611,-0.1033,-0.144,-0.1902,-0.2664,-0.3219,-0.3219,-0.3938,-0.4462,-0.4462,-0.4779,-0.4991,-0.4887,-0.4855,-0.481,-0.4695,-0.469,-0.469,-0.469,-0.469,-0.4717,-0.4735,-0.4735,-0.4762,-0.4822,-0.4836,-0.4981,-0.5214,-0.5404,-0.5637,0.4713,0.4398,0.4025,0.3767,0.3498,0.3172,0.2814,0.0,0.0,0.0,0.0,0.0,0.0,0.0,0.0,0.0,0.0,0.0,0.0,0.0,0.0,0.0,0.0,0.0,0.0,0.0,0.0,0.0,0.0,0.0,0.0,0.178,0.178,0.178,0.178,0.178,0.178,0.1786,0.1789,0.1789,0.1783,0.1768,0.1797,0.1797,0.178,0.1697,0.0,0.0,0.1707,0.1707,0.164,0.1617,0.1617,0.1617,0.1617,0.1617,0.1617,0.1617,0.1617,0.1617,0.1617,0.1617,0.1617,0.1617,0.1617,0.1465,0.1152,0.0675,0.0477,0.0425,0.0182,0.009,0.0045,0.0045,0.0045,0.0,0.0,0.0,0.0,0.0045,0.0045,0.0,0.0044,-0.0566,-0.1122,-0.1101,-0.178,-0.232,-0.2311,-0.3064,-0.3651,-0.3795,-0.4423,-0.4857,-0.4979,-0.5018,-0.4931,-0.4755,-0.4744,-0.4744,-0.4744,-0.4744,-0.4757,-0.4822,-0.4822,-0.4876,-0.5018,-0.4876,-0.4991,-0.5246,-0.5279,-0.5473,0.5608,0.5724,0.5404,0.4123,0.3882,0.3916,0.387,0.3654,0.0,0.0,0.0,0.0,0.0,0.0,0.0,0.0,0.0,0.0,0.0,0.0,0.0,0.0,0.0,0.0,0.0,0.0,0.0,0.0,0.0,0.0,0.0,0.1718,0.1718,0.1718,0.1718,0.1718,0.1718,0.1798,0.1812,0.1811,0.173,0.1715,0.1711,0.1711,0.1696,0.1721,0.0,0.1652,0.1624,0.1624,0.1621,0.1617,0.1617,0.1617,0.1617,0.1617,0.1617,0.1617,0.1617,0.1617,0.1617,0.1617,0.1617,0.1617,0.1617,0.1566,0.1454,0.1158,0.0906,0.0709,0.0635,0.0449,0.0359,0.0359,0.018,0.0,0.0,0.0,0.0045,0.0314,0.0135,0.009,0.0313,0.0044,-0.0217,-0.0217,-0.0934,-0.1494,-0.1465,-0.2182,-0.3001,-0.3722,-0.3908,-0.4263,-0.494,-0.5018,-0.5002,-0.4963,-0.4963,-0.4963,-0.4963,-0.4963,-0.4969,-0.4952,-0.4952,-0.4957,-0.5018,-0.4957,-0.4996,-0.5057,-0.5207,-0.5318,0.5527,0.5769,0.5863,0.5243,0.5094,0.5081,0.49,0.4615,0.0,0.0,0.0,0.0,0.0,0.0,0.0,0.0,0.0,0.0,0.0,0.0,0.0,0.0,0.0,0.0,0.0,0.0,0.0,0.0,0.0,0.0,0.0,0.0,0.1704,0.1704,0.1704,0.1704,0.1704,0.1756,0.1763,0.1725,0.1711,0.1696,0.1681,0.1681,0.1666,0.1637,0.0,0.1629,0.1617,0.1617,0.1617,0.1617,0.1617,0.1617,0.1617,0.1617,0.1617,0.1617,0.1617,0.1617,0.1617,0.1617,0.1617,0.1617,0.1617,0.1617,0.1557,0.1465,0.1201,0.0945,0.0771,0.0628,0.0583,0.0583,0.0449,0.0359,0.0224,0.0224,0.0269,0.0359,0.0314,0.0269,0.0538,0.0356,0.0221,0.0221,-0.0261,-0.0597,-0.0591,-0.132,-0.2019,-0.2396,-0.2838,-0.3441,-0.4263,-0.4345,-0.454,-0.4979,-0.5018,-0.5018,-0.5018,-0.5018,-0.5018,-0.5018,-0.5018,-0.5018,-0.5018,-0.5018,-0.5018,-0.5018,-0.509,-0.5207,0.5486,0.5709,0.5959,0.6131,0.6123,0.6022,0.5909,0.5561,0.5246,0.0,0.0,0.0,0.0,0.0,0.0,0.0,0.0,0.0,0.0,0.0,0.0,0.0,0.0,0.0,0.0,0.0,0.0,0.0,0.0,0.0,0.0,0.0,0.1684,0.1684,0.1684,0.1684,0.1684,0.1662,0.1666,0.1695,0.1686,0.1673,0.1652,0.1652,0.1639,0.1617,0.1617,0.1617,0.1617,0.1617,0.1617,0.1617,0.1617,0.1617,0.1617,0.1617,0.1617,0.1617,0.1617,0.1617,0.1617,0.1617,0.1617,0.1617,0.1617,0.1617,0.161,0.158,0.1457,0.1237,0.0959,0.0858,0.0812,0.0808,0.0762,0.0672,0.0493,0.0448,0.0493,0.0538,0.0493,0.0538,0.0762,0.0628,0.0448,0.0403,0.0221,0.0088,0.0,-0.0591,-0.1069,-0.126,-0.1836,-0.2636,-0.3713,-0.3791,-0.4146,-0.494,-0.5018,-0.5018,-0.5018,-0.5018,-0.5018,-0.5018,-0.5018,-0.5018,-0.5018,-0.5018,-0.5018,-0.5018,-0.5018,-0.509,0.6033,0.6024,0.5929,0.6068,0.6133,0.6359,0.6945,0.6677,0.0,0.6913,0.0,0.0,0.0,0.0,0.0,0.0,0.0,0.0,0.0,0.0,0.0,0.0,0.0,0.0,0.0,0.0,0.0,0.0,0.0,0.0,0.0,0.0,0.0,0.1624,0.1624,0.1624,0.1624,0.1621,0.1636,0.1717,0.1637,0.1622,0.162,0.162,0.162,0.1617,0.1617,0.1617,0.1617,0.1617,0.1617,0.1617,0.1617,0.1617,0.1617,0.1617,0.1617,0.1617,0.1617,0.1617,0.1617,0.1617,0.1617,0.1617,0.1617,0.1617,0.161,0.158,0.1569,0.1554,0.1446,0.1247,0.1056,0.1081,0.0896,0.0717,0.0672,0.0672,0.0762,0.0986,0.0852,0.0762,0.1031,0.0852,0.0628,0.0448,0.0403,0.0267,0.0044,-0.0043,-0.0383,-0.1223,-0.1337,-0.2044,-0.3682,-0.3791,-0.4146,-0.494,-0.5018,-0.5018,-0.5018,-0.5018,-0.5018,-0.5018,-0.5018,-0.5018,-0.5018,-0.5018,-0.5018,-0.5018,-0.5018,-0.5018,0.5774,0.5959,0.6098,0.6155,0.6351,0.0,0.0,0.7066,0.7204,0.7626,0.7645,0.0,0.0,0.0,0.0,0.0,0.0,0.0,0.0,0.0,0.0,0.0,0.0,0.0,0.0,0.0,0.0,0.0,0.0,0.0,0.0,0.0,0.0,0.1617,0.1617,0.1617,0.1617,0.1617,0.1622,0.1635,0.1622,0.1617,0.1617,0.1617,0.1617,0.1617,0.1617,0.1617,0.1617,0.1617,0.1617,0.1617,0.1617,0.1617,0.1617,0.1617,0.1617,0.1617,0.1617,0.1617,0.1617,0.1617,0.1617,0.1617,0.1617,0.1617,0.1614,0.1603,0.1599,0.1585,0.1524,0.1449,0.1339,0.1328,0.1223,0.1122,0.0986,0.0941,0.0986,0.1077,0.1031,0.1031,0.1256,0.1122,0.0941,0.0852,0.0672,0.0492,0.0266,0.0263,0.0043,-0.0425,-0.0992,-0.1577,-0.2202,-0.3195,-0.3947,-0.4224,-0.474,-0.5018,-0.5018,-0.5018,-0.5018,-0.5018,-0.5018,-0.5018,-0.5018,-0.5018,-0.5018,-0.5018,-0.5018,-0.5018,0.5701,0.591,0.6106,0.6163,0.0,0.0,0.7094,0.7347,0.7634,0.8162,0.8365,0.0,0.0,0.0,0.0,0.0,0.0,0.0,0.0,0.0,0.0,0.0,0.0,0.0,0.0,0.0,0.0,0.0,0.0,0.0,0.0,0.0,0.0,0.1617,0.1617,0.1617,0.1617,0.1617,0.1617,0.1617,0.1617,0.1617,0.1617,0.1617,0.1617,0.1617,0.1617,0.1617,0.1617,0.1617,0.1617,0.1617,0.1617,0.1617,0.1617,0.1617,0.1617,0.1617,0.1617,0.1617,0.1617,0.1617,0.1617,0.1617,0.1617,0.1617,0.1617,0.1617,0.1617,0.1605,0.1554,0.1517,0.1493,0.1483,0.1457,0.1346,0.1211,0.1211,0.1211,0.1211,0.1211,0.1256,0.1391,0.1301,0.1166,0.1122,0.0941,0.0762,0.0538,0.0487,0.0395,0.0174,-0.0463,-0.0983,-0.126,-0.2357,-0.3113,-0.3363,-0.4146,-0.474,-0.4979,-0.5018,-0.5018,-0.5018,-0.5018,-0.5018,-0.5018,-0.5018,-0.5018,-0.5018,-0.5018,-0.5018,0.5888,0.5888,0.5929,0.0,0.0,0.0,0.7366,0.7488,0.774,0.8633,0.0,0.882,0.0,0.0,0.0,0.0,0.0,0.0,0.0,0.0,0.0,0.0,0.0,0.0,0.0,0.0,0.0,0.0,0.0,0.0,0.0,0.0,0.1617,0.1617,0.1617,0.1617,0.1617,0.1617,0.1617,0.1617,0.1617,0.1617,0.1617,0.1617,0.1617,0.1617,0.1617,0.1617,0.1617,0.1617,0.1617,0.1617,0.1617,0.1617,0.1617,0.1617,0.1617,0.1617,0.1617,0.1617,0.1617,0.1617,0.1617,0.1617,0.1617,0.1617,0.1617,0.1617,0.1617,0.161,0.158,0.1549,0.1519,0.1487,0.1457,0.1391,0.1391,0.1391,0.1391,0.1391,0.1391,0.1391,0.1391,0.1391,0.1346,0.1122,0.1122,0.0986,0.0717,0.0717,0.0623,0.0436,0.0171,-0.0334,-0.1221,-0.1299,-0.1649,-0.2431,-0.3324,-0.4146,-0.494,-0.4979,-0.5018,-0.5018,-0.5018,-0.5018,-0.5018,-0.5018,-0.5018,-0.5018,-0.5018,-0.5018,0.5726,0.591,0.0,0.6294,0.0,0.0,0.0,0.7854,0.0,0.0,0.0,0.0,0.0,0.0,0.0,0.0,0.0,0.0,0.0,0.0,0.0,0.0,0.0,0.0,0.0,0.0,0.0,0.0,0.0,0.0,0.0,0.1596,0.1595,0.1615,0.1617,0.1617,0.1617,0.1617,0.1617,0.1617,0.1617,0.1617,0.1617,0.1617,0.1617,0.1617,0.1617,0.1617,0.1617,0.1617,0.1617,0.1617,0.1617,0.1617,0.1617,0.1617,0.1617,0.1617,0.1617,0.1617,0.1617,0.1617,0.1617,0.1617,0.1617,0.1617,0.1617,0.1617,0.1617,0.1614,0.1606,0.1565,0.1519,0.1487,0.1457,0.1391,0.1391,0.1391,0.1391,0.1391,0.1391,0.1391,0.1391,0.1391,0.1391,0.1301,0.1301,0.1211,0.1031,0.0807,0.0626,0.04,0.0349,0.0086,-0.0342,-0.0966,-0.1409,-0.1648,-0.243,-0.3263,-0.4112,-0.4701,-0.5018,-0.5018,-0.5018,-0.5018,-0.5018,-0.5018,-0.5018,-0.5018,-0.5018,-0.5061,0.5815,0.6122,0.0,0.6676,0.7253,0.7886,0.8162,0.0,0.0,0.0,0.0,0.0,0.0,0.0,0.0,0.0,0.0,0.0,0.0,0.0,0.0,0.0,0.0,0.0,0.0,0.0,0.0,0.0,0.0,0.0,0.0,0.1564,0.1562,0.158,0.1925,0.1975,0.1581,0.1975,0.1975,0.1581,0.1581,0.1581,0.1581,0.1606,0.1617,0.1617,0.1617,0.1617,0.1617,0.1617,0.1617,0.1617,0.1617,0.1617,0.1617,0.1617,0.1617,0.1617,0.1617,0.1617,0.1617,0.1617,0.1617,0.1617,0.1617,0.1617,0.1617,0.1617,0.1617,0.1614,0.1602,0.1562,0.1521,0.1502,0.1467,0.1391,0.1391,0.1391,0.1391,0.1391,0.1391,0.1391,0.1391,0.1391,0.1391,0.1391,0.1391,0.1346,0.1256,0.0986,0.0807,0.0672,0.0532,0.0351,0.0174,-0.043,-0.0764,-0.0799,-0.1575,-0.2246,-0.2779,-0.3916,-0.4662,-0.4979,-0.5018,-0.5018,-0.5018,-0.5018,-0.5018,-0.5018,-0.5061,-0.5121,0.6057,0.0,0.0,0.7155,0.7545,0.0,0.0,0.0,0.0,0.0,0.0,0.0,0.0,0.0,0.0,0.0,0.0,0.0,0.0,0.0,0.0,0.0,0.0,0.0,0.0,0.0,0.0,0.0,0.0,0.0,0.0,0.1761,0.1761,0.1621,0.2619,0.2714,0.1764,0.2668,0.2668,0.1764,0.1764,0.1764,0.1765,0.1632,0.1609,0.1609,0.1609,0.1609,0.1609,0.1611,0.1613,0.1613,0.1615,0.1617,0.1617,0.1617,0.1617,0.1617,0.1617,0.1617,0.1617,0.1617,0.1617,0.1617,0.1617,0.1617,0.1615,0.1613,0.1614,0.161,0.158,0.1549,0.1478,0.1478,0.1433,0.1391,0.1391,0.1391,0.1391,0.1391,0.1391,0.1391,0.1391,0.1391,0.1391,0.1391,0.1391,0.1391,0.1391,0.1256,0.1122,0.1122,0.0717,0.0445,0.0437,0.0175,0.0043,0.0042,-0.0718,-0.1222,-0.1306,-0.2822,-0.4051,-0.4873,-0.4878,-0.4912,-0.5018,-0.5029,-0.5034,-0.5034,-0.5148,-0.5208,0.591,0.6335,0.0,0.0,0.0,0.0,0.0,0.0,0.0,0.0,0.0,0.0,0.0,0.0,0.0,0.0,0.0,0.0,0.0,0.0,0.0,0.0,0.0,0.0,0.0,0.0,0.0,0.0,0.0,0.0,0.2946,0.3602,0.3598,0.2714,0.3752,0.4131,0.3803,0.3992,0.3992,0.0,0.3755,0.3755,0.3708,0.221,0.1546,0.1546,0.1546,0.1546,0.1547,0.1572,0.1581,0.1584,0.1607,0.1617,0.1617,0.1617,0.1617,0.1617,0.1617,0.1617,0.1617,0.1617,0.1617,0.1617,0.1617,0.1617,0.1611,0.1588,0.1598,0.161,0.158,0.1549,0.1478,0.1478,0.1433,0.1391,0.1391,0.1391,0.1391,0.1391,0.1391,0.1391,0.1391,0.1391,0.1391,0.1391,0.1391,0.1391,0.1391,0.1346,0.1256,0.1122,0.1031,0.0851,0.0669,0.0446,0.0311,0.031,-0.0044,-0.0604,-0.125,-0.2265,-0.3197,-0.4023,-0.4063,-0.4386,-0.5018,-0.5105,-0.5148,-0.5154,-0.5314,-0.5382,0.0,0.0,0.0,0.0,0.0,0.0,0.0,0.0,0.0,0.0,0.0,0.0,0.0,0.0,0.0,0.0,0.0,0.0,0.0,0.0,0.0,0.0,0.0,0.0,0.0,0.0,0.0,0.0,0.0,0.4468,0.415,0.4563,0.4513,0.3789,0.4798,0.5023,0.4338,0.4798,0.4798,0.4338,0.4338,0.4338,0.4296,0.2878,0.1954,0.1478,0.1478,0.1478,0.1479,0.1543,0.155,0.1553,0.1583,0.1595,0.1596,0.1611,0.1617,0.1617,0.1617,0.1617,0.1614,0.1599,0.1595,0.1592,0.1577,0.1584,0.1592,0.1576,0.1594,0.1613,0.1598,0.156,0.1478,0.1478,0.1433,0.1391,0.1391,0.1391,0.1391,0.1391,0.1391,0.1391,0.1391,0.1391,0.1391,0.1391,0.1391,0.1391,0.1391,0.1391,0.1346,0.1256,0.1166,0.1031,0.0896,0.0672,0.0493,0.0403,0.0266,-0.0088,-0.0662,-0.1091,-0.1878,-0.3131,-0.3172,-0.3605,-0.4456,-0.4548,-0.4818,-0.532,-0.5398,-0.5448,0.0,0.0,0.0,0.0,0.0,0.0,0.0,0.0,0.0,0.0,0.0,0.0,0.0,0.0,0.0,0.0,0.0,0.0,0.0,0.0,0.0,0.0,0.0,0.0,0.0,0.0,0.0,0.0,0.0,0.5442,0.5309,0.5487,0.5354,0.4914,0.5935,0.5935,0.487,0.563,0.5581,0.4776,0.4776,0.4732,0.4607,0.3803,0.2828,0.1746,0.1746,0.1652,0.1463,0.1516,0.1519,0.1521,0.1551,0.1564,0.1566,0.1592,0.16,0.16,0.16,0.16,0.1598,0.1579,0.1621,0.1568,0.1547,0.156,0.1579,0.1622,0.1594,0.1615,0.161,0.1568,0.1478,0.1478,0.1433,0.1391,0.1391,0.1391,0.1391,0.1391,0.1391,0.1391,0.1391,0.1391,0.1391,0.1391,0.1391,0.1391,0.1391,0.1391,0.1391,0.1391,0.1256,0.1166,0.1166,0.0896,0.0717,0.0538,0.0493,0.0359,0.009,0.009,-0.0618,-0.2038,-0.2199,-0.2737,-0.3646,-0.3661,-0.413,-0.4937,-0.518,-0.5275,0.0,0.0,0.0,0.0,0.0,0.0,0.0,0.0,0.0,0.0,0.0,0.0,0.0,0.0,0.0,0.0,0.0,0.0,0.0,0.0,0.0,0.0,0.0,0.0,0.0,0.0,0.0,0.0,0.0,0.7224,0.6599,0.7312,0.7261,0.6195,0.7305,0.7628,0.7061,0.7194,0.7098,0.6738,0.6738,0.6428,0.5847,0.5484,0.4373,0.2711,0.2711,0.2214,0.1404,0.1476,0.1486,0.149,0.152,0.1532,0.1532,0.1536,0.149,0.149,0.149,0.149,0.1542,0.1564,0.1621,0.1576,0.1598,0.1607,0.1606,0.1579,0.1594,0.1611,0.1584,0.1551,0.1478,0.1478,0.1433,0.1391,0.1391,0.1391,0.1391,0.1391,0.1391,0.1391,0.1391,0.1391,0.1391,0.1391,0.1391,0.1391,0.1391,0.1391,0.1391,0.1391,0.1391,0.1346,0.1346,0.1166,0.1031,0.0986,0.0807,0.0583,0.0359,0.0359,0.0134,-0.0312,-0.1092,-0.1884,-0.2684,-0.2824,-0.2935,-0.3068,-0.4018,-0.4457,0.5704,0.0,0.0,0.0,0.0,0.0,0.0,0.0,0.0,0.0,0.0,0.0,0.0,0.0,0.0,0.0,0.0,0.0,0.0,0.0,0.0,0.0,0.0,0.0,0.0,0.0,0.0,0.0,0.0,0.8164,0.7804,0.8208,0.8113,0.7438,0.7929,0.8025,0.7724,0.7724,0.768,0.754,0.754,0.7457,0.722,0.6872,0.5586,0.3667,0.3667,0.3444,0.3042,0.3071,0.2769,0.2276,0.2279,0.1968,0.1502,0.152,0.1478,0.1478,0.1478,0.1478,0.1525,0.1521,0.1532,0.1542,0.1521,0.1551,0.1585,0.1554,0.158,0.1614,0.16,0.1575,0.1551,0.1551,0.1505,0.146,0.146,0.1446,0.1391,0.1391,0.1391,0.1391,0.1391,0.1391,0.1391,0.1391,0.1391,0.1391,0.1391,0.1391,0.1391,0.1391,0.1391,0.1391,0.1391,0.1301,0.1211,0.1122,0.0986,0.0807,0.0583,0.0583,0.0448,0.0224,-0.0311,-0.1013,-0.1874,-0.1936,-0.2255,-0.2828,-0.3301,-0.3808,0.0,0.0,0.0,0.0,0.0,0.0,0.0,0.0,0.0,0.0,0.0,0.0,0.0,0.0,0.0,0.0,0.0,0.0,0.0,0.0,0.0,0.0,0.0,0.0,0.0,0.0,0.0,0.0,0.0,0.8612,0.8612,0.8612,0.8516,0.8288,0.8288,0.8201,0.7981,0.7944,0.7944,0.7981,0.7944,0.7967,0.8125,0.7782,0.6745,0.5176,0.4821,0.451,0.4287,0.4287,0.389,0.3272,0.3279,0.284,0.2206,0.1961,0.1878,0.1831,0.1549,0.1455,0.1454,0.1486,0.1501,0.1471,0.1482,0.1523,0.1579,0.1555,0.1581,0.1617,0.1617,0.1594,0.1621,0.1621,0.1531,0.1487,0.1472,0.1452,0.1391,0.1391,0.1391,0.1391,0.1391,0.1391,0.1391,0.1391,0.1391,0.1391,0.1391,0.1391,0.1391,0.1391,0.1391,0.1391,0.1391,0.1391,0.1346,0.1166,0.1166,0.1077,0.0807,0.0807,0.0717,0.0493,0.0269,-0.0225,-0.1032,-0.1032,-0.1436,-0.2151,-0.2419,-0.2911,0.0,0.0,0.0,0.0,0.0,0.0,0.0,0.0,0.0,0.0,0.0,0.0,0.0,0.0,0.0,0.0,0.0,0.0,0.0,0.0,0.0,0.0,0.0,0.0,0.0,0.0,0.0,0.0,0.0,0.8612,0.8612,0.8612,0.8612,0.8568,0.8568,0.8472,0.8201,0.7988,0.7988,0.8201,0.7988,0.7988,0.8172,0.7988,0.7812,0.7628,0.6251,0.5137,0.4287,0.4287,0.4287,0.4243,0.4251,0.4206,0.4028,0.3144,0.2833,0.2698,0.1754,0.1395,0.1399,0.1472,0.1501,0.1531,0.1557,0.1588,0.1614,0.1613,0.1614,0.1617,0.1617,0.1594,0.1621,0.1621,0.1547,0.1461,0.1405,0.1392,0.1391,0.1391,0.1391,0.1391,0.1391,0.1391,0.1391,0.1391,0.1391,0.1391,0.1391,0.1391,0.1391,0.1391,0.1391,0.1391,0.1391,0.1391,0.1391,0.1391,0.1391,0.1301,0.1077,0.1077,0.0941,0.0672,0.0672,0.0404,-0.009,-0.009,-0.009,-0.018,-0.1077,-0.1525,0.0,0.0,0.0,0.0,0.0,0.0,0.0,0.0,0.0,0.0,0.0,0.0,0.0,0.0,0.0,0.0,0.0,0.0,0.0,0.0,0.0,0.0,0.0,0.0,0.0,0.0,0.0,0.0,0.0,0.8612,0.8612,0.8612,0.8612,0.8612,0.8612,0.8568,0.8472,0.8384,0.8384,0.8472,0.8384,0.844,0.8588,0.8255,0.8174,0.823,0.7279,0.6656,0.634,0.6163,0.5758,0.5181,0.5181,0.4825,0.4198,0.3269,0.2911,0.2777,0.1749,0.1391,0.1395,0.1471,0.1501,0.148,0.1539,0.1577,0.1613,0.1594,0.1602,0.1617,0.1617,0.1609,0.1595,0.1576,0.1564,0.1543,0.1502,0.1447,0.1447,0.1447,0.1447,0.1447,0.1447,0.1447,0.1447,0.1447,0.1476,0.1464,0.1464,0.1464,0.1457,0.1392,0.1453,0.1456,0.1392,0.1391,0.1391,0.1391,0.1391,0.1391,0.1301,0.1301,0.1166,0.0941,0.0941,0.0718,0.0269,0.0269,0.018,0.0,-0.0359,-0.0808,0.4865,0.0,0.0,0.0,0.0,0.0,0.0,0.0,0.0,0.0,0.0,0.0,0.0,0.0,0.0,0.0,0.0,0.0,0.0,0.0,0.0,0.0,0.0,0.0,0.0,0.0,0.0,0.0,0.0,0.0,0.8612,0.8612,0.8612,0.8612,0.8612,0.8612,0.8612,0.8612,0.8612,0.8612,0.8612,0.8625,0.8731,0.8476,0.8404,0.8506,0.7945,0.7635,0.7459,0.7231,0.6738,0.6163,0.6251,0.5941,0.527,0.4336,0.3979,0.3801,0.273,0.2372,0.2381,0.2479,0.2296,0.2004,0.2064,0.1871,0.1613,0.1592,0.16,0.1617,0.1617,0.1617,0.1611,0.1591,0.1587,0.1581,0.1561,0.1492,0.1478,0.1478,0.1478,0.1478,0.1478,0.1478,0.1478,0.1478,0.1509,0.1495,0.1495,0.1495,0.1487,0.1422,0.1483,0.1483,0.1453,0.1451,0.1446,0.1391,0.1391,0.1391,0.1391,0.1391,0.1346,0.1211,0.1211,0.1031,0.0628,0.0493,0.0314,0.0135,0.0045,-0.0314,0.0,0.0,0.0,0.0,0.0,0.0,0.0,0.0,0.0,0.0,0.0,0.0,0.0,0.0,0.0,0.0,0.0,0.0,0.0,0.0,0.0,0.0,0.0,0.0,0.0,0.0,0.0,0.0,0.8612,0.8612,0.8612,0.8612,0.8612,0.8612,0.8612,0.8612,0.8612,0.8612,0.8612,0.8612,0.8612,0.8612,0.8612,0.8612,0.8612,0.8568,0.8332,0.7937,0.7503,0.7231,0.7143,0.7143,0.7415,0.7503,0.7415,0.6473,0.6113,0.5935,0.4732,0.4287,0.4304,0.4443,0.3838,0.306,0.3166,0.2485,0.1617,0.1617,0.1617,0.1617,0.1617,0.1617,0.1617,0.1617,0.1617,0.1617,0.1617,0.157,0.148,0.148,0.148,0.148,0.148,0.148,0.148,0.148,0.148,0.1479,0.1479,0.1479,0.1479,0.1478,0.1479,0.1515,0.1485,0.148,0.1468,0.1393,0.1391,0.1391,0.1391,0.1391,0.1391,0.1391,0.1391,0.1301,0.1122,0.0628,0.0403,0.0403,0.0135,0.0,0.4865,0.0,0.0,0.0,0.0,0.0,0.0,0.0,0.0,0.0,0.0,0.0,0.0,0.0,0.0,0.0,0.0,0.0,0.0,0.0,0.0,0.0,0.0,0.0,0.0,0.0,0.0,0.0,0.8612,0.8612,0.8612,0.8612,0.8612,0.8612,0.8612,0.8612,0.8612,0.8612,0.8612,0.8612,0.8612,0.8612,0.8612,0.8612,0.8612,0.8568,0.8332,0.8113,0.7981,0.776,0.768,0.768,0.7768,0.7768,0.768,0.6688,0.6239,0.5935,0.487,0.4425,0.4316,0.4517,0.4399,0.4021,0.3413,0.301,0.2572,0.1817,0.1617,0.1617,0.1617,0.1617,0.1617,0.1617,0.1617,0.1617,0.1617,0.1603,0.1592,0.1592,0.1592,0.1592,0.1592,0.1592,0.1592,0.1592,0.1573,0.1558,0.1558,0.1558,0.155,0.1528,0.1546,0.1547,0.1516,0.1493,0.1478,0.1468,0.1448,0.1391,0.1391,0.1391,0.1391,0.1391,0.1391,0.1391,0.1301,0.1031,0.0807,0.0628,0.0404,0.0179,0.5172,0.5251,0.0,0.0,0.0,0.0,0.0,0.0,0.0,0.0,0.0,0.0,0.0,0.0,0.0,0.0,0.0,0.0,0.0,0.0,0.0,0.0,0.0,0.0,0.0,0.0,0.0,0.8612,0.8612,0.8612,0.8612,0.8612,0.8612,0.8612,0.8612,0.8612,0.8612,0.8612,0.8612,0.8612,0.8612,0.8612,0.8612,0.8612,0.8612,0.8612,0.8428,0.8384,0.834,0.8252,0.8076,0.79,0.7988,0.8025,0.7937,0.7349,0.7085,0.6864,0.6201,0.5891,0.5841,0.595,0.5695,0.5213,0.4674,0.4225,0.3723,0.3123,0.2622,0.217,0.1718,0.1617,0.1617,0.1617,0.1617,0.1617,0.1617,0.1617,0.1617,0.1617,0.1617,0.1617,0.1617,0.1617,0.1617,0.1617,0.1602,0.1591,0.1591,0.1591,0.1584,0.1566,0.158,0.1573,0.153,0.1509,0.1489,0.1463,0.14,0.1391,0.1391,0.1391,0.1391,0.1391,0.1391,0.1391,0.1391,0.1211,0.0941,0.0717,0.0583,0.0404,0.5524,0.5508,0.0,0.0,0.0,0.0,0.5987,0.5998,0.0,0.0,0.0,0.0,0.0,0.0,0.0,0.0,0.0,0.0,0.0,0.0,0.0,0.0,0.0,0.0,0.0,0.8596,0.8612,0.8612,0.8612,0.8612,0.8612,0.8612,0.8612,0.8612,0.8612,0.8612,0.8612,0.8612,0.8612,0.8612,0.8612,0.8612,0.8612,0.8612,0.8612,0.8612,0.8612,0.8612,0.8612,0.8612,0.8348,0.7988,0.8157,0.8245,0.8245,0.8245,0.8245,0.8157,0.7988,0.79,0.7908,0.7937,0.7289,0.6496,0.6443,0.5767,0.4972,0.4826,0.4024,0.2972,0.2019,0.1667,0.1617,0.1617,0.1617,0.1617,0.1617,0.1617,0.1617,0.1617,0.1617,0.1617,0.1617,0.1617,0.1617,0.1617,0.1617,0.1617,0.1617,0.1617,0.1617,0.1617,0.1617,0.1594,0.1536,0.148,0.1454,0.1399,0.1392,0.1391,0.1391,0.1391,0.1391,0.1391,0.1391,0.1391,0.1391,0.1211,0.0986,0.0762,0.0762,0.0628,0.6354,0.6285,0.6142,0.5868,0.0,0.0,0.0,0.5679,0.0,0.0,0.0,0.0,0.0,0.0,0.0,0.0,0.0,0.0,0.0,0.0,0.0,0.0,0.0,0.0,0.0,0.8522,0.8612,0.8612,0.8612,0.8612,0.8612,0.8612,0.8612,0.8612,0.8612,0.8612,0.8612,0.8612,0.8612,0.8612,0.8612,0.8612,0.8612,0.8612,0.8612,0.8612,0.8612,0.8612,0.8612,0.8612,0.8568,0.848,0.8524,0.8516,0.8516,0.8516,0.8384,0.8201,0.8157,0.8025,0.793,0.8042,0.8005,0.7759,0.6822,0.6498,0.6176,0.5127,0.4024,0.3173,0.2922,0.2271,0.1617,0.1617,0.1617,0.1617,0.1617,0.1617,0.1617,0.1617,0.1617,0.1617,0.1617,0.1617,0.1617,0.1617,0.1617,0.1617,0.1617,0.1617,0.1617,0.1617,0.1617,0.1602,0.1565,0.154,0.151,0.1474,0.1449,0.1391,0.1391,0.1391,0.1391,0.1391,0.1391,0.1391,0.1391,0.1346,0.1211,0.1031,0.1031,0.0896,0.6785,0.6641,0.6554,0.6386,0.0,0.0,0.0,0.0,0.0,0.0,0.0,0.0,0.0,0.0,0.0,0.0,0.0,0.0,0.0,0.0,0.0,0.0,0.0,0.0,0.0,0.8235,0.8292,0.8292,0.8292,0.8333,0.8422,0.843,0.8514,0.8612,0.8612,0.8612,0.8612,0.8612,0.8612,0.8612,0.8612,0.8612,0.8612,0.8612,0.8612,0.8612,0.8612,0.8612,0.8612,0.8612,0.8612,0.8612,0.8612,0.8612,0.8612,0.8612,0.8516,0.8384,0.8384,0.834,0.8239,0.823,0.8344,0.8363,0.776,0.7713,0.7508,0.6103,0.5336,0.4776,0.3823,0.3123,0.2473,0.207,0.192,0.1768,0.1617,0.1617,0.1617,0.1617,0.1617,0.1617,0.1617,0.1617,0.1617,0.1617,0.1617,0.1617,0.1617,0.1617,0.1611,0.1596,0.1594,0.1576,0.153,0.1512,0.149,0.146,0.1399,0.1391,0.1391,0.1391,0.1391,0.1391,0.1391,0.1391,0.1391,0.1391,0.1346,0.1256,0.1256,0.1122,0.0,0.0,0.0,0.0,0.0,0.6784,0.0,0.0,0.0,0.6028,0.0,0.0,0.0,0.0,0.0,0.0,0.0,0.0,0.0,0.0,0.0,0.0,0.0,0.0,0.0,0.7862,0.7902,0.8008,0.7918,0.7967,0.8227,0.8235,0.8325,0.8555,0.8555,0.8571,0.8612,0.8612,0.8612,0.8612,0.8612,0.8612,0.8612,0.8612,0.8612,0.8612,0.8612,0.8612,0.8612,0.8612,0.8612,0.8612,0.8612,0.8612,0.8612,0.8612,0.8612,0.8612,0.8612,0.8612,0.8593,0.8462,0.8551,0.8691,0.8685,0.8747,0.8548,0.7339,0.6947,0.6526,0.5027,0.4175,0.3575,0.2874,0.2423,0.2071,0.1768,0.1667,0.1667,0.1617,0.1617,0.1617,0.1617,0.1617,0.1617,0.1617,0.1617,0.1617,0.1617,0.1617,0.1607,0.1583,0.1624,0.1549,0.1494,0.1485,0.1468,0.1392,0.1391,0.1391,0.1391,0.1391,0.1391,0.1391,0.1391,0.1391,0.1391,0.1391,0.1391,0.1391,0.1391,0.1301,0.0,0.0,0.0,0.0,0.8777,0.0,0.0,0.0,0.6388,0.5923,0.0,0.0,0.0,0.0,0.0,0.0,0.0,0.0,0.0,0.0,0.0,0.0,0.0,0.0,0.0,0.0,0.7474,0.7975,0.7577,0.749,0.8016,0.8048,0.813,0.8316,0.8325,0.8398,0.8612,0.8612,0.8612,0.8612,0.8612,0.8612,0.8612,0.8612,0.8612,0.8612,0.8612,0.8612,0.8612,0.8612,0.8612,0.8612,0.8612,0.8612,0.8612,0.8612,0.8612,0.8612,0.8612,0.8612,0.8612,0.8593,0.8631,0.8738,0.8917,0.8893,0.8768,0.8605,0.7862,0.7123,0.6874,0.5577,0.4228,0.3874,0.3226,0.2574,0.2071,0.197,0.1869,0.1667,0.1617,0.1617,0.1617,0.1617,0.1617,0.1617,0.1617,0.1617,0.1617,0.1617,0.1615,0.1611,0.1587,0.1558,0.1524,0.1495,0.1468,0.1392,0.1391,0.1391,0.1391,0.1391,0.1391,0.1391,0.1391,0.1391,0.1391,0.1391,0.1391,0.1391,0.1391,0.1391,0.0,0.0,0.0,0.0,0.0,0.0,0.7219,0.0,0.6407,0.0,0.0,0.0,0.0,0.0,0.0,0.0,0.0,0.0,0.0,0.0,0.0,0.0,0.0,0.0,0.0,0.0,0.0,0.0,0.709,0.7139,0.7675,0.7805,0.8,0.8284,0.8292,0.8381,0.8612,0.8612,0.8612,0.8612,0.8612,0.8612,0.8612,0.8612,0.8612,0.8612,0.8612,0.8612,0.8612,0.8612,0.8612,0.8612,0.8612,0.8612,0.8612,0.8612,0.8612,0.8612,0.8612,0.8612,0.8629,0.8682,0.8794,0.8964,0.9044,0.9163,0.9205,0.8957,0.8652,0.823,0.7783,0.698,0.6126,0.5527,0.5027,0.4429,0.3578,0.3277,0.2924,0.2221,0.2423,0.2523,0.1718,0.1617,0.1617,0.1617,0.1617,0.1617,0.1617,0.1617,0.161,0.1592,0.1579,0.156,0.1528,0.1498,0.1475,0.1463,0.14,0.1391,0.1391,0.1391,0.1391,0.1391,0.1391,0.1391,0.1391,0.1391,0.1391,0.1391,0.1391,0.1391,1.1513,0.0,0.0,0.0,0.0,0.0,0.0,0.0,0.0,0.0,0.0,0.0,0.0,0.0,0.0,0.0,0.0,0.0,0.0,0.0,0.0,0.0,0.0,0.0,0.0,0.0,0.0,0.0,0.0,0.6741,0.7374,0.7537,0.7812,0.813,0.8187,0.83,0.8531,0.8588,0.8612,0.8612,0.8612,0.8612,0.8612,0.8612,0.8612,0.8612,0.8612,0.8612,0.8612,0.8612,0.8612,0.8612,0.8612,0.8612,0.8612,0.8612,0.8612,0.8612,0.8612,0.8612,0.8637,0.8763,0.895,0.9104,0.9153,0.938,0.955,0.9227,0.9233,0.9187,0.8584,0.8137,0.7627,0.6974,0.6526,0.5977,0.5031,0.4526,0.3924,0.3022,0.3176,0.3226,0.2423,0.212,0.1969,0.1768,0.1667,0.1617,0.1718,0.1667,0.1609,0.1585,0.1576,0.1562,0.154,0.151,0.149,0.1482,0.1452,0.1391,0.1391,0.1391,0.1391,0.1391,0.1391,0.1391,0.1391,0.1391,0.1391,0.1391,0.1391,0.1391,0.0,0.0,0.0,1.1442,0.0,0.0,0.0,0.0,0.7725,0.0,0.0,0.0,0.0,0.0,0.0,0.0,0.0,0.0,0.0,0.0,0.0,0.0,0.0,0.0,0.0,0.0,0.0,0.0,0.0,0.0,0.7151,0.7199,0.7407,0.7804,0.7935,0.8113,0.83,0.8522,0.8612,0.8612,0.8612,0.8612,0.8612,0.8612,0.8612,0.8612,0.8612,0.8612,0.8612,0.8612,0.8612,0.8612,0.8612,0.8612,0.8612,0.8612,0.8612,0.8612,0.8612,0.8612,0.8637,0.8763,0.895,0.9129,0.9347,0.9478,0.9575,0.9575,0.9575,0.9575,0.9575,0.8981,0.828,0.8024,0.7329,0.6631,0.6077,0.5327,0.4622,0.4074,0.3528,0.338,0.3823,0.3475,0.2874,0.2122,0.1768,0.1718,0.197,0.1768,0.1617,0.1615,0.159,0.162,0.162,0.1542,0.1512,0.1482,0.1452,0.1391,0.1391,0.1391,0.1391,0.1391,0.1391,0.1391,0.1391,0.1391,0.1391,0.1391,0.1391,0.1391,0.0,0.0,1.3814,1.2613,0.0,0.0,0.0,0.0,0.0,0.0,0.0,0.0,0.0,0.0,0.0,0.0,0.0,0.0,0.0,0.0,0.0,0.0,0.0,0.0,0.0,0.0,0.0,0.0,0.5994,0.0,0.0,0.709,0.7334,0.7608,0.7862,0.8105,0.8284,0.8514,0.8612,0.8612,0.8612,0.8612,0.8612,0.8612,0.8612,0.8612,0.8612,0.8612,0.8612,0.8612,0.8612,0.8612,0.8612,0.8612,0.8612,0.8612,0.8612,0.8612,0.8612,0.8612,0.8637,0.8763,0.895,0.9129,0.9347,0.9486,0.9575,0.9575,0.9575,0.9575,0.9575,0.9377,0.9179,0.908,0.8874,0.8478,0.7733,0.7223,0.667,0.5772,0.5432,0.5281,0.5077,0.5077,0.473,0.3729,0.3374,0.2972,0.2322,0.2021,0.1819,0.1617,0.1607,0.1602,0.1602,0.1573,0.1535,0.1483,0.1471,0.1456,0.1391,0.1391,0.1391,0.1391,0.1391,0.1391,0.1391,0.1391,0.1391,0.1391,0.1391,0.1391,1.4662,1.446,0.0,1.3368,1.2494,0.0,1.0387,0.0,0.0,0.0,0.0,0.0,0.0,0.0,0.0,0.0,0.0,0.0,0.0,0.0,0.0,0.0,0.0,0.0,0.0,0.0,0.5308,0.5758,0.5734,0.0,0.0,0.0,0.7212,0.7382,0.774,0.8008,0.8187,0.8373,0.8547,0.8612,0.8612,0.8612,0.8612,0.8612,0.8612,0.8612,0.8612,0.8612,0.8612,0.8612,0.8612,0.8612,0.8612,0.8612,0.8612,0.8612,0.8612,0.8612,0.8612,0.8653,0.8682,0.8861,0.9039,0.9218,0.9397,0.9535,0.9575,0.9575,0.9575,0.9575,0.9575,0.9575,0.9575,0.9575,0.9575,0.9476,0.8931,0.8478,0.7925,0.7123,0.683,0.6631,0.6476,0.6675,0.6431,0.5181,0.4726,0.4375,0.3776,0.3176,0.2725,0.237,0.207,0.1817,0.1617,0.159,0.1603,0.1516,0.1493,0.1472,0.1452,0.1396,0.1391,0.1391,0.1391,0.1391,0.1391,0.1391,0.1391,0.1391,0.1391,0.1391]}]]